GFSCGP_prec_cloud_003.txt.gz
Cloud_Cover
96 100 100 90 8 10 100 24 4 0 5 5 3 0 5 0 0 0 0 0 0 4 10 99 100 100 100 24 13 1 0 0 0 0 0 0 0 0 0 0 0 0 4 7
100 100 100 100 100 56 6 98 5 4 21 26 0 0 0 0 0 0 0 0 4 5 5 74 100 98 87 6 5 14 22 44 10 5 5 2 0 0 0 0 1 4 5 5
34 100 100 100 99 13 5 5 5 5 54 37 0 0 0 0 3 0 0 4 5 63 62 99 100 100 35 30 98 100 100 100 99 58 4 0 0 0 4 5 5 12 5 5
98 100 100 100 100 12 5 59 5 26 51 5 5 3 0 0 3 1 0 5 5 5 5 21 99 14 60 15 28 98 100 98 92 25 5 4 3 1 2 5 4 5 5 1
98 100 63 94 92 6 22 18 56 81 70 5 2 4 0 5 0 5 0 3 5 6 5 5 98 84 5 32 57 68 90 100 100 100 100 57 5 5 0 0 5 5 0 0
100 88 100 89 100 80 25 100 61 18 60 68 0 3 5 4 0 5 0 3 5 93 85 62 60 100 5 83 100 24 5 3 2 51 99 59 5 0 0 1 0 0 0 0
100 100 100 100 94 100 100 82 78 86 99 16 0 0 4 2 0 2 0 0 2 5 5 18 5 4 10 89 100 100 32 0 0 0 0 0 0 0 0 0 0 3 5 5
100 100 81 100 100 100 100 59 65 100 40 5 1 0 0 0 0 0 0 0 0 0 4 5 5 2 5 88 100 100 66 5 1 4 0 0 0 0 2 5 5 9 5 5
99 100 59 100 100 92 100 89 58 67 5 2 0 0 0 0 0 0 0 0 0 0 0 5 0 0 4 5 15 100 67 55 8 5 5 5 9 40 31 12 20 6 11 23
44 90 92 54 100 100 32 21 100 93 5 5 0 0 0 0 0 0 0 0 0 0 0 1 0 0 1 0 8 8 15 98 15 22 64 47 64 39 14 7 6 33 76 56
5 5 38 100 100 100 59 87 30 100 6 5 3 0 0 0 0 0 0 0 0 0 0 0 0 0 0 4 5 51 44 5 12 5 69 99 68 35 83 83 30 5 5 5
29 4 5 60 100 48 22 7 96 10 5 4 4 1 0 0 0 0 0 0 0 0 0 0 0 0 5 5 39 6 5 5 6 90 97 100 100 100 52 33 6 5 5 5
21 5 20 92 44 11 70 85 87 12 5 5 5 1 0 0 0 0 0 0 0 0 0 0 2 5 32 57 10 54 48 92 100 100 100 84 71 10 5 5 5 5 5 5
94 99 8 28 45 87 48 78 40 10 20 5 0 0 0 0 0 0 0 0 0 0 4 5 5 5 40 72 53 64 88 100 90 99 92 23 7 5 7 5 5 5 6 5
100 94 84 98 100 25 6 2 100 26 27 28 0 0 0 0 0 0 0 0 1 5 5 5 5 49 62 92 97 100 95 77 96 100 79 72 32 34 29 23 5 39 5 4
67 99 99 75 59 26 34 5 5 48 7 3 0 0 0 0 0 0 0 0 0 26 74 8 5 56 73 94 91 86 100 100 100 90 100 97 80 35 6 14 6 5 0 0
92 61 84 100 83 95 10 5 10 15 5 4 4 3 0 0 0 0 0 4 77 100 100 82 76 96 100 80 87 100 100 100 99 100 90 62 6 5 5 1 3 0 0 0
74 98 100 100 100 66 15 92 63 40 9 5 14 33 4 0 0 0 3 100 96 100 100 100 100 96 97 74 100 100 100 100 84 36 5 5 5 2 0 0 0 0 0 0
100 99 100 87 95 55 100 98 86 57 64 5 5 6 5 5 5 5 8 90 100 100 98 99 100 94 40 92 98 100 68 7 5 5 5 4 0 0 0 0 0 0 1 5
94 100 96 100 65 24 100 100 63 40 91 100 95 77 39 91 100 98 100 100 100 100 100 96 98 70 81 80 98 8 36 100 38 5 5 0 0 0 0 0 2 5 4 4
100 100 100 100 100 100 100 100 88 89 100 100 68 97 100 100 100 100 100 100 99 99 99 60 44 78 100 92 9 93 100 46 5 5 0 0 3 2 1 5 5 1 5 0
100 100 100 87 100 100 100 84 79 100 100 100 100 100 100 99 100 100 95 90 79 98 88 97 99 100 20 19 92 60 5 5 5 1 1 4 2 5 5 0 4 5 0 0
100 100 100 100 100 100 100 100 100 100 100 100 99 100 100 100 100 100 100 100 90 100 100 100 51 5 16 45 56 10 7 5 2 5 5 5 5 4 0 5 3 5 0 0
100 100 100 100 100 100 100 100 100 100 100 100 88 100 89 67 74 82 100 98 86 100 86 75 6 5 41 55 34 98 26 5 5 5 5 5 5 5 4 0 1 4 0 0
100 95 87 97 100 93 80 42 62 95 94 98 90 52 64 92 99 87 78 90 94 100 83 19 6 26 9 94 81 7 5 5 5 5 4 5 5 0 1 5 5 0 4 5
100 98 87 99 94 24 5 5 5 40 98 100 100 62 26 49 96 100 98 92 89 78 61 94 65 6 86 54 5 5 5 5 5 5 5 5 0 4 2 5 5 5 5 5

GFSCGP_prec_cloud_006.txt.gz
Cloud_Cover
43 94 100 45 100 87 97 33 79 24 7 4 4 0 5 0 0 0 0 0 0 0 0 0 1 5 84 96 66 9 6 5 19 57 95 88 60 5 0 0 0 0 0 0
100 96 100 100 100 98 100 27 59 90 3 5 4 0 5 0 0 0 0 5 0 0 0 0 5 40 95 89 100 98 96 29 52 11 50 97 38 5 2 0 0 0 2 5
94 71 100 100 99 100 73 99 72 21 5 27 3 0 4 0 0 0 0 1 0 0 0 2 5 5 67 100 100 100 100 100 98 99 82 14 0 0 0 0 0 4 5 5
100 97 100 100 100 100 100 77 60 5 62 94 6 4 0 0 0 0 0 0 0 5 2 0 0 3 7 44 91 71 83 37 92 70 6 5 0 4 3 4 4 2 1 4
100 100 100 100 100 100 100 92 5 8 100 61 6 5 0 5 0 0 5 2 4 2 5 5 2 5 5 5 58 98 100 100 100 80 4 0 0 4 4 5 4 5 3 0
100 100 100 99 100 100 100 69 36 44 96 73 28 2 0 4 0 0 5 5 5 5 5 8 5 16 58 96 51 44 37 62 14 5 5 4 5 3 0 0 0 0 0 0
100 100 100 100 100 100 100 92 99 100 95 48 3 0 0 4 2 5 1 5 5 2 0 5 5 5 5 5 5 5 6 37 5 9 53 31 5 5 4 0 0 0 0 0
100 100 100 100 100 100 57 62 79 88 19 15 4 0 0 5 5 0 0 5 5 0 0 0 0 0 5 5 5 4 4 28 19 8 33 83 34 53 26 5 5 5 5 5
100 100 100 88 92 100 100 88 64 5 5 5 2 0 0 4 0 0 0 0 2 0 0 0 0 0 0 1 5 5 5 5 4 4 5 5 16 89 70 60 53 30 6 78
100 100 100 100 90 82 100 43 55 5 39 42 2 0 1 1 0 0 0 0 0 0 0 0 0 0 0 0 0 1 11 5 3 5 5 4 5 66 14 30 96 39 92 100
100 100 100 100 100 87 100 93 69 5 5 64 5 2 0 0 0 0 0 0 0 0 0 0 0 0 0 0 0 0 0 1 16 7 5 18 5 45 99 88 69 90 16 6
95 100 100 97 97 100 100 100 100 89 58 5 5 1 0 0 0 0 0 0 0 0 0 0 0 0 0 0 0 0 0 3 5 5 14 5 69 80 53 33 16 9 5 5
30 37 88 100 100 100 100 100 100 60 5 5 17 4 0 0 0 0 0 0 0 0 0 0 0 0 0 0 5 0 4 5 5 5 25 57 71 70 63 52 6 29 5 5
61 18 36 5 4 4 82 100 100 81 42 59 2 2 0 5 0 0 0 0 0 0 0 0 0 0 5 5 5 5 5 10 30 72 57 5 12 90 19 27 81 5 5 5
96 63 5 1 4 5 5 17 54 5 39 4 15 1 5 0 0 0 0 0 0 0 0 0 0 4 5 5 5 5 86 80 81 45 5 27 100 68 93 100 8 5 5 5
100 100 45 5 3 1 3 0 5 1 5 5 5 0 0 0 0 0 0 0 0 0 0 0 0 5 5 5 11 95 99 100 72 51 36 84 68 91 81 7 5 5 5 5
99 87 90 32 5 5 5 0 0 0 0 2 2 4 0 0 0 0 0 0 0 0 0 0 3 5 5 65 100 79 90 87 87 71 62 100 100 50 5 4 5 5 0 0
100 100 97 60 56 35 1 2 5 0 0 0 0 0 0 0 0 0 0 1 4 0 0 5 70 80 88 100 99 96 100 86 59 92 100 80 5 4 1 4 0 0 0 0
100 95 38 96 100 42 6 3 4 4 5 5 0 3 5 5 5 4 3 0 2 5 16 93 98 100 100 100 100 98 84 100 30 60 15 5 5 5 0 0 0 0 0 0
100 100 100 92 64 5 61 45 5 5 6 5 5 5 5 5 5 5 0 10 8 37 100 100 100 100 100 100 83 91 74 80 96 99 7 5 5 0 0 0 0 0 0 0
99 100 100 88 66 9 76 58 14 5 5 5 5 5 5 5 22 54 98 98 99 100 100 100 100 100 94 97 92 94 100 100 100 64 5 5 4 5 5 3 4 0 0 4
98 100 99 87 91 80 100 43 38 74 72 11 5 39 38 56 91 95 99 100 100 100 100 100 100 97 98 99 100 100 100 98 22 5 5 5 5 5 5 2 0 0 0 0
100 82 100 90 54 69 90 12 59 5 5 86 100 100 100 100 100 100 100 100 100 100 100 77 100 100 100 98 95 100 100 49 5 5 5 5 5 5 4 4 0 0 0 0
100 100 100 100 100 100 100 100 100 100 100 100 100 100 100 100 100 100 100 100 98 100 100 100 99 100 37 91 100 37 6 5 5 5 5 5 5 5 0 0 0 0 0 0
100 100 100 100 100 100 100 100 100 100 100 100 100 100 100 96 91 98 99 100 100 100 100 100 98 16 93 78 10 5 5 5 5 5 5 4 0 0 0 0 0 0 0 3
98 100 97 100 100 100 100 100 100 100 100 95 100 100 74 18 44 86 76 89 100 100 100 59 5 40 15 5 5 5 5 5 5 5 0 0 0 0 0 0 0 0 5 5

GFSCGP_prec_cloud_009.txt.gz
Cloud_Cover
68 90 100 9 2 40 54 98 100 47 62 100 50 4 0 5 5 35 5 0 0 0 0 0 0 0 0 4 98 100 93 36 52 42 41 60 67 65 65 5 5 0 0 0
100 100 5 6 72 84 75 100 90 96 100 47 7 5 0 7 3 5 0 0 0 0 0 0 0 0 0 6 16 100 79 66 96 100 100 98 71 5 5 5 3 0 0 0
99 50 5 62 84 100 78 91 100 68 100 4 21 7 2 9 0 0 0 0 0 0 0 0 0 0 5 96 73 41 100 100 97 65 5 22 10 5 5 5 3 4 3 0
98 99 100 97 99 100 90 86 100 100 100 16 47 3 3 5 0 0 0 0 0 0 3 0 0 5 5 6 15 5 60 64 48 39 31 95 70 30 5 0 0 0 1 0
68 96 100 100 33 100 99 100 100 100 96 86 63 29 0 33 0 0 0 0 4 0 0 0 1 3 5 5 5 22 86 97 100 94 26 5 5 5 5 5 5 5 8 8
99 100 100 9 100 100 100 100 100 100 100 26 28 42 5 21 1 0 2 5 1 0 0 5 5 5 48 42 77 44 68 19 4 0 5 5 3 2 3 4 2 2 5 5
100 100 100 100 100 100 100 100 100 100 89 36 87 77 4 5 0 0 5 5 1 0 0 5 5 5 13 70 58 5 3 4 2 0 1 1 0 0 0 0 0 2 5 5
100 100 100 100 100 100 100 100 100 82 59 34 5 4 5 0 1 5 5 5 5 5 5 5 5 5 3 5 5 2 0 0 0 0 1 1 4 5 5 5 2 5 5 4
100 59 100 100 100 100 100 100 100 73 18 91 3 1 0 1 5 5 5 5 5 5 5 5 5 5 5 0 0 0 0 0 0 0 0 0 2 1 2 3 5 7 57 5
99 100 100 100 100 100 100 98 87 25 12 92 27 57 16 0 0 3 0 2 5 5 0 0 1 0 1 0 0 0 0 0 2 4 0 0 0 4 5 5 48 100 89 65
100 100 100 100 100 100 100 100 65 76 6 99 82 36 2 0 3 0 0 5 5 2 0 0 0 0 0 0 0 0 0 0 2 0 0 5 5 5 5 70 87 95 100 100
100 100 100 100 100 100 100 98 91 10 23 1 9 40 0 0 0 5 5 0 0 0 0 0 0 0 0 0 0 0 0 0 0 0 1 5 5 55 100 75 94 74 91 75
100 100 100 100 100 100 88 100 100 29 64 25 5 46 0 0 0 0 5 0 2 0 0 0 0 0 0 0 0 0 0 0 0 0 5 5 60 59 28 66 32 11 78 55
100 100 100 100 100 82 99 94 100 35 5 6 75 82 5 5 2 0 0 0 0 0 0 0 0 0 0 0 0 0 0 0 1 5 5 42 5 5 5 6 31 32 22 67
79 98 100 100 62 100 100 98 99 6 100 49 18 7 7 28 0 1 0 0 0 0 0 0 0 0 0 0 0 0 0 0 5 27 66 58 5 6 38 7 11 56 94 99
100 77 5 80 5 52 100 5 6 11 7 5 28 25 45 5 0 0 0 0 0 0 0 0 0 0 0 0 4 3 0 5 90 97 84 46 74 100 20 6 21 35 36 4
100 93 64 95 5 5 6 4 5 5 5 5 10 100 8 4 0 0 0 0 0 0 0 0 0 0 0 1 3 2 65 94 100 90 92 100 93 14 9 47 49 6 4 0
97 80 93 90 6 45 3 0 0 0 0 0 4 2 1 0 0 0 0 0 0 0 0 0 1 0 0 4 8 68 100 100 96 100 100 88 21 5 32 78 15 1 5 5
98 100 83 98 51 36 1 1 0 0 0 0 0 4 2 0 0 0 0 0 0 0 2 2 0 4 5 37 96 100 100 100 74 86 30 91 34 21 33 6 5 5 0 0
100 100 100 62 81 96 99 21 5 5 5 5 0 5 5 5 0 0 0 0 0 0 2 15 91 99 100 100 100 100 100 99 56 58 99 100 9 5 5 5 5 2 0 0
100 100 100 99 84 100 89 67 6 2 15 5 2 4 4 3 1 3 1 5 5 10 8 59 88 100 100 100 100 98 56 32 46 20 98 30 5 5 5 5 1 0 0 0
100 100 100 100 100 100 87 74 89 54 5 5 5 5 3 3 4 23 52 61 34 86 100 100 100 100 100 87 62 98 91 36 48 94 29 5 5 5 5 0 0 0 0 0
100 79 44 72 100 100 74 100 92 73 6 5 5 5 5 47 69 34 67 93 100 100 100 100 92 79 92 100 99 100 89 50 99 49 5 51 5 5 0 0 0 0 0 0
76 45 44 38 92 100 97 89 84 34 74 38 16 17 26 92 98 100 100 100 100 99 85 66 89 97 94 90 99 100 100 99 9 5 5 5 5 5 0 0 0 0 0 0
100 100 100 100 100 100 100 96 100 100 100 98 97 100 100 100 100 100 100 100 100 100 80 51 60 91 100 78 100 100 100 42 5 5 5 5 5 0 1 0 0 0 0 1
100 100 93 98 94 100 100 100 100 100 100 100 100 100 100 100 100 100 100 100 42 48 87 81 100 100 100 100 100 100 81 7 5 5 5 4 3 5 0 0 0 0 0 1

GFSCGP_prec_cloud_012.txt.gz
Cloud_Cover
100 88 27 96 96 58 8 71 5 4 5 53 6 2 2 1 0 0 2 78 12 5 5 5 5 31 15 0 0 0 5 3 23 5 6 8 84 100 100 100 100 100 100 72
100 24 75 100 90 34 7 34 32 43 61 87 25 21 1 2 0 0 3 4 5 5 5 14 48 4 0 0 0 0 4 24 37 19 89 55 96 66 66 22 5 5 5 3
61 13 100 100 100 89 75 25 19 86 48 100 76 26 25 1 0 4 0 0 5 5 5 14 4 0 0 0 0 5 5 5 50 51 48 68 18 63 72 36 28 5 5 2
61 45 100 99 11 100 100 4 9 39 87 87 17 49 0 0 0 0 0 0 5 4 5 0 0 0 0 0 4 5 5 5 5 5 2 5 5 5 12 6 5 5 5 3
35 100 100 88 11 5 13 47 40 100 100 99 6 60 0 4 0 1 0 0 0 0 4 0 1 0 0 1 5 5 5 5 5 0 0 5 5 1 0 3 1 0 0 1
100 100 32 2 64 24 27 78 100 100 100 99 90 37 0 4 0 0 0 2 4 5 5 4 1 0 0 5 5 5 5 5 5 3 5 5 5 2 0 0 0 0 0 0
100 84 97 96 100 77 100 95 100 100 100 96 81 89 0 0 5 5 0 4 5 5 5 2 0 0 0 5 5 5 5 5 38 63 3 4 3 2 1 0 0 0 0 1
96 93 99 95 86 16 100 100 100 100 100 38 80 18 5 5 4 5 3 5 5 5 5 2 0 0 5 5 5 5 5 5 3 0 0 0 0 0 0 0 0 0 4 5
100 100 100 63 57 100 100 100 100 100 100 37 47 54 0 0 2 5 5 0 5 5 5 5 0 0 1 5 10 5 5 3 0 0 0 0 0 0 0 3 7 63 5 6
100 100 100 100 100 100 100 100 100 100 66 85 94 15 0 0 0 0 5 0 0 5 5 5 5 5 0 0 5 1 2 0 0 0 0 0 0 0 4 5 73 41 17 47
100 100 100 100 100 100 100 100 100 100 100 94 53 86 0 0 0 0 0 0 3 5 5 5 5 5 5 3 0 0 0 0 0 0 0 0 0 4 5 5 5 64 53 77
100 100 100 100 100 100 100 100 77 100 100 100 58 4 0 0 0 0 0 0 5 5 0 4 5 5 5 2 0 0 0 0 0 0 0 5 4 4 5 5 5 40 100 100
100 100 100 100 100 100 100 100 99 100 100 100 65 32 5 0 0 0 0 0 0 0 1 5 4 4 3 0 0 0 0 0 0 0 0 0 0 3 4 5 86 100 100 100
100 100 100 100 100 100 81 100 100 100 94 70 8 5 5 1 4 0 0 0 0 0 0 5 0 1 0 0 0 0 0 0 0 0 0 0 5 6 60 98 100 100 99 76
100 100 100 100 100 100 100 100 100 82 89 21 26 5 5 5 5 1 0 1 5 5 5 5 0 0 0 0 0 0 0 0 4 0 2 5 23 89 99 100 100 94 89 100
100 100 100 100 100 100 100 44 71 100 26 83 24 5 30 5 2 2 3 0 0 0 0 0 0 0 0 3 0 0 0 0 0 5 28 83 95 100 100 100 91 100 89 79
100 100 75 86 76 100 100 100 100 100 100 93 100 100 9 52 5 5 0 0 0 0 0 0 0 0 0 0 0 0 0 3 15 62 100 97 96 100 100 94 67 30 13 5
10 16 72 61 6 12 5 4 84 86 30 14 99 100 6 4 5 2 0 0 0 0 0 0 0 0 0 0 0 0 5 10 78 96 99 100 100 100 97 52 10 5 5 4
92 71 50 81 45 29 1 1 49 5 40 3 5 4 5 5 5 5 3 0 0 0 0 0 0 5 2 0 24 76 100 98 100 100 100 100 100 62 37 12 5 5 5 5
100 100 90 5 73 13 5 5 0 1 5 3 0 0 0 0 0 4 3 0 0 0 0 0 3 18 46 47 82 100 92 100 100 100 100 66 70 5 8 5 5 5 5 5
100 99 99 99 84 83 100 79 10 21 4 2 0 2 0 0 2 5 4 0 3 5 8 23 24 79 100 99 100 100 100 99 100 72 24 23 6 6 5 15 5 5 5 5
100 100 100 100 100 100 63 54 94 90 42 5 5 4 3 5 5 3 5 5 25 83 93 96 100 100 100 95 92 100 100 74 14 9 5 5 15 81 62 5 5 5 4 0
100 100 100 100 100 80 100 59 22 36 6 46 27 5 5 5 5 5 10 87 100 100 93 99 100 100 100 100 100 35 5 5 5 63 50 99 100 89 6 5 5 4 5 0
46 30 78 49 78 77 84 36 58 86 100 100 98 100 99 53 58 99 99 96 100 100 100 100 100 100 99 44 13 5 34 47 60 100 100 100 90 7 12 5 5 5 5 1
96 70 69 97 46 60 100 77 69 64 68 88 98 99 99 94 99 100 100 100 100 100 100 100 100 99 58 30 12 18 13 99 100 100 100 52 6 43 15 5 6 5 0 0
84 90 84 90 58 96 97 100 95 98 100 100 100 100 100 100 100 100 100 100 100 100 100 98 71 53 8 5 5 74 100 100 100 100 36 28 66 5 25 44 6 0 0 0

GFSCGP_prec_cloud_015.txt.gz
Cloud_Cover
5 14 93 27 9 7 5 5 5 4 4 4 4 5 0 0 5 0 0 0 0 0 0 0 17 71 58 100 97 36 74 41 4 0 2 32 85 41 36 44 83 58 97 80
37 93 75 5 5 5 5 22 6 5 7 4 4 5 0 0 0 0 0 0 0 0 0 10 78 13 5 0 0 0 2 5 0 0 5 4 34 39 5 61 25 28 5 5
7 6 98 5 5 6 5 22 14 18 12 6 43 5 0 0 2 0 0 0 1 0 0 22 6 5 4 4 5 5 4 0 0 5 5 5 3 5 3 3 5 5 5 5
15 27 50 30 5 8 29 49 6 5 82 98 90 78 0 2 5 2 0 0 0 0 4 7 5 5 44 20 5 2 0 0 5 5 4 0 0 0 0 5 5 0 0 0
28 35 100 5 37 96 8 87 11 87 12 98 100 100 2 2 4 0 0 0 0 0 0 5 5 14 28 5 3 0 0 0 1 0 0 0 3 7 58 5 5 0 0 0
88 81 50 100 100 100 47 72 100 100 100 98 94 96 93 2 0 0 0 0 0 0 4 5 5 5 9 1 0 0 0 0 0 1 4 33 10 2 0 0 0 0 0 0
100 100 100 100 100 77 6 70 85 52 100 67 62 100 100 3 0 0 0 0 0 0 4 5 5 36 4 0 0 0 0 0 5 5 2 0 0 0 0 0 0 0 0 0
100 100 100 100 82 91 77 100 97 55 7 100 100 100 100 18 0 0 0 0 0 3 3 5 5 5 0 0 0 0 3 5 5 0 0 0 0 0 0 0 0 0 0 4
100 97 95 52 100 95 10 87 9 100 98 100 100 100 100 97 74 2 0 0 0 0 5 5 5 3 0 0 0 0 5 5 0 0 1 0 0 0 0 0 0 0 5 5
100 98 100 100 100 73 100 19 69 100 100 100 100 100 100 98 24 1 0 0 0 0 5 5 5 0 0 0 0 0 0 0 0 3 5 0 0 0 0 0 3 5 5 5
100 100 100 100 100 45 88 98 98 100 100 100 93 100 99 100 88 5 0 0 0 0 5 5 4 0 0 3 5 4 4 0 5 5 0 0 0 0 2 5 9 5 5 5
98 100 100 100 99 100 100 100 100 100 100 100 100 100 10 5 39 4 0 0 1 0 4 5 0 0 1 5 5 5 5 5 5 0 0 0 0 0 0 0 5 5 5 58
100 100 100 100 100 100 100 100 100 100 100 98 100 100 36 5 4 0 0 0 4 0 0 0 0 0 5 5 5 5 5 4 0 0 0 0 0 0 0 5 5 10 93 84
100 100 100 100 100 100 100 100 100 100 100 100 100 100 99 72 5 0 0 0 0 0 0 0 0 2 5 5 5 5 0 1 0 0 0 0 3 3 5 5 79 82 100 100
100 100 100 100 100 100 100 100 100 100 100 100 100 100 100 100 33 4 0 0 0 0 0 0 0 0 5 5 5 0 5 5 0 0 0 0 5 5 62 100 70 99 100 100
100 100 100 100 100 100 100 100 100 100 100 100 100 100 95 12 2 0 0 0 0 0 0 0 0 0 5 1 0 0 5 3 0 0 0 5 53 65 100 89 100 99 96 74
100 100 100 100 100 100 100 100 100 100 100 100 33 60 6 5 4 3 0 0 0 0 0 0 3 5 5 5 1 5 5 1 4 4 7 83 97 97 100 100 100 100 97 47
100 97 100 100 100 100 100 100 100 98 56 32 48 30 5 12 41 4 0 1 4 0 0 0 0 0 0 0 4 5 5 5 11 91 100 94 100 100 100 100 100 98 28 5
100 48 78 89 100 100 98 86 14 9 5 9 6 52 3 5 5 5 5 5 5 1 0 0 0 0 0 2 5 5 94 99 100 100 100 100 100 100 100 100 100 66 5 5
66 100 96 94 75 75 5 35 89 20 5 19 6 5 5 5 2 0 0 3 5 1 0 0 0 5 5 5 9 74 95 100 100 100 100 100 100 100 100 100 81 5 34 43
96 100 24 26 83 27 5 5 4 5 2 5 4 5 4 5 1 2 0 3 5 4 2 5 5 5 5 5 6 63 98 100 100 100 100 100 100 100 82 13 19 100 100 18
100 100 100 94 95 17 48 46 38 34 5 5 5 5 5 5 1 2 3 5 5 5 5 5 18 62 65 50 98 99 100 95 97 100 100 100 98 69 16 92 100 92 9 5
77 65 41 100 93 50 98 100 90 32 5 5 5 5 5 5 5 5 5 5 5 45 90 100 92 79 98 100 100 90 96 100 100 100 66 20 13 86 90 95 65 5 5 5
100 97 100 100 90 99 93 100 100 100 100 71 5 5 5 10 5 6 5 5 33 57 86 100 100 100 100 100 100 100 100 90 5 34 5 70 96 77 73 12 5 5 5 3
100 100 100 100 76 87 98 86 100 98 100 63 53 58 77 67 49 70 68 84 97 100 100 100 100 100 100 100 89 41 12 5 5 15 95 75 80 42 5 7 7 5 1 0
100 100 97 88 95 92 96 97 99 89 100 100 100 100 100 100 100 100 100 99 96 100 100 100 100 100 47 14 5 5 5 5 52 69 69 60 7 5 18 10 5 0 0 0

GFSCGP_prec_cloud_018.txt.gz
Cloud_Cover
2 28 40 5 3 5 5 32 6 5 23 4 9 0 2 4 0 0 0 0 0 0 0 0 8 100 100 100 99 100 100 100 100 100 100 100 99 100 100 77 57 23 6 8
67 64 5 5 2 5 5 26 22 5 5 19 6 3 1 0 0 0 0 0 0 0 0 0 0 82 100 100 82 77 95 52 24 98 99 38 5 79 100 45 4 1 3 5
99 24 3 5 5 15 5 12 24 48 32 5 81 8 0 0 0 0 0 0 0 0 0 0 0 1 14 5 5 4 5 2 1 0 7 69 100 94 5 0 0 0 1 0
100 68 50 41 50 7 32 5 5 19 53 73 22 51 5 3 0 0 0 4 0 0 0 0 0 0 0 5 5 5 4 3 0 5 4 5 5 4 0 0 5 2 0 0
51 76 90 47 95 89 15 6 5 5 31 67 4 78 7 0 0 0 0 0 0 0 0 0 0 0 5 5 5 5 5 6 6 5 1 0 5 0 0 5 5 0 0 0
91 83 72 8 97 61 54 18 56 36 89 96 3 6 2 0 0 0 0 0 0 0 0 0 0 0 5 1 5 5 6 31 6 5 5 0 0 2 4 0 0 0 0 0
100 100 100 80 100 100 100 100 100 87 85 38 2 2 0 0 0 0 0 0 0 0 0 0 0 0 4 5 5 39 6 5 5 5 5 5 5 5 3 0 0 0 0 0
100 100 100 100 100 100 100 100 100 98 62 7 39 6 3 33 0 0 0 0 0 0 0 0 0 2 1 5 5 8 5 5 0 5 5 29 5 0 0 0 0 0 0 0
99 91 99 100 100 100 100 100 100 100 100 100 2 0 99 26 0 0 0 0 0 0 0 0 0 3 5 3 5 5 5 0 0 0 5 5 1 5 0 0 0 0 0 0
99 82 72 96 97 95 100 100 100 74 66 41 10 80 6 62 51 10 0 0 0 2 0 0 2 4 5 4 5 5 0 0 0 0 0 2 5 5 0 0 0 0 0 0
91 100 100 87 99 97 95 100 67 5 2 91 98 100 100 100 100 100 28 12 5 1 0 0 0 2 5 5 5 4 0 0 0 0 1 5 5 5 0 0 0 0 0 5
86 100 100 100 100 100 100 18 8 86 99 100 100 100 100 100 98 100 100 97 64 1 0 0 0 5 5 4 5 4 0 0 0 5 5 5 4 0 0 0 5 0 0 3
100 100 100 100 100 100 100 99 100 100 100 100 100 100 100 100 100 100 100 100 65 0 0 0 0 4 5 5 5 0 5 0 5 5 5 3 0 0 2 0 2 0 2 5
100 100 100 100 100 100 100 100 100 100 100 100 100 100 100 100 100 100 100 100 20 0 0 0 0 2 5 5 5 4 4 5 5 5 5 5 2 0 2 0 0 5 19 76
100 100 100 100 100 100 100 100 100 100 100 100 100 100 100 100 100 100 100 91 4 5 3 0 0 3 5 5 5 3 5 5 5 5 5 5 4 5 5 4 39 79 64 28
100 100 100 100 100 100 100 100 100 100 100 100 100 100 100 100 100 100 100 94 5 5 5 0 3 5 5 5 0 3 5 3 5 5 5 5 5 5 5 58 100 59 74 57
100 100 100 100 100 100 100 100 100 100 100 100 100 100 100 100 100 100 94 32 5 5 5 5 5 5 5 3 0 0 0 4 5 5 5 5 5 35 96 77 80 98 77 98
100 100 100 100 100 100 100 100 100 100 100 100 100 100 100 100 100 51 41 20 5 5 5 5 5 5 4 0 0 0 5 5 5 5 50 76 88 41 66 90 45 80 100 97
100 100 100 100 100 100 100 100 100 100 100 84 100 88 100 32 8 42 25 5 5 5 5 6 5 5 0 0 0 0 5 5 76 71 47 75 71 76 14 77 96 77 94 100
100 100 100 99 100 100 100 57 13 99 95 87 11 5 7 5 100 100 93 45 8 5 5 5 2 0 0 5 5 5 5 5 40 62 48 36 17 64 83 92 94 100 99 53
64 100 98 57 95 68 69 40 5 5 5 5 5 82 100 29 17 89 100 100 90 7 5 5 5 5 5 5 5 11 48 83 100 23 5 7 39 100 70 100 98 32 5 52
70 99 100 99 48 48 5 5 5 4 5 3 1 51 85 57 70 70 82 33 11 2 1 5 5 5 5 5 36 99 100 67 6 5 5 5 5 67 99 54 6 7 5 24
62 52 100 17 18 5 5 38 31 40 52 36 5 5 100 99 39 5 5 5 4 5 5 5 5 5 10 70 66 71 14 5 5 5 5 14 100 56 6 5 8 6 14 5
100 100 100 84 66 100 74 77 67 80 90 68 27 28 48 41 20 8 6 6 44 86 94 60 36 65 58 66 49 15 11 61 21 5 56 70 5 5 5 5 13 5 5 2
100 81 96 85 55 52 33 60 100 100 100 100 96 88 96 99 99 93 90 76 81 77 36 26 57 28 5 5 20 62 34 5 25 90 29 5 5 5 8 5 5 5 2 0
100 100 99 92 100 100 100 92 100 100 100 82 100 100 100 94 88 83 70 63 43 68 55 41 47 49 33 21 30 7 8 76 58 6 5 5 5 5 5 5 5 4 0 4

GFSCGP_prec_cloud_021.txt.gz
Cloud_Cover
26 62 88 13 74 18 6 53 100 100 69 4 2 3 0 0 0 0 0 0 0 0 0 0 0 0 0 0 0 4 98 88 99 62 54 100 100 100 100 100 100 100 77 46
20 35 76 60 48 17 5 77 96 63 6 5 5 1 0 0 0 0 0 0 0 0 0 0 0 0 0 0 0 3 68 100 100 100 100 100 100 98 100 100 100 42 5 2
97 97 99 5 5 9 6 52 31 53 5 4 3 0 0 0 0 0 0 0 0 0 0 0 0 0 0 0 0 0 6 98 97 92 86 87 100 100 100 97 83 5 1 0
94 95 5 5 20 15 100 30 5 5 22 31 4 12 0 0 0 0 0 0 0 0 0 0 0 0 0 0 0 0 0 43 60 68 27 8 16 65 94 99 5 3 0 0
92 89 5 6 25 82 97 12 5 5 6 28 5 89 0 0 0 0 0 0 0 0 0 0 0 0 0 0 0 0 0 2 50 5 5 5 94 99 46 5 5 0 0 0
70 35 75 5 16 88 76 100 99 93 67 100 49 55 0 1 0 1 0 0 0 0 0 0 0 0 0 0 0 0 0 5 6 24 26 8 5 5 5 5 5 5 0 0
100 100 100 26 93 100 100 100 100 100 100 99 37 17 5 21 14 5 0 0 0 0 0 0 0 0 0 0 0 0 0 5 5 5 1 5 20 16 40 28 23 5 0 0
100 88 100 69 15 100 100 100 100 100 43 9 98 4 4 41 58 5 5 0 0 0 0 0 0 0 0 1 2 5 0 0 3 5 1 0 5 5 8 5 5 3 0 0
100 84 17 15 100 85 100 100 100 100 100 100 9 0 0 0 16 5 5 5 0 0 0 0 0 6 0 3 5 5 0 0 3 0 4 4 5 1 2 5 5 5 0 0
28 89 5 39 66 100 100 100 100 100 100 99 4 4 0 1 77 7 0 5 0 0 0 0 3 40 0 4 11 6 4 0 0 2 5 5 5 0 0 5 5 3 0 0
100 100 42 90 100 71 100 100 82 86 84 83 13 3 5 80 98 2 0 0 4 0 0 0 3 4 1 5 12 5 3 0 0 5 5 5 5 0 5 5 4 0 0 0
100 100 100 100 100 100 100 100 100 68 8 6 9 93 100 20 5 96 72 22 4 0 1 0 30 3 5 4 0 0 0 0 0 5 5 5 5 5 5 5 0 0 0 0
100 100 100 100 100 100 100 100 100 100 87 36 100 90 100 100 100 100 62 56 57 97 30 2 42 3 5 2 0 0 0 4 5 5 7 5 5 5 5 5 5 0 4 0
100 100 100 100 100 100 100 100 100 85 100 100 100 100 100 100 100 100 100 100 100 100 99 94 7 2 1 0 0 1 3 5 5 5 6 5 5 5 5 5 5 5 5 2
100 100 100 100 100 100 100 100 100 100 100 100 100 100 100 100 100 100 100 100 100 100 100 95 3 0 0 4 0 3 4 5 5 5 5 5 5 5 5 5 29 5 5 5
100 100 100 100 100 100 100 100 100 100 100 100 100 100 100 100 100 100 100 100 100 100 99 12 3 0 0 0 0 4 5 5 5 5 5 5 5 5 50 90 5 68 15 14
100 100 100 100 100 100 100 100 100 100 100 100 100 100 100 100 100 100 100 100 100 100 100 30 0 1 5 2 0 0 5 5 5 5 5 5 5 89 100 89 100 61 23 1
100 100 100 100 100 100 100 100 100 100 100 100 100 100 100 100 100 100 100 100 100 100 48 5 5 5 5 1 4 5 5 5 5 5 5 14 100 100 98 69 90 5 4 31
100 100 100 100 100 100 100 100 100 100 100 100 100 100 100 100 100 100 100 100 100 100 97 5 5 5 5 5 5 5 5 5 5 5 28 77 100 96 71 23 5 5 70 45
100 100 100 100 100 100 100 100 100 100 100 100 100 100 100 100 95 100 100 100 91 98 50 5 11 6 5 5 5 5 5 5 5 8 82 95 98 83 5 5 5 10 74 100
86 100 100 100 100 100 100 99 100 100 100 88 81 99 100 100 100 100 100 100 100 98 99 100 82 60 5 5 5 5 5 5 48 86 100 100 62 5 5 5 64 100 53 5
100 100 100 100 73 53 43 6 57 5 77 43 34 62 91 100 100 100 100 100 100 100 100 100 99 28 5 5 5 5 16 68 83 91 47 5 5 5 5 50 58 5 5 5
100 99 99 100 92 52 97 93 78 44 5 5 5 5 26 28 10 98 100 100 100 100 100 98 12 5 10 65 28 6 89 91 91 5 5 5 5 5 36 6 5 5 5 5
100 100 72 96 91 89 42 5 5 62 32 77 98 82 48 9 5 5 98 96 90 38 5 6 49 74 16 16 26 67 12 19 56 5 5 5 5 5 5 5 5 5 5 34
100 100 100 99 98 99 29 30 67 68 94 98 88 94 95 83 64 25 20 20 32 50 64 50 31 32 20 41 5 18 5 5 5 5 5 5 5 5 5 5 5 22 61 14
100 100 100 100 86 63 100 100 100 100 79 100 100 100 100 92 87 95 100 100 100 100 100 98 66 5 5 5 5 5 4 5 5 5 5 5 5 5 5 5 43 15 5 5

GFSCGP_prec_cloud_024.txt.gz
Cloud_Cover
100 74 100 100 100 52 5 33 96 100 74 30 5 1 0 0 0 0 0 0 0 0 0 0 0 0 0 0 0 0 0 0 0 0 0 12 100 100 100 100 100 100 100 83
100 100 100 98 61 58 100 100 87 62 4 2 4 4 0 0 0 0 0 0 0 0 0 0 0 0 0 0 0 0 0 0 0 0 0 100 100 100 100 100 100 100 100 20
96 78 61 5 26 84 100 100 77 6 1 1 5 1 0 0 0 0 0 0 0 2 0 0 0 0 0 0 0 0 0 0 0 0 0 84 100 100 100 100 100 100 80 48
49 6 5 7 5 5 45 52 23 12 67 67 3 13 0 0 0 0 0 0 0 0 0 0 0 0 0 0 0 0 0 0 0 0 0 6 97 100 100 100 100 100 11 5
41 13 14 93 7 79 38 5 6 7 71 95 43 70 0 0 0 0 3 0 0 3 5 0 0 0 0 1 2 0 0 0 0 0 1 0 13 91 100 94 89 56 5 5
92 54 82 8 5 96 87 87 100 73 81 95 17 49 0 6 5 12 5 3 0 1 5 5 0 0 0 0 0 0 0 0 0 0 10 72 100 100 100 100 84 31 64 34
100 100 99 90 95 100 100 100 100 100 100 43 5 24 0 0 69 61 5 5 5 5 2 0 0 0 0 0 0 0 0 0 0 29 100 100 100 100 88 31 4 59 11 5
100 54 100 99 21 9 89 100 100 100 46 9 5 2 0 28 1 16 74 2 5 5 5 5 2 0 0 0 0 0 0 0 27 100 100 100 30 16 6 0 4 5 5 5
98 89 8 50 66 51 100 99 60 100 100 100 6 1 0 0 5 5 8 6 5 5 5 0 2 0 0 0 0 0 1 4 52 96 65 4 2 2 0 5 2 5 5 5
88 92 5 6 95 92 100 68 97 100 100 100 4 0 0 0 37 5 5 5 0 5 5 0 0 0 0 5 1 1 20 68 26 22 0 0 0 1 0 5 4 5 5 5
100 100 93 100 90 51 100 100 100 95 100 78 4 4 0 0 4 87 81 4 0 0 1 5 0 1 0 5 1 5 59 69 85 5 0 0 4 4 2 5 5 5 5 5
100 100 100 99 100 100 100 100 100 100 100 100 95 2 68 99 7 32 100 4 0 5 5 5 5 1 1 5 5 5 69 100 19 5 1 1 0 5 5 5 5 5 5 5
100 100 100 100 100 100 100 100 100 100 100 33 22 64 100 100 100 100 14 2 4 35 27 7 5 0 4 1 5 50 89 100 10 4 0 3 5 5 5 5 5 5 5 5
100 100 100 100 100 100 100 100 100 100 100 100 97 100 89 59 100 100 100 72 1 3 5 5 4 2 5 4 29 87 100 42 3 2 4 5 5 5 5 5 5 5 5 5
100 100 100 100 100 100 100 100 100 100 32 25 92 100 100 100 100 100 100 100 22 71 65 89 100 80 11 73 74 53 54 5 1 4 5 5 5 5 5 5 5 5 16 78
100 100 100 100 100 100 100 100 100 100 100 100 71 99 100 100 100 100 100 100 100 100 100 100 98 100 100 100 26 5 5 5 6 12 16 46 7 5 5 5 5 60 99 84
100 100 100 100 100 100 100 100 100 100 100 100 100 100 100 100 100 100 100 100 100 100 100 100 100 100 100 100 10 5 5 42 72 76 56 5 6 5 5 5 52 98 89 16
100 100 100 100 100 100 100 100 100 100 93 97 100 100 100 100 100 100 100 100 100 100 100 100 100 100 100 39 5 5 5 57 63 45 8 5 5 5 20 92 100 84 63 6
100 100 100 100 100 100 100 100 100 100 100 100 100 90 82 100 94 49 100 100 100 100 100 100 100 100 95 28 5 5 8 49 10 6 5 5 5 5 56 100 97 96 6 5
100 100 100 100 100 100 100 100 100 100 100 85 93 100 100 100 100 100 100 100 100 100 100 100 100 100 100 98 44 24 24 71 52 5 5 5 34 99 97 99 71 5 5 5
100 100 100 100 100 100 100 92 100 100 98 100 90 100 100 100 100 100 100 100 100 100 100 100 100 100 69 90 100 83 11 9 41 19 19 83 94 100 92 17 6 5 5 5
91 92 100 100 100 100 100 100 97 100 100 100 100 100 100 100 100 100 100 100 100 100 100 100 96 97 100 100 96 41 18 11 44 99 100 100 94 48 46 5 4 5 5 5
100 97 99 98 97 100 100 100 97 98 84 100 100 100 100 100 100 100 100 100 99 100 100 100 100 100 97 19 32 68 71 100 97 86 80 68 58 6 2 5 5 5 5 0
44 100 100 97 49 100 100 98 100 100 97 96 98 53 57 100 91 74 100 55 100 100 100 100 79 66 83 67 82 78 92 100 83 60 17 5 1 10 50 13 5 5 2 5
50 28 100 100 98 54 100 56 97 58 41 25 44 18 16 5 5 26 60 88 100 100 100 100 97 100 100 100 100 100 100 100 84 16 4 5 34 55 15 5 5 5 5 5
98 89 100 100 77 90 99 99 70 63 83 98 96 70 45 65 90 99 100 100 100 100 100 100 100 100 100 100 100 100 92 24 5 5 5 41 42 7 5 5 5 5 5 5

GFSCGP_prec_cloud_027.txt.gz
Cloud_Cover
99 100 100 100 63 10 5 32 100 100 100 81 1 0 0 0 0 0 0 0 0 0 0 0 0 0 0 0 0 0 0 20 1 0 0 1 11 64 89 100 100 100 100 100
100 100 100 100 100 100 100 100 38 91 100 5 6 0 0 0 0 0 0 0 0 0 0 0 0 0 0 0 0 0 0 0 0 0 0 1 61 69 99 100 100 100 100 100
100 100 100 97 90 100 100 51 37 72 64 5 3 0 0 2 0 0 0 0 0 0 0 0 0 0 0 0 0 0 0 0 0 0 0 18 98 35 89 98 100 100 100 100
95 75 14 9 36 98 100 100 26 7 51 90 5 4 2 0 0 0 3 0 0 0 0 0 0 0 0 0 0 0 0 0 0 0 0 0 0 0 32 100 100 100 100 100
100 100 100 100 100 67 47 63 48 15 24 100 95 100 0 6 55 42 5 2 0 0 0 0 0 0 5 2 0 0 0 0 0 0 2 2 1 5 100 100 100 100 100 60
77 53 70 29 8 10 78 46 78 68 87 95 6 79 0 6 96 100 42 5 0 0 0 0 0 0 2 3 0 0 0 0 0 1 51 90 39 28 100 100 100 75 24 42
93 75 98 84 88 69 73 100 100 100 100 46 5 33 0 0 36 84 100 5 0 0 0 0 0 0 0 5 0 0 0 0 0 1 66 100 59 100 100 100 100 94 79 5
98 91 60 100 86 10 54 44 96 59 40 9 5 5 0 0 0 5 100 6 0 0 0 0 0 0 0 1 5 0 0 0 0 0 33 71 98 100 100 100 98 100 19 5
99 73 86 46 46 100 100 100 19 90 16 100 42 1 0 1 1 3 42 100 35 0 0 0 0 0 0 1 0 0 0 2 0 0 0 85 100 100 100 100 98 5 28 4
100 92 7 5 61 67 100 100 94 100 100 100 5 4 0 0 3 0 100 92 45 4 0 5 5 5 0 0 0 0 2 4 3 59 100 100 100 100 100 48 0 5 8 5
80 84 30 35 75 89 100 100 100 99 95 92 64 1 0 1 4 0 10 22 5 1 0 5 5 5 5 4 3 4 5 5 45 100 100 100 100 41 4 0 5 5 5 5
86 95 99 94 49 91 100 100 100 100 99 100 97 2 63 8 94 5 68 60 5 0 0 0 7 5 5 7 5 5 5 45 100 100 100 98 58 7 5 5 5 5 5 5
88 99 100 100 100 100 100 100 100 100 100 100 99 28 100 64 0 7 72 99 63 1 0 15 5 5 5 4 8 34 54 100 100 100 100 100 70 58 5 5 26 5 5 5
100 100 99 100 100 100 100 100 100 100 100 100 86 93 99 8 37 100 100 100 100 32 44 1 0 5 10 38 36 84 100 100 100 100 100 100 98 65 6 36 69 5 5 50
88 100 98 100 97 100 100 100 100 100 82 99 55 31 3 8 100 100 100 100 100 77 84 17 1 3 33 73 82 100 100 100 100 99 100 100 97 44 24 19 9 5 84 98
98 100 100 100 100 100 100 100 100 100 100 100 72 100 100 89 100 100 100 100 100 100 56 41 5 10 100 61 96 100 100 100 100 100 100 98 71 55 5 5 77 100 100 16
100 100 100 100 100 100 100 100 100 100 100 100 100 24 100 98 89 100 100 100 100 100 92 18 5 52 99 100 100 98 96 94 100 100 100 100 46 5 48 100 100 89 45 31
100 100 100 100 100 100 100 100 100 100 97 100 100 100 100 100 100 100 100 100 100 100 99 99 100 69 90 100 100 100 100 100 100 100 100 68 76 100 100 90 64 67 23 81
100 99 100 100 100 100 100 100 100 100 100 100 100 100 100 100 100 100 100 99 87 99 100 89 93 100 98 100 100 100 100 100 100 100 99 88 99 75 65 91 34 78 83 26
100 100 100 100 100 98 100 100 100 99 100 100 100 100 100 100 99 100 100 82 90 100 100 100 100 100 100 100 100 100 100 100 100 98 47 54 73 75 66 85 83 52 5 5
100 100 100 100 100 100 100 100 100 100 100 100 100 100 100 100 100 100 100 100 100 100 100 100 100 100 100 100 100 100 100 61 79 91 75 67 78 76 64 81 33 5 5 4
73 100 100 78 100 100 70 100 100 100 100 100 100 100 100 100 100 100 100 100 100 100 100 100 100 100 100 100 100 100 90 100 95 97 99 94 84 92 37 5 5 4 5 5
100 92 100 100 75 24 100 63 100 100 100 100 100 100 100 100 100 100 100 100 100 100 100 100 100 100 100 100 100 100 100 100 100 100 98 80 64 25 5 5 5 5 5 5
100 100 100 99 100 59 100 100 88 97 100 100 97 56 100 100 100 100 100 100 100 100 100 100 100 100 100 100 100 100 99 99 90 94 69 53 36 5 5 5 5 5 3 0
70 100 100 86 99 95 31 53 100 29 100 78 99 94 92 98 100 100 100 100 100 100 100 100 100 100 95 92 100 98 100 100 100 75 19 5 5 5 5 5 5 2 0 2
69 47 17 12 45 47 18 98 100 93 99 100 100 90 95 85 88 96 84 46 93 100 100 100 100 100 100 100 100 88 26 6 5 5 3 5 5 5 5 5 5 5 4 0

GFSCGP_prec_cloud_030.txt.gz
Cloud_Cover
100 100 100 96 35 12 6 6 27 100 63 5 9 68 99 100 82 35 0 0 0 0 0 0 0 0 0 0 0 0 0 0 0 0 0 94 33 5 21 0 100 69 78 40
100 100 100 100 100 100 100 67 33 99 100 5 6 25 100 100 100 100 80 9 0 0 0 0 0 0 0 0 0 0 0 0 0 0 0 35 78 56 84 64 100 83 54 90
100 100 100 100 100 100 100 100 98 65 40 43 5 19 90 84 100 100 98 72 32 5 0 0 0 0 0 0 0 0 0 0 0 0 1 33 29 70 100 100 100 88 68 100
100 99 100 100 100 99 58 40 29 64 86 84 49 13 5 14 100 93 40 24 34 5 3 0 0 0 0 0 0 0 0 0 0 0 0 0 0 71 100 98 80 100 100 100
100 100 100 100 100 74 90 71 56 69 100 99 41 99 5 72 24 78 5 0 0 3 1 0 0 0 0 0 0 0 0 0 0 0 0 0 23 100 99 55 95 96 100 97
100 100 100 98 43 6 44 66 74 88 100 94 15 84 0 1 5 5 5 0 0 0 0 0 0 0 0 0 0 0 0 0 0 0 0 1 48 79 14 29 81 91 100 95
89 90 63 86 87 80 100 100 100 100 100 32 4 82 0 16 0 2 1 0 0 0 0 0 0 0 0 0 0 0 0 2 0 0 0 39 64 87 35 100 100 100 100 100
83 100 86 72 73 78 100 100 76 23 20 15 71 14 0 0 0 0 0 0 0 0 0 0 5 2 0 5 3 0 0 0 0 0 5 36 83 100 39 44 100 100 100 62
100 100 7 21 12 56 86 97 13 97 76 99 6 0 0 0 0 0 0 0 0 4 5 0 5 46 4 0 5 1 0 0 2 0 12 43 94 100 44 100 100 98 96 45
87 88 21 10 71 50 63 47 90 98 88 100 12 32 63 2 0 0 0 0 0 1 0 0 4 37 5 0 4 2 0 5 5 2 2 46 100 100 100 100 100 100 100 83
100 100 100 100 80 18 100 100 98 100 100 100 98 83 100 86 48 1 0 0 0 5 1 0 2 51 5 0 0 0 0 5 5 5 5 33 100 100 100 100 100 100 94 28
100 100 100 71 0 5 44 93 100 100 100 100 100 44 100 100 78 5 0 0 0 80 4 5 5 5 39 13 3 0 0 2 11 5 5 62 100 100 100 98 100 78 100 63
86 95 96 91 15 69 88 86 100 100 100 95 100 42 100 100 93 78 3 0 0 99 5 5 16 51 66 31 10 0 1 6 88 16 68 98 100 100 100 100 93 100 100 59
100 73 8 47 52 100 99 100 100 100 100 76 84 59 100 97 100 93 5 0 1 92 53 5 56 74 78 49 5 9 13 82 90 100 100 100 100 83 99 92 100 100 95 98
81 100 90 99 38 52 99 99 91 100 95 100 96 96 23 100 95 50 3 3 8 93 90 60 66 75 68 98 100 55 75 100 100 100 100 100 100 100 100 100 100 100 100 99
96 91 73 100 91 97 100 100 100 100 100 100 100 100 100 23 100 100 100 100 100 87 100 94 100 70 100 100 100 100 100 100 100 100 100 99 100 100 100 100 100 100 100 99
100 100 100 99 98 100 100 100 100 100 100 99 100 100 100 90 100 100 100 100 95 82 100 100 88 81 100 100 100 100 100 100 100 100 100 100 100 100 100 100 100 100 100 98
92 100 100 100 100 100 100 100 100 100 100 100 100 100 100 100 100 100 100 100 100 100 100 98 82 98 100 100 100 100 100 100 100 100 100 100 100 100 100 100 100 100 100 92
100 100 100 100 100 100 100 100 100 100 100 100 100 100 100 100 100 100 100 100 100 100 59 39 66 100 100 100 100 100 100 100 100 100 100 100 100 100 100 100 100 100 99 95
100 100 100 100 100 100 100 100 100 100 100 100 100 100 100 100 100 100 100 100 100 62 96 71 100 100 98 88 78 81 100 98 98 100 100 100 100 100 100 100 99 93 100 100
100 100 100 100 100 100 100 100 100 100 100 100 100 100 100 100 100 100 100 100 100 99 100 100 98 100 99 100 100 100 100 100 100 100 100 100 100 100 100 100 100 100 94 100
77 80 96 100 100 96 40 95 100 100 100 100 100 100 100 100 100 100 100 100 100 100 100 99 96 100 100 100 100 100 100 100 100 100 100 100 100 100 100 94 99 76 39 9
74 6 100 49 69 86 100 92 86 90 100 100 100 100 100 100 100 100 100 100 100 100 100 100 100 100 100 100 100 100 100 100 100 100 100 100 100 100 94 63 9 5 8 5
90 59 20 96 100 40 76 20 74 94 100 100 100 100 100 100 100 100 100 100 100 100 100 100 100 100 100 100 100 100 100 100 100 100 100 100 88 34 5 5 5 5 5 5
100 100 93 100 95 36 8 26 24 72 84 81 76 75 100 100 100 100 100 100 100 100 100 100 100 100 100 100 100 100 100 100 100 100 72 18 5 5 5 5 5 10 13 5
100 100 99 100 98 55 6 5 73 100 100 91 100 82 85 91 71 100 100 100 100 100 100 100 100 100 100 100 100 100 100 100 85 22 6 5 5 5 5 5 5 5 5 5

GFSCGP_prec_cloud_033.txt.gz
Cloud_Cover
100 100 100 98 57 46 43 45 34 12 5 5 5 32 100 33 6 20 5 6 77 5 5 0 0 0 0 0 0 0 0 0 0 0 0 0 0 84 100 100 84 2 0 89
94 100 100 100 100 100 68 29 5 5 5 5 5 5 7 99 24 5 35 74 100 100 34 0 0 0 0 0 0 0 0 0 0 0 0 0 37 99 100 94 7 8 54 69
47 98 100 100 100 100 100 54 30 5 5 5 5 10 5 50 8 63 25 73 100 100 100 90 37 4 5 0 0 0 0 0 0 0 0 10 83 94 100 46 84 65 80 100
94 89 100 100 100 100 100 100 69 23 29 10 6 2 5 5 7 86 100 100 100 100 100 100 32 5 2 5 4 0 0 0 0 0 0 0 0 0 11 41 100 100 89 95
100 100 100 100 100 100 100 100 100 100 92 80 62 45 5 99 74 96 98 100 84 5 64 15 72 8 5 2 2 0 0 0 0 0 0 0 0 0 2 99 100 100 97 98
100 100 100 100 100 100 100 100 100 100 100 76 21 5 4 52 7 94 98 5 2 1 0 0 1 0 0 0 1 5 5 0 0 0 0 0 0 0 15 92 100 100 100 100
100 100 100 100 100 100 100 100 100 83 98 5 1 15 0 4 0 0 0 2 0 0 0 0 0 0 0 0 0 5 5 2 0 0 0 0 5 0 5 40 100 100 94 84
98 100 100 100 100 95 100 95 7 1 2 3 5 1 0 0 2 0 0 0 0 0 0 0 0 0 0 0 0 5 1 0 0 4 0 18 33 0 48 99 100 49 83 100
100 100 99 74 49 54 53 94 15 87 57 54 0 0 0 9 0 0 0 0 0 4 0 0 0 0 0 0 0 0 2 5 0 0 1 91 4 50 97 100 44 82 100 100
100 76 31 69 82 90 48 36 83 100 86 80 4 3 30 86 95 99 22 48 5 15 0 0 0 0 0 0 0 0 0 5 6 5 33 11 42 97 100 31 79 84 79 100
100 92 90 61 35 10 86 89 48 81 89 100 78 42 100 4 5 45 95 100 100 78 1 0 0 0 0 0 0 0 0 11 99 27 3 4 32 100 100 85 65 100 74 82
99 99 58 9 13 70 97 58 95 100 41 100 100 100 100 37 97 80 90 99 68 100 5 0 0 0 0 3 20 63 59 5 81 54 48 74 51 99 96 65 100 90 82 99
96 97 41 52 86 56 61 41 100 100 100 100 100 100 100 92 83 100 100 96 62 20 5 0 0 0 3 100 100 100 64 5 76 65 97 100 98 100 100 100 100 99 90 82
100 99 60 97 44 74 71 52 100 100 100 100 100 85 100 100 100 53 94 98 95 92 1 4 0 0 39 100 100 100 47 87 74 100 100 100 100 100 100 100 100 81 100 99
95 93 87 51 23 74 98 100 100 100 100 100 100 99 100 100 100 100 95 100 82 7 4 5 14 40 100 100 100 97 56 100 41 100 98 100 100 100 100 100 100 94 100 87
100 98 100 98 57 72 97 100 100 100 100 100 100 100 99 100 100 100 100 100 64 26 80 28 78 100 100 100 100 100 97 28 94 100 96 99 100 100 100 91 100 93 99 100
97 100 100 100 100 97 99 100 100 100 100 100 100 87 100 100 100 100 100 100 82 100 92 100 99 100 100 100 100 100 100 100 100 100 100 99 100 100 99 100 100 100 100 100
100 100 100 85 100 91 100 100 90 100 100 100 100 100 100 100 100 100 100 100 100 98 100 100 100 100 100 100 100 100 100 100 100 100 100 100 100 100 100 100 100 100 100 100
100 100 98 100 100 77 81 95 78 99 95 100 100 100 100 100 100 100 100 100 83 83 100 100 100 100 100 100 100 100 100 100 100 100 100 100 100 100 100 100 100 100 100 100
100 100 100 100 100 91 100 67 21 100 79 100 100 100 100 100 100 100 100 100 100 100 100 100 100 100 100 100 100 100 100 100 100 100 100 98 100 100 100 100 100 100 100 100
100 100 100 100 100 100 92 87 92 100 100 100 98 100 100 100 100 100 100 100 100 100 100 100 100 100 100 100 100 100 100 100 100 100 100 100 100 100 100 100 100 100 100 100
56 98 97 100 100 93 77 39 71 71 100 100 100 100 100 100 100 100 100 100 100 100 100 100 100 100 100 100 100 100 89 62 80 100 100 100 100 100 100 100 100 100 100 100
100 47 87 62 96 99 100 100 100 53 87 100 100 100 100 100 100 100 100 100 100 100 100 100 100 98 100 100 100 100 100 100 100 100 100 100 100 100 100 100 100 100 99 74
34 96 36 95 99 96 49 55 79 72 93 91 100 100 100 96 100 100 100 100 100 100 100 100 100 100 100 100 100 100 100 100 100 100 100 100 100 100 100 100 100 89 64 69
100 100 100 18 16 26 5 38 40 91 90 90 23 100 100 100 100 100 100 100 100 100 100 100 100 100 100 100 100 100 100 100 100 100 100 100 100 100 100 64 32 77 97 75
100 100 100 100 92 36 20 32 45 8 28 23 54 100 96 78 100 79 59 100 100 100 100 100 100 100 100 100 100 100 100 100 100 100 100 100 100 83 39 55 79 86 89 96

GFSCGP_prec_cloud_036.txt.gz
Cloud_Cover
100 100 100 100 44 5 6 92 85 91 77 74 42 5 5 5 5 41 5 5 5 5 5 54 6 73 100 36 1 0 0 0 0 0 0 0 0 39 100 100 100 88 26 4
100 100 100 100 100 100 76 23 8 5 5 5 5 4 5 5 5 6 11 48 65 5 5 5 21 53 8 97 52 5 0 0 0 0 0 0 0 1 6 99 64 99 14 5
100 100 100 100 100 100 100 88 64 9 5 5 1 1 2 5 10 5 11 5 7 30 7 5 5 10 17 26 100 100 20 0 0 0 0 0 0 0 0 24 100 39 67 4
100 100 47 100 100 100 100 100 100 87 6 5 5 3 5 5 69 91 60 7 5 5 5 5 5 3 5 14 100 100 100 99 32 7 0 0 0 0 0 0 31 100 97 16
96 99 98 77 65 86 100 100 100 100 100 84 30 5 43 89 50 41 5 19 5 5 4 5 3 0 0 5 75 100 100 100 27 5 1 0 0 0 3 0 79 100 100 100
78 87 17 20 31 26 14 56 10 26 88 85 100 28 5 90 98 100 88 26 5 2 22 28 5 2 0 4 6 26 100 100 100 5 2 0 0 0 1 26 97 100 100 100
72 73 72 5 30 10 65 98 80 95 99 90 77 27 100 99 100 52 83 7 5 2 5 12 6 5 4 4 5 18 26 52 91 5 0 1 0 5 0 0 8 42 97 100
93 92 42 91 99 100 100 100 100 64 100 98 99 100 55 89 96 73 3 2 0 0 0 0 2 4 0 0 0 1 9 38 5 5 4 0 3 23 5 0 0 70 100 100
100 100 100 100 100 100 100 95 95 71 26 7 76 100 100 69 34 40 0 0 0 0 0 0 0 0 0 0 0 0 0 0 0 0 0 2 4 26 10 5 62 100 100 100
100 100 100 100 100 78 82 100 97 71 56 82 23 5 4 4 3 3 1 1 1 2 0 3 1 0 0 0 0 0 0 0 0 0 0 65 0 2 74 33 78 100 100 100
100 93 73 81 33 7 49 97 90 64 99 30 7 4 1 36 82 0 4 0 0 4 95 88 14 38 8 1 0 0 0 0 4 42 68 64 26 43 19 92 99 100 100 100
100 99 49 5 1 3 84 69 100 94 5 50 14 52 32 85 29 80 99 47 5 19 99 62 98 100 100 15 0 0 0 31 100 100 100 33 46 5 94 100 100 100 100 100
91 65 62 25 64 100 55 5 21 86 80 90 90 50 60 76 100 76 100 100 23 43 56 100 100 100 100 91 32 78 80 100 100 100 49 26 0 81 100 100 100 100 98 99
18 95 6 87 100 68 51 7 100 100 100 68 69 5 93 91 90 100 100 100 98 100 100 100 100 100 100 96 100 100 100 100 100 12 8 1 64 100 100 100 100 100 100 100
6 67 98 65 5 17 6 28 100 100 96 100 78 86 86 100 100 100 100 100 100 100 59 79 93 100 83 86 100 100 100 100 75 16 2 88 99 100 100 100 92 100 100 100
100 100 14 5 5 56 57 100 96 100 100 100 100 100 100 100 100 100 100 100 100 100 64 99 8 5 5 100 100 100 100 100 35 0 42 98 100 100 100 100 100 100 100 100
97 79 45 16 39 66 56 97 77 78 100 100 100 100 100 100 100 100 100 100 91 100 24 11 29 100 100 100 100 100 95 50 25 84 100 100 100 100 100 100 100 100 100 100
97 91 100 44 95 70 99 67 65 100 100 97 96 100 100 100 100 100 100 100 87 33 58 31 70 100 100 100 100 100 100 100 100 100 100 100 100 100 100 100 100 100 100 100
100 100 97 100 91 78 99 88 74 71 100 94 100 100 100 100 100 100 100 100 100 100 99 99 100 100 100 100 100 100 100 100 100 100 100 100 100 100 100 100 100 100 100 100
100 100 92 100 93 94 68 100 100 72 100 100 100 100 100 100 100 100 100 100 100 100 100 100 100 100 100 100 100 100 100 100 100 100 100 100 100 100 100 100 100 100 100 100
100 100 100 100 100 88 90 100 96 92 93 68 99 100 100 99 100 100 100 100 100 100 100 100 100 100 100 100 100 100 100 100 100 100 100 100 100 100 100 100 100 100 100 98
100 68 99 100 100 95 65 91 90 92 81 83 100 100 100 100 95 100 100 100 100 100 100 100 100 100 100 100 100 100 100 100 100 100 100 100 100 100 100 100 99 92 100 100
74 91 93 30 93 50 94 62 74 98 71 24 99 100 100 100 100 100 100 100 100 100 100 100 100 100 100 100 100 100 100 100 100 100 99 100 100 100 100 100 100 100 100 100
76 93 52 66 60 100 100 100 100 100 66 26 87 39 32 96 100 100 100 99 100 100 100 100 100 100 100 89 97 100 100 100 100 100 100 100 100 100 100 100 100 100 93 57
71 63 100 96 36 51 100 89 81 88 70 58 43 52 10 97 100 100 100 100 100 100 100 100 100 100 100 100 100 100 100 100 100 100 100 100 100 100 100 100 92 37 6 5
58 25 99 55 100 24 5 47 95 93 94 65 59 75 99 98 100 99 97 95 90 100 100 100 100 94 100 100 100 100 100 100 100 100 100 100 94 100 69 15 5 5 5 5

GFSCGP_prec_cloud_039.txt.gz
Cloud_Cover
89 100 100 100 100 100 100 100 100 100 100 100 100 100 100 100 100 100 100 55 4 5 10 5 24 5 3 0 0 0 0 0 0 0 0 0 0 1 49 100 8 2 0 0
100 100 100 100 96 98 100 100 100 100 100 100 100 100 100 100 100 93 84 5 22 5 5 5 5 5 5 5 2 0 3 1 0 4 1 4 2 83 21 100 100 86 5 0
100 100 100 100 92 100 100 97 100 100 100 99 100 98 93 93 86 18 52 10 6 5 5 5 5 5 5 8 9 5 5 0 5 5 5 15 7 46 46 95 59 72 36 8
100 100 100 100 100 44 46 50 78 35 5 4 4 6 51 25 26 5 5 5 5 5 1 0 3 5 5 75 36 57 14 5 5 1 4 5 6 5 58 2 0 22 15 15
100 100 100 100 100 100 100 100 61 5 5 5 29 4 94 44 83 41 15 5 2 0 0 3 2 0 1 5 5 5 5 5 5 5 4 5 5 5 23 5 42 36 5 11
100 100 100 100 100 73 19 52 92 96 37 46 82 7 5 100 100 69 5 5 5 5 7 5 4 2 3 0 1 4 5 0 0 0 0 1 39 46 5 12 6 5 18 43
100 100 100 100 94 69 65 75 42 28 96 91 80 62 45 97 80 100 100 95 74 70 60 21 26 9 5 5 5 5 4 4 4 0 0 0 78 100 18 5 5 5 5 7
100 100 100 100 64 32 27 7 14 27 54 5 1 2 48 90 35 9 40 100 100 100 100 98 100 100 100 97 57 5 3 1 2 5 4 0 63 89 5 5 8 5 6 5
100 100 100 100 100 38 5 19 37 31 5 25 41 79 100 100 100 100 18 5 26 31 53 5 0 0 3 4 4 3 1 0 0 0 0 0 5 99 41 15 51 39 94 100
100 100 83 96 86 84 42 8 51 47 48 76 96 100 100 100 48 8 5 5 5 0 0 1 0 0 0 0 0 0 0 0 0 0 0 0 2 51 100 91 5 5 23 99
100 100 100 88 24 33 75 92 77 52 56 70 88 87 25 5 5 36 5 15 9 5 5 4 5 62 5 0 0 0 0 0 0 0 0 0 4 92 14 5 4 1 80 97
100 100 100 35 71 100 95 34 98 75 76 99 31 40 5 5 7 5 5 5 30 70 63 36 5 5 19 57 0 53 69 0 0 0 0 0 5 4 5 5 5 36 100 100
99 87 46 85 73 46 67 33 99 93 80 5 88 29 20 38 97 87 87 78 79 99 100 98 19 5 3 0 82 100 100 91 3 0 0 2 39 2 70 66 14 100 100 100
63 55 84 15 44 97 100 86 6 84 100 97 26 32 5 77 100 100 100 82 98 100 100 100 92 100 5 5 100 100 100 100 6 21 1 98 100 100 100 96 100 100 100 100
10 5 40 100 100 100 24 5 48 77 86 100 12 74 95 100 100 100 100 100 100 100 100 100 100 44 5 83 100 100 100 100 68 100 100 100 100 100 100 100 100 100 100 100
5 55 100 100 57 5 6 30 90 98 89 74 90 100 98 100 100 100 100 100 100 100 100 94 5 5 44 100 100 100 100 100 100 100 100 100 100 100 100 100 100 100 100 100
56 94 26 68 57 5 81 100 100 99 83 99 100 100 100 100 100 100 100 100 100 100 79 29 36 5 100 100 100 100 100 100 100 100 100 100 77 79 100 100 100 100 100 100
82 72 32 33 13 83 98 100 100 87 73 100 100 100 100 100 100 100 100 100 100 100 22 50 19 5 5 39 100 100 100 100 100 100 100 88 99 100 100 100 100 100 100 100
100 98 58 86 100 100 100 100 87 99 100 100 100 98 100 100 100 100 100 100 100 100 95 89 58 100 100 100 100 100 100 100 100 100 100 100 100 100 100 100 100 100 100 100
100 100 97 100 100 100 98 58 99 100 100 98 94 100 100 100 100 100 100 100 100 100 100 100 100 100 100 100 100 100 100 100 100 100 100 100 100 100 100 100 100 100 100 100
100 100 100 100 100 65 91 100 88 100 83 100 84 98 99 100 100 100 100 100 100 100 100 100 100 100 100 100 100 100 100 100 100 100 100 100 100 100 100 100 100 100 100 100
92 100 100 100 98 88 91 91 98 45 68 58 18 69 86 100 100 100 100 100 100 100 100 100 100 100 100 100 100 100 100 100 100 100 100 100 100 100 100 100 100 100 100 100
100 100 100 65 35 67 86 39 78 41 84 55 27 12 5 68 93 100 99 100 100 100 100 100 100 100 100 100 100 100 100 100 100 100 100 100 100 100 98 100 100 100 100 100
99 100 100 97 100 100 89 79 97 57 44 77 51 5 5 61 69 84 100 100 100 100 100 100 100 100 100 100 100 100 100 100 100 100 100 100 100 100 100 100 100 100 100 99
100 100 100 76 100 99 91 100 100 74 29 5 63 25 23 19 50 24 40 98 100 100 100 100 100 100 100 100 100 100 100 100 100 100 100 100 100 100 93 100 98 80 47 5
35 92 91 90 100 21 61 68 90 97 81 10 90 70 64 88 100 72 96 35 63 100 100 100 100 100 100 100 100 100 100 100 100 100 100 100 100 100 100 81 24 5 5 5

GFSCGP_prec_cloud_042.txt.gz
Cloud_Cover
100 100 100 100 100 100 100 100 100 100 100 100 100 100 100 100 100 100 100 100 100 100 100 96 49 58 6 10 32 5 4 5 0 0 4 5 5 84 97 22 5 5 8 4
100 100 100 100 100 100 100 100 100 100 100 100 100 100 100 100 100 100 100 100 100 100 100 100 100 97 66 6 5 5 4 0 5 2 0 0 0 7 74 100 100 100 91 49
100 100 100 100 100 100 100 100 100 100 100 100 100 100 100 100 100 100 100 100 100 100 100 100 100 100 100 68 5 0 0 0 5 1 9 43 25 94 77 90 100 100 96 100
91 100 100 100 100 81 90 100 100 100 100 100 100 100 100 100 100 100 100 100 100 100 100 100 99 27 8 5 5 5 4 1 5 5 5 5 8 21 10 6 19 93 79 98
100 100 100 100 100 100 59 6 32 97 100 94 100 99 100 100 100 100 100 100 100 99 79 44 5 5 5 5 5 5 5 3 3 5 5 5 8 5 27 16 4 13 8 95
100 100 100 100 100 100 100 52 11 5 5 17 86 99 100 100 100 100 90 48 18 5 7 6 5 5 5 5 1 0 0 0 0 0 0 5 5 16 37 47 25 5 5 5
100 100 100 100 100 100 96 46 95 91 97 88 32 5 87 34 100 100 77 13 19 65 17 5 5 14 13 14 5 5 4 4 4 5 4 2 5 5 5 9 27 5 5 5
100 100 100 98 100 100 74 100 100 99 58 5 15 5 60 38 86 100 100 76 6 5 5 2 7 46 88 100 100 100 95 64 21 5 5 3 0 4 5 15 8 5 16 44
100 100 100 100 100 100 100 69 100 100 100 58 22 92 51 65 5 0 0 0 0 0 0 1 5 16 90 99 100 100 100 100 94 18 7 5 0 0 0 1 5 5 5 5
100 99 90 100 100 100 99 100 100 94 34 12 5 23 33 2 0 0 3 5 5 5 62 71 35 11 5 4 5 5 5 5 6 4 4 5 3 0 0 2 5 5 4 12
100 100 100 100 100 100 100 100 100 54 5 26 53 24 2 5 5 6 5 5 5 5 4 7 7 29 12 1 0 0 0 0 0 3 0 0 10 2 0 0 0 5 39 100
100 100 100 100 100 80 78 73 16 7 76 41 52 67 9 48 58 93 73 60 44 5 24 92 64 26 99 94 5 5 71 5 5 5 5 1 0 8 24 9 5 19 100 100
100 84 87 100 100 100 93 60 22 67 78 48 80 72 68 25 78 100 100 100 100 35 86 5 34 99 100 100 100 76 47 100 99 27 0 4 5 26 66 55 26 5 50 97
100 100 100 100 100 100 90 87 56 56 96 48 77 25 5 5 32 100 100 100 100 100 88 5 53 100 100 100 100 100 99 11 1 4 5 51 31 66 66 75 77 66 82 100
100 100 100 100 97 13 7 43 6 19 13 58 19 12 29 66 100 100 100 100 100 100 97 52 82 100 100 100 100 55 13 0 13 100 100 100 100 100 58 86 100 100 100 100
100 100 83 10 71 32 62 21 5 42 69 44 40 18 96 100 100 100 100 100 100 100 100 100 64 99 70 88 46 4 8 76 99 100 99 100 100 100 98 89 100 100 100 100
73 11 53 100 100 84 32 14 66 84 63 89 92 94 87 95 100 100 100 100 100 100 100 100 100 100 6 10 30 100 100 100 100 100 100 100 100 60 100 100 100 100 100 100
51 94 100 97 58 60 87 86 95 97 77 100 100 100 97 100 100 100 100 100 100 100 96 52 48 5 5 67 100 100 100 100 100 100 100 100 100 100 100 100 100 100 100 100
100 100 93 54 31 100 100 100 71 81 67 100 100 97 100 100 52 100 100 100 100 100 100 100 100 99 82 88 100 100 100 100 100 100 100 100 100 100 100 100 100 100 100 100
100 100 97 84 100 74 94 93 26 32 99 100 80 87 98 96 100 91 71 98 100 100 100 100 100 100 100 100 100 100 100 100 100 100 100 100 100 100 100 100 100 100 100 100
100 100 100 100 99 89 100 70 51 100 100 98 10 35 61 47 100 100 100 72 88 100 100 100 100 100 100 100 100 100 100 100 100 100 100 100 100 100 100 100 100 100 100 100
100 100 100 79 99 100 100 91 98 100 72 30 35 10 84 97 92 89 100 100 100 100 100 100 100 100 100 100 100 100 100 100 100 100 100 100 100 100 100 100 100 100 100 100
83 6 98 48 99 95 78 100 100 88 13 7 48 74 59 76 82 100 98 94 100 100 100 100 100 100 100 100 100 100 100 100 100 100 100 100 100 100 100 99 82 98 100 75
63 98 91 70 100 84 99 94 90 67 67 8 9 11 74 46 79 98 99 100 97 97 100 100 100 100 100 100 100 100 100 100 100 100 100 100 90 86 65 99 100 89 96 100
42 64 100 82 100 93 96 65 89 98 91 62 10 5 96 13 70 100 97 89 100 94 100 96 100 100 100 100 100 100 100 100 100 100 65 78 97 100 100 100 100 97 71 38
99 45 42 68 100 99 68 99 55 97 36 44 6 5 46 62 99 100 100 100 100 100 98 100 100 100 100 100 100 100 100 100 100 100 100 100 100 100 98 51 18 14 5 5

GFSCGP_prec_cloud_045.txt.gz
Cloud_Cover
100 100 100 100 100 100 100 100 100 100 100 100 100 100 100 100 100 100 100 99 100 100 100 100 100 99 100 53 36 5 5 5 5 49 94 100 91 31 20 37 19 100 96 87
100 100 100 100 100 100 100 100 100 100 100 100 100 100 100 100 100 100 100 100 100 100 100 100 100 100 100 100 59 15 6 5 5 5 8 5 27 27 9 6 5 19 50 9
100 100 100 100 100 100 100 100 100 100 100 100 100 100 100 100 100 100 100 100 100 100 100 100 100 100 100 100 100 100 67 55 73 80 61 59 37 47 56 25 5 91 97 100
100 100 100 100 100 100 100 100 100 100 94 100 100 100 100 100 100 100 100 100 100 100 100 100 100 100 100 100 100 100 100 73 67 74 23 11 6 9 13 6 15 61 76 24
100 100 99 100 100 100 100 100 100 100 90 80 100 100 100 100 100 100 100 100 100 100 100 100 100 73 56 36 36 71 80 97 38 5 5 5 5 10 5 17 9 6 56 70
93 100 100 100 100 100 100 100 100 96 100 97 100 100 100 100 100 98 100 86 68 78 98 100 95 100 88 16 5 5 6 5 6 6 14 5 5 5 26 59 50 44 8 87
100 100 100 100 100 100 100 100 99 45 8 72 93 97 100 100 100 91 5 25 47 45 55 40 20 27 25 14 5 25 27 21 5 5 23 46 5 5 5 7 20 61 42 8
100 100 100 100 100 100 100 37 49 62 81 85 38 59 100 100 94 99 100 60 5 6 8 5 5 5 11 20 25 24 14 8 31 61 75 42 5 5 5 5 6 62 82 70
100 100 37 69 99 97 100 97 100 100 100 100 99 98 100 99 7 5 5 5 5 13 8 5 4 3 0 0 3 4 3 4 5 4 5 5 5 87 91 56 13 12 94 100
100 100 100 100 97 100 100 100 100 100 82 14 62 100 100 43 5 5 3 5 5 4 5 0 0 0 0 0 0 0 0 0 1 1 1 2 7 22 48 36 44 24 98 100
100 100 100 100 97 100 100 100 95 19 31 74 96 100 7 5 8 6 5 5 9 18 7 4 0 0 5 5 24 8 60 5 5 5 5 13 49 34 22 14 5 5 42 97
100 100 100 100 100 100 99 83 21 7 55 100 76 100 46 5 5 5 6 90 81 60 20 5 5 1 5 5 99 100 100 100 8 2 5 41 74 56 53 26 28 36 16 62
100 100 100 100 100 100 100 100 53 40 100 100 100 100 9 5 10 5 40 75 100 96 37 26 6 4 5 16 91 99 100 88 5 15 100 54 54 67 100 99 100 100 100 100
100 100 100 100 100 100 100 100 87 100 81 29 28 82 56 7 88 44 62 100 100 98 100 88 8 5 5 96 100 97 36 71 64 100 100 100 100 100 100 100 100 100 100 100
100 100 100 100 100 100 100 100 100 79 48 11 97 14 94 99 94 97 100 90 100 67 98 93 93 45 56 36 100 65 52 100 100 100 100 100 100 100 100 100 100 100 100 94
100 100 100 100 100 100 100 100 100 59 72 97 88 72 99 71 100 100 100 100 100 70 100 51 78 100 100 23 5 54 82 99 100 95 100 100 100 100 100 100 100 100 47 92
100 100 100 100 95 93 100 72 54 56 87 89 91 88 74 55 99 75 79 100 100 76 100 56 100 100 100 6 5 64 70 94 100 100 100 100 100 100 100 100 100 100 100 99
100 100 100 99 11 79 91 8 93 90 48 100 100 95 78 44 100 100 50 100 100 100 100 94 100 100 5 9 100 100 100 100 100 100 100 100 100 100 100 100 100 100 100 100
100 95 98 99 79 66 79 99 100 50 99 93 98 100 70 100 96 100 100 100 100 100 100 89 99 46 100 100 100 100 100 100 100 100 100 100 100 100 100 100 100 100 100 100
100 99 63 100 98 42 100 97 84 34 96 99 100 41 99 68 92 55 98 99 97 100 100 100 100 100 100 100 100 100 100 100 100 100 100 100 100 100 100 100 100 100 100 100
100 100 100 100 79 89 100 98 62 84 97 100 87 28 74 5 61 78 100 100 100 99 100 100 100 100 100 100 100 100 100 100 100 100 100 100 100 100 100 100 100 100 100 100
100 97 100 100 100 76 62 99 87 94 100 98 86 91 9 24 34 100 94 88 100 100 89 100 100 100 100 100 100 100 100 100 100 100 100 100 100 100 100 100 100 100 100 100
65 22 79 20 82 65 98 99 93 95 100 19 55 93 80 47 100 98 100 100 99 100 100 100 100 100 100 100 100 100 100 100 100 100 100 100 100 100 100 99 100 100 89 85
71 95 95 31 20 66 68 40 98 84 67 37 58 26 91 71 98 100 100 100 100 100 100 100 100 100 100 100 100 100 100 100 100 100 100 100 100 70 42 91 100 100 100 100
55 85 100 95 8 45 88 78 100 69 69 56 100 79 100 91 92 100 100 100 100 98 100 100 100 100 100 100 100 100 100 100 100 100 73 96 97 98 100 100 100 79 94 91
68 82 77 8 5 23 87 30 48 100 53 99 100 80 84 100 83 100 100 100 100 98 63 71 100 100 100 100 99 79 100 100 100 100 100 100 100 100 76 21 31 35 14 5

GFSCGP_prec_cloud_048.txt.gz
Cloud_Cover
100 100 100 100 100 100 100 100 100 100 100 100 100 100 100 100 100 100 100 23 15 96 100 100 100 100 100 100 100 100 66 100 82 99 100 100 100 100 100 37 48 10 5 5
100 100 100 100 100 100 100 100 100 100 100 100 100 100 100 100 100 67 84 91 26 52 100 99 100 100 100 100 100 100 100 99 100 95 94 100 85 100 100 58 64 10 5 5
100 100 100 100 100 100 100 100 100 100 100 100 100 100 100 100 100 100 100 100 78 24 88 100 100 100 72 60 100 100 100 100 99 99 100 100 100 100 100 100 97 65 5 5
100 100 100 100 100 100 100 100 100 100 100 100 100 100 100 100 100 100 100 100 100 100 100 63 25 83 100 100 100 100 100 94 27 74 100 100 100 100 100 100 58 28 5 5
100 100 100 100 100 100 100 100 100 100 100 100 100 100 100 100 100 100 100 100 100 100 100 100 100 100 100 100 100 100 100 100 100 100 65 56 99 100 100 100 100 54 43 52
100 100 100 100 100 100 100 100 100 100 100 100 100 100 100 100 100 100 100 100 89 68 100 97 95 91 31 28 91 100 100 100 100 100 100 99 65 44 49 100 100 82 54 44
100 100 100 100 98 100 100 100 100 100 100 100 100 100 100 100 100 32 17 7 46 79 98 85 51 28 72 78 35 5 13 23 19 15 28 27 25 40 62 76 54 98 100 100
100 100 100 100 100 100 100 100 100 100 100 100 100 100 100 100 58 85 48 5 5 5 5 6 5 5 5 5 5 5 52 61 42 31 6 5 7 27 92 78 44 54 88 100
100 100 100 100 100 100 100 100 100 100 100 100 100 100 100 10 5 5 5 5 5 4 4 5 4 5 5 5 5 4 3 3 2 1 0 3 3 5 5 15 35 65 99 100
100 100 100 100 100 100 98 56 100 100 100 100 100 100 100 14 5 5 5 4 5 5 56 51 33 6 21 27 18 4 5 3 2 0 0 0 0 0 0 1 21 19 14 32
100 100 100 100 100 69 100 100 100 100 93 100 100 100 48 8 5 4 0 1 5 41 16 27 54 42 25 4 1 0 0 2 5 5 6 4 2 10 20 34 44 42 42 34
100 100 100 100 94 100 100 100 97 98 100 100 100 95 5 14 98 8 5 5 5 86 19 13 5 0 0 0 0 0 0 5 78 82 29 38 100 100 100 100 84 74 85 95
100 100 100 100 100 100 100 76 51 73 100 98 96 100 100 92 17 20 38 6 60 100 70 43 0 1 4 4 5 13 8 13 35 100 100 79 100 100 100 100 100 100 100 100
100 100 100 100 100 100 100 100 100 99 99 100 100 98 81 58 18 5 16 59 100 100 38 59 4 5 5 5 83 100 96 83 85 100 99 100 100 100 100 100 100 100 100 100
100 100 100 100 100 100 100 100 100 100 8 16 7 7 14 17 32 82 93 71 100 100 17 5 5 37 100 100 100 100 18 5 59 83 81 93 100 100 100 100 100 100 100 100
100 100 100 100 100 100 100 100 100 100 56 5 29 29 13 98 100 100 100 100 100 100 86 84 13 5 94 93 6 5 5 13 6 98 100 100 100 100 100 100 100 100 100 100
100 100 100 100 100 100 100 100 100 75 15 52 59 95 100 100 75 100 100 100 65 100 100 95 23 38 80 64 5 5 95 100 100 94 100 100 100 100 100 100 100 100 100 100
100 100 100 92 89 100 100 100 91 43 52 100 100 100 100 74 79 54 88 85 32 51 100 98 80 100 63 14 85 100 99 100 100 100 100 100 100 100 100 100 100 100 100 100
100 100 100 100 85 74 74 80 77 95 97 100 100 100 100 52 29 20 5 92 100 76 100 100 98 78 51 99 100 100 100 100 100 100 100 100 100 100 100 100 100 100 100 100
95 86 99 95 96 50 64 60 100 82 94 100 100 74 71 39 5 6 89 100 47 96 100 100 100 100 100 100 100 100 100 100 100 100 100 100 100 100 100 100 100 100 100 100
99 99 81 100 98 7 90 100 78 84 84 100 100 100 19 26 22 92 100 100 10 11 100 100 100 100 100 100 100 100 100 100 100 100 100 100 100 100 100 100 100 100 100 100
80 99 90 100 97 76 88 95 98 100 100 100 100 100 5 7 99 99 100 100 79 14 86 76 99 100 100 100 94 100 100 100 100 100 100 100 100 100 100 100 100 100 100 100
82 24 64 8 59 80 100 90 100 99 94 99 100 77 69 32 98 43 100 100 100 5 98 97 65 100 100 75 99 100 100 100 100 100 100 100 100 76 100 100 100 100 100 100
97 100 99 59 21 98 99 100 100 85 91 100 100 93 88 35 5 94 100 100 100 64 100 93 100 100 100 100 100 100 100 100 100 95 46 41 94 97 94 91 28 76 100 100
92 96 84 82 80 59 90 100 100 80 17 66 63 70 57 40 68 15 96 100 100 100 16 33 96 100 100 100 100 100 100 74 71 100 41 49 81 100 95 80 60 41 46 84
99 57 62 12 16 60 78 43 82 33 5 5 19 13 49 70 42 5 100 100 100 100 100 33 100 100 100 100 99 46 29 53 64 18 49 78 67 28 28 14 6 57 79 67

GFSCGP_prec_cloud_051.txt.gz
Cloud_Cover
100 100 100 100 100 100 100 100 100 100 100 100 100 100 100 100 100 100 100 100 100 100 100 100 100 100 100 100 100 100 100 100 100 100 100 100 100 100 100 100 61 74 66 87
100 82 100 100 100 100 100 100 100 100 100 100 100 100 100 100 100 100 100 100 100 83 87 91 42 54 100 100 100 100 100 100 100 62 58 100 100 100 100 100 100 92 71 59
100 100 92 100 100 100 100 100 100 100 100 100 100 100 100 100 100 97 100 94 45 65 5 5 5 52 89 48 86 100 100 100 100 100 100 100 100 100 100 100 100 100 94 100
100 100 100 100 100 100 100 100 100 100 100 100 100 100 100 100 96 25 6 25 7 26 67 5 5 5 45 44 94 99 96 100 100 100 100 100 100 100 100 100 100 100 100 100
100 100 100 100 100 100 100 100 100 100 100 100 100 100 100 76 67 99 98 86 54 65 6 59 100 100 58 89 94 95 100 100 100 100 100 100 100 100 100 100 100 100 100 100
100 100 100 100 100 100 100 100 100 100 100 100 100 100 100 100 100 100 100 100 100 100 100 96 100 100 45 5 5 14 44 85 100 100 100 100 100 100 100 100 100 100 100 100
100 100 100 100 100 99 100 100 100 100 100 100 100 100 100 100 100 100 100 100 100 100 100 100 98 63 19 18 6 5 5 5 8 19 83 85 100 100 100 100 100 100 100 100
100 100 100 100 100 96 98 100 100 100 100 100 100 100 100 100 100 100 100 100 100 100 100 100 100 100 37 7 5 5 5 5 5 6 5 5 5 5 11 49 86 99 100 100
100 100 100 100 46 88 100 100 100 100 100 100 100 100 100 100 96 74 100 78 39 79 79 71 54 21 5 5 5 5 5 5 4 1 4 3 2 4 4 1 3 4 30 59
100 100 100 100 100 100 100 100 100 100 100 100 100 100 100 100 99 94 92 25 5 5 5 5 5 5 5 5 5 7 5 5 4 1 1 0 0 0 0 3 3 2 25 49
100 100 100 100 100 100 100 99 99 98 100 100 100 100 100 100 100 100 22 5 5 5 5 5 5 2 5 5 5 5 5 3 1 0 0 0 64 94 98 78 50 45 48 58
100 100 100 100 91 65 94 80 100 100 100 100 100 100 100 70 81 18 7 5 5 5 5 3 3 0 0 3 0 0 0 0 1 2 1 3 43 75 100 100 100 100 100 100
100 100 100 100 100 100 100 100 100 100 100 100 92 79 100 100 96 47 32 9 12 84 100 45 32 5 5 2 0 5 5 5 5 5 5 8 55 96 100 100 100 100 100 100
100 100 100 100 100 100 100 100 100 100 71 94 100 100 99 99 21 13 100 83 91 100 100 87 5 5 17 52 13 11 38 39 6 5 5 4 4 28 100 100 100 100 100 100
100 100 100 100 100 100 100 100 100 100 94 97 97 94 5 67 100 100 100 100 100 100 100 100 17 5 5 100 54 86 5 5 1 4 0 60 85 100 100 100 100 100 100 100
100 100 100 100 100 100 100 100 100 99 100 100 97 38 80 60 83 82 90 100 100 57 74 100 65 5 5 58 5 5 5 5 5 93 91 100 100 100 100 100 100 100 100 100
100 100 100 100 100 100 100 100 100 100 100 41 61 100 99 54 34 37 57 9 7 84 66 94 82 15 8 32 5 5 40 98 100 100 98 99 100 100 100 100 100 100 100 100
100 100 100 100 100 97 100 100 92 94 100 98 91 99 97 99 100 100 14 7 5 48 21 31 92 12 83 5 35 84 100 94 55 100 98 96 100 100 100 100 100 100 100 100
100 100 100 100 100 100 90 87 89 85 98 86 100 100 100 100 100 86 39 97 22 5 31 94 67 100 94 72 99 100 100 100 78 73 100 100 100 100 100 100 100 100 100 100
100 100 90 95 68 51 20 91 99 88 99 100 100 100 100 100 100 46 94 100 84 3 8 45 100 100 100 100 100 100 100 100 100 100 100 100 100 100 100 100 100 100 100 100
100 99 78 99 100 31 86 97 98 99 100 100 100 100 100 100 90 29 41 100 98 2 6 11 49 99 100 92 73 100 100 100 100 100 100 100 100 100 100 100 100 100 100 100
93 97 100 99 100 82 46 96 98 100 100 100 100 100 100 100 100 56 100 100 100 12 5 32 89 72 85 35 98 100 100 100 100 100 100 100 100 100 100 100 100 100 100 100
67 54 55 24 48 31 45 100 85 95 100 100 100 100 100 100 44 10 98 100 100 100 45 5 5 79 89 97 100 100 100 100 100 100 100 100 97 74 100 100 100 100 75 95
93 91 68 52 62 50 72 64 94 100 100 100 100 100 100 87 5 5 8 100 100 100 64 62 71 100 79 100 100 100 100 100 100 75 78 84 100 99 100 93 87 73 57 67
96 99 86 88 14 66 81 100 91 100 94 100 100 83 69 44 5 5 10 100 100 100 100 55 96 97 100 100 100 100 100 81 76 60 77 42 54 16 11 8 5 5 5 5
88 100 99 91 31 43 13 76 99 79 54 67 87 77 48 43 10 5 5 79 100 100 100 100 64 100 98 100 100 99 94 99 100 100 98 46 6 5 6 5 5 5 5 5

GFSCGP_prec_cloud_054.txt.gz
Cloud_Cover
100 100 100 100 100 100 100 100 100 100 100 100 100 100 100 100 100 100 100 100 100 100 100 94 100 100 100 100 99 100 47 100 41 5 99 100 100 89 100 90 95 100 99 100
100 100 100 100 99 100 100 100 100 98 100 100 100 100 100 100 100 100 100 99 92 99 100 100 100 100 100 100 100 100 100 100 33 5 5 23 72 96 100 100 100 100 100 95
100 100 100 82 56 100 100 100 100 100 100 100 100 100 100 100 100 100 100 100 93 98 100 55 84 100 99 99 100 100 98 75 74 100 85 15 6 16 97 100 100 100 97 86
100 100 99 96 98 100 100 100 100 100 100 100 100 100 100 100 100 100 100 100 100 94 96 94 65 77 100 100 100 86 82 100 96 83 99 100 100 92 92 46 72 98 100 100
100 100 99 100 80 100 100 100 100 100 100 100 100 100 100 100 100 100 100 100 100 100 100 93 71 81 64 98 33 38 46 18 73 86 100 100 100 100 100 100 100 100 99 100
100 100 100 100 99 100 100 100 100 100 100 100 100 100 84 99 100 100 100 100 100 100 100 100 100 58 41 19 5 34 6 43 63 71 100 100 100 100 100 100 100 100 100 100
100 100 100 100 100 100 100 100 100 100 100 100 100 100 51 26 47 100 97 100 96 84 95 98 59 5 5 5 13 56 20 11 52 100 100 100 100 100 98 78 88 90 97 100
100 100 100 100 100 100 100 100 100 100 100 100 100 99 86 52 47 6 5 40 84 100 52 22 40 75 68 65 23 5 37 48 91 84 47 53 50 19 16 72 97 99 97 99
100 100 100 100 90 87 100 100 100 100 100 100 100 100 100 100 90 58 31 86 100 91 93 100 90 100 100 100 99 93 45 56 41 74 48 28 6 5 5 5 5 5 5 10
100 100 100 100 76 99 100 100 100 100 100 100 100 100 100 100 100 100 100 100 92 92 100 100 93 100 71 24 10 5 5 5 5 5 5 3 3 2 2 0 0 0 4 3
100 100 100 100 100 82 24 36 58 100 100 100 100 100 100 100 100 100 100 100 54 52 100 100 58 6 5 5 5 5 4 5 4 0 0 0 0 0 0 22 49 46 28 14
100 100 100 100 100 51 10 64 88 99 100 100 100 100 100 100 100 100 100 100 100 100 100 96 42 68 68 22 6 5 0 0 0 0 0 0 0 0 1 23 56 91 91 100
100 100 100 97 95 100 100 100 100 100 100 100 100 100 100 100 100 100 100 100 100 100 100 100 100 99 88 15 4 4 5 4 5 0 2 0 0 3 27 35 46 87 55 98
100 100 96 100 100 100 100 100 100 100 100 100 100 100 100 100 86 100 100 100 100 81 52 12 5 9 14 5 5 5 1 5 4 0 0 0 7 34 44 49 78 100 100 99
100 100 100 100 100 100 100 100 100 100 69 57 95 100 100 100 100 100 100 100 100 50 42 86 38 45 27 6 10 5 5 5 4 2 4 4 36 82 96 96 100 97 100 100
100 100 100 100 100 100 100 100 100 100 100 100 100 63 99 100 99 80 78 80 51 88 95 99 44 5 5 5 4 5 5 5 5 62 7 7 71 99 100 100 100 100 100 100
100 100 100 99 100 100 100 100 100 100 100 100 100 100 92 23 27 17 16 41 35 5 5 5 5 5 5 5 10 18 13 59 46 66 23 5 55 61 100 100 100 100 100 100
100 100 100 100 100 100 100 100 100 100 100 95 100 91 29 28 17 76 58 11 6 1 2 5 5 26 6 5 5 10 50 100 100 100 100 77 61 100 100 100 100 100 100 100
100 55 35 81 64 100 100 100 100 100 100 90 76 98 100 100 100 100 18 20 79 6 5 5 29 100 100 24 26 45 86 100 100 100 100 100 100 100 100 100 100 100 100 100
100 100 92 70 86 68 48 93 65 96 89 83 87 100 100 95 79 91 100 100 95 21 5 3 5 43 98 50 47 52 88 100 100 100 100 100 100 100 100 100 100 100 100 100
96 98 100 99 98 95 91 98 100 100 100 79 80 96 100 100 100 100 100 95 46 10 5 0 3 5 99 28 61 77 100 100 100 100 100 100 100 100 100 100 100 100 100 99
100 100 100 100 92 94 59 52 80 100 99 100 100 100 100 100 100 100 74 23 82 97 10 5 33 35 42 75 95 100 100 100 100 100 100 100 100 100 95 63 40 41 66 70
100 100 100 100 94 85 53 85 86 100 95 99 100 100 100 100 100 89 100 51 100 100 88 12 19 98 100 100 100 100 100 100 100 100 100 99 70 16 5 5 6 5 5 5
85 90 94 96 66 6 98 96 81 100 100 100 100 100 100 100 100 100 96 5 97 100 100 80 79 92 100 100 100 100 100 100 97 65 11 6 31 57 25 5 5 5 5 5
82 76 64 76 14 90 86 100 73 93 76 95 100 100 100 100 100 100 89 19 92 81 100 100 96 81 96 100 100 100 100 93 27 45 63 99 100 56 5 5 12 5 5 5
100 89 29 86 6 5 8 52 86 76 66 94 100 100 100 69 75 91 99 10 90 100 100 100 100 100 71 85 59 69 100 100 100 100 100 100 100 59 48 39 15 5 5 5

GFSCGP_prec_cloud_057.txt.gz
Cloud_Cover
66 94 100 56 100 100 100 100 100 100 100 100 100 100 100 100 100 100 34 72 100 100 100 100 100 100 100 97 100 52 9 99 100 100 38 100 100 100 100 45 5 29 40 58
100 100 100 100 99 94 100 100 100 100 85 100 100 100 100 100 100 100 100 100 81 100 100 100 100 100 100 100 100 100 86 8 49 99 100 86 48 100 100 100 88 1 8 5
53 100 100 100 100 94 100 100 100 100 100 100 100 100 100 100 100 100 100 100 100 100 100 100 100 100 100 100 96 100 100 100 100 95 19 14 18 5 12 24 88 100 98 68
100 99 100 100 93 100 99 100 100 100 100 100 78 100 100 100 100 100 100 100 100 100 100 100 100 100 100 100 100 100 100 100 50 14 31 5 5 5 5 6 48 44 25 100
97 100 100 100 100 100 100 100 100 100 100 100 100 100 100 100 100 100 100 100 100 100 100 100 97 98 100 100 100 100 100 100 100 98 62 68 12 9 84 100 100 100 98 41
100 100 100 100 100 93 58 41 100 100 100 100 100 89 9 99 100 100 100 100 100 100 100 100 100 100 100 100 100 100 100 100 100 99 27 37 8 82 100 100 100 100 94 100
100 100 100 90 99 100 98 98 100 100 100 100 100 86 5 42 92 100 100 100 100 100 100 100 86 80 95 100 100 100 100 100 68 45 19 84 93 95 99 47 57 98 89 100
100 100 100 100 100 98 87 92 70 100 100 100 100 100 6 5 61 73 100 100 100 100 100 100 100 100 100 100 98 98 82 8 10 74 98 67 44 17 9 6 57 79 100 100
100 100 100 100 100 100 100 93 37 63 100 100 100 100 100 100 56 85 96 100 94 98 99 100 100 100 99 98 86 49 20 71 60 69 26 9 30 5 5 22 4 2 1 1
100 100 100 100 100 100 100 100 65 12 100 100 100 100 100 100 100 100 84 78 55 48 39 54 79 81 92 83 91 84 98 100 85 5 8 5 5 5 5 5 3 4 4 0
100 100 100 100 100 100 100 93 100 92 100 100 100 100 100 100 100 100 100 100 100 99 84 100 100 100 100 100 98 100 93 12 8 6 22 18 5 5 1 4 2 0 0 1
78 100 100 100 100 100 100 100 100 100 99 100 100 100 100 100 100 100 100 100 100 100 100 100 100 100 100 100 100 35 39 5 5 16 6 5 4 5 5 0 0 16 39 66
100 95 100 100 100 48 74 100 100 100 100 100 100 100 100 100 100 100 100 100 100 100 100 100 100 100 100 100 100 100 44 85 66 8 5 5 4 1 0 0 0 3 45 91
100 100 100 100 100 100 100 55 19 33 80 100 100 100 100 100 100 100 100 100 100 100 100 100 100 100 66 99 100 76 63 63 13 29 5 0 2 26 51 39 55 100 100 100
96 92 100 90 100 100 100 54 99 100 75 13 87 100 100 100 100 100 100 100 100 100 100 93 99 92 98 35 80 77 16 12 2 2 4 4 26 60 74 57 100 100 100 100
100 100 95 100 100 100 48 91 100 100 100 100 91 100 100 100 100 100 100 100 100 100 55 25 18 35 19 8 5 5 5 5 5 5 5 7 5 46 90 89 100 100 100 100
100 100 81 28 62 99 54 100 100 100 100 100 100 100 100 100 100 100 100 100 100 100 100 76 5 5 5 5 4 11 38 29 64 65 51 35 43 85 98 100 100 100 100 100
76 100 100 100 100 100 100 100 98 100 100 100 100 100 100 100 100 100 100 100 100 18 38 5 5 5 5 5 5 12 19 65 93 100 90 98 82 100 100 100 100 100 100 100
80 96 100 98 100 100 100 100 100 100 100 100 100 100 100 100 100 100 100 71 31 8 10 5 5 5 46 14 5 11 29 99 100 100 100 100 100 100 100 100 100 100 100 100
89 92 100 88 100 100 100 100 100 100 100 100 100 100 40 85 85 88 67 53 31 43 5 5 5 5 5 5 26 34 98 100 100 100 100 100 100 100 100 100 100 100 100 100
100 98 99 100 100 94 100 100 100 100 100 100 100 100 100 100 100 100 100 100 100 100 100 80 27 5 5 25 78 97 100 100 100 100 100 100 100 100 100 100 100 100 99 44
99 100 100 100 100 82 100 72 79 100 76 99 66 84 98 99 94 80 94 100 100 100 100 63 62 5 35 79 100 100 100 100 100 100 100 100 100 100 75 38 15 5 3 4
100 89 100 60 82 58 80 77 38 41 84 75 80 94 100 100 100 100 100 100 100 100 93 68 8 58 100 100 100 100 100 100 100 100 100 64 17 5 5 5 5 5 5 4
81 93 99 62 67 57 66 35 40 54 97 99 100 100 100 100 100 100 100 100 100 100 61 64 58 86 100 100 100 100 100 100 79 100 99 40 5 7 5 7 7 7 5 5
96 100 84 83 92 96 97 71 86 100 100 77 69 100 100 100 100 100 100 100 100 69 100 100 100 62 91 98 96 100 90 51 10 100 100 100 88 95 90 87 77 54 5 5
96 90 96 88 98 70 82 7 17 47 69 52 80 100 100 100 100 100 100 100 100 86 95 90 100 98 98 100 100 100 100 5 47 100 100 100 100 100 100 100 100 52 5 5

GFSCGP_prec_cloud_060.txt.gz
Cloud_Cover
92 43 27 0 93 100 100 100 100 100 100 100 100 100 100 100 100 100 100 100 100 100 100 100 100 100 100 100 82 67 39 5 81 91 100 100 100 99 50 62 26 11 37 34
97 59 66 5 4 100 100 100 100 100 100 100 100 100 100 100 100 100 65 100 100 100 100 100 100 100 100 83 93 98 72 52 82 100 100 98 93 70 5 9 89 100 89 57
80 52 93 16 14 98 70 100 100 97 100 100 100 100 100 100 100 100 55 50 99 100 100 100 100 100 100 100 100 100 100 100 100 100 87 93 67 100 99 77 50 5 18 5
91 71 13 86 31 91 98 81 100 100 100 100 100 56 100 100 100 100 100 18 20 100 100 100 100 100 100 100 100 100 100 100 100 100 100 68 5 11 89 40 7 5 5 2
100 81 95 100 99 99 94 25 98 100 100 100 100 24 90 100 100 100 100 100 99 39 87 100 100 100 100 100 100 100 100 100 100 100 100 46 98 5 5 9 12 30 17 16
96 100 100 100 100 84 62 76 12 100 100 100 100 88 10 96 100 100 100 100 100 100 100 99 100 100 100 100 100 100 100 100 100 100 100 100 100 51 89 24 75 12 10 37
100 94 100 100 100 100 100 83 89 77 100 100 100 97 5 6 35 100 100 100 100 100 100 66 87 99 100 100 100 100 100 100 100 100 99 94 94 100 86 100 11 5 36 96
100 100 100 100 100 100 99 99 100 52 99 100 100 100 36 5 46 100 95 51 100 100 100 100 100 99 98 100 100 100 100 80 37 89 99 100 100 95 61 6 23 19 17 90
100 100 100 100 100 100 66 62 70 97 79 100 100 100 100 100 69 100 98 88 95 95 99 100 100 98 60 71 84 100 100 100 100 100 94 75 100 62 62 42 45 21 61 28
100 100 100 100 99 97 97 99 98 89 88 97 100 100 100 100 100 100 100 85 98 94 86 87 68 40 39 64 87 100 100 99 91 99 95 99 98 78 51 44 50 42 6 5
100 100 100 100 100 100 94 100 100 71 45 5 95 100 100 100 100 100 100 100 70 44 92 95 100 100 100 93 93 100 90 93 100 100 96 93 67 53 62 57 32 87 10 5
100 100 100 100 100 94 100 100 98 29 23 44 3 94 100 100 100 100 100 100 100 100 89 81 60 77 85 100 100 100 100 97 98 94 100 88 56 38 38 28 88 5 5 5
100 100 100 55 99 100 100 100 100 100 100 100 78 6 100 100 100 100 100 100 100 100 100 100 100 100 100 99 94 95 99 100 84 24 42 76 93 77 98 64 31 3 0 29
100 100 100 100 100 100 100 100 100 100 100 100 100 99 100 100 100 100 100 100 100 100 100 100 100 100 100 99 100 87 60 85 100 85 73 99 100 79 15 5 3 92 99 100
100 100 100 100 100 100 100 82 100 100 99 100 100 100 100 100 100 100 100 100 100 100 100 100 100 100 100 100 99 100 100 100 100 99 76 42 12 53 97 98 34 81 100 100
100 100 100 100 100 100 99 39 100 85 5 50 100 100 100 100 100 100 100 100 100 100 100 100 100 100 100 100 100 100 100 100 99 48 8 5 18 100 100 100 100 100 84 100
16 27 22 97 100 100 100 100 34 32 90 100 100 76 100 100 100 100 100 100 100 100 100 100 100 100 100 100 100 99 84 12 27 90 99 56 100 100 100 100 100 100 100 100
21 70 76 46 5 43 78 12 42 87 91 100 100 100 100 100 100 100 100 100 100 100 100 100 100 100 100 100 100 69 68 99 100 99 100 100 100 100 100 100 100 100 100 100
56 100 100 100 97 100 100 99 99 95 100 99 100 100 100 100 100 100 100 100 100 100 100 100 100 100 100 76 6 5 9 100 100 100 100 100 100 100 100 100 100 100 100 100
32 69 79 68 100 100 100 100 100 100 100 100 100 100 100 100 100 100 100 100 100 100 100 100 97 48 5 5 5 10 100 100 100 100 100 100 100 100 100 100 100 100 100 98
51 81 91 100 100 76 98 100 100 83 100 100 100 100 100 100 100 100 100 100 100 100 100 82 14 5 7 5 14 82 100 100 100 100 100 100 100 100 100 100 100 90 6 3
93 92 100 99 100 79 93 98 100 100 100 100 100 100 100 100 100 100 100 100 100 99 68 64 73 79 45 87 100 100 100 100 100 100 99 100 100 100 55 31 6 5 5 0
64 62 85 12 98 100 100 100 99 99 100 100 100 100 100 100 100 100 100 98 82 96 100 95 100 100 100 100 100 100 100 100 100 100 86 28 92 100 100 26 5 5 5 5
100 98 100 86 84 84 55 47 34 95 62 74 61 88 90 82 93 87 100 100 96 100 100 100 100 100 100 100 100 100 100 100 100 100 19 5 58 100 100 70 9 22 36 55
98 100 99 100 96 80 76 96 100 100 76 61 63 83 78 92 100 100 100 100 100 100 100 100 100 100 100 100 100 100 100 98 8 5 5 5 92 100 100 100 98 100 100 100
100 91 98 99 100 100 100 100 83 88 97 97 98 62 83 100 100 100 100 100 100 100 100 100 100 95 98 100 100 100 77 21 5 5 5 82 100 100 100 100 100 100 100 100

GFSCGP_prec_cloud_063.txt.gz
Cloud_Cover
100 92 34 100 100 100 100 100 100 100 100 100 100 100 100 100 100 92 100 100 100 100 100 91 97 100 96 53 6 21 100 66 45 5 5 45 100 12 10 64 100 100 60 100
100 70 100 69 100 100 100 100 100 99 99 98 100 100 100 100 100 100 100 100 100 100 100 100 100 100 100 100 68 61 67 100 100 100 100 100 61 80 100 100 90 100 100 100
100 92 90 57 67 100 100 100 100 100 94 7 100 100 100 100 100 100 100 100 100 100 100 100 100 100 100 100 100 100 99 80 77 99 100 100 100 100 100 100 96 22 8 25
100 100 99 25 26 81 100 100 100 86 100 88 99 100 100 27 100 100 88 38 98 100 100 100 100 100 100 100 100 100 100 100 100 100 100 100 100 100 100 100 92 66 22 42
86 97 29 99 76 36 11 100 100 100 100 100 100 93 100 78 61 100 100 87 77 100 100 100 100 100 100 100 100 100 100 100 100 100 100 100 99 16 6 17 82 85 99 44
100 100 38 86 9 7 91 66 83 100 100 100 100 96 100 100 100 99 100 100 82 6 86 100 100 100 100 100 100 100 100 100 100 100 100 92 92 86 79 92 30 29 41 58
100 100 100 98 78 78 99 80 83 100 99 100 100 92 99 100 100 100 100 100 100 100 76 49 83 100 100 100 100 100 100 100 100 100 100 100 100 100 98 97 95 96 72 91
100 100 100 98 73 100 98 97 88 29 56 32 100 100 100 100 100 100 100 100 100 100 100 100 100 100 100 100 100 100 100 100 100 100 100 100 100 100 100 100 100 97 100 93
100 100 100 100 100 100 97 93 66 68 6 25 47 100 100 100 100 100 100 100 100 100 100 100 100 100 100 100 100 70 56 57 71 100 100 79 68 97 100 99 100 99 68 82
27 97 100 100 100 100 76 100 90 98 84 64 4 27 100 100 100 100 100 100 99 100 100 100 100 100 100 100 100 100 100 100 100 97 90 76 100 94 99 98 100 100 91 91
88 47 100 100 100 100 100 91 39 73 40 79 36 3 51 100 100 100 100 100 100 100 100 100 100 100 100 100 100 100 100 100 100 100 100 100 100 100 100 100 100 100 100 100
100 86 95 100 100 100 100 100 61 89 58 36 41 72 98 100 100 100 100 100 100 90 80 84 81 100 100 100 100 100 100 100 100 100 100 100 100 100 100 100 100 100 100 100
100 100 100 100 100 96 100 100 100 96 95 99 23 99 100 100 100 100 100 100 100 100 71 25 23 39 42 43 17 66 100 100 98 97 95 100 100 100 100 100 100 100 100 86
100 100 100 100 100 82 100 100 100 100 100 100 63 100 100 85 100 100 100 100 100 100 100 100 98 99 93 85 84 77 58 18 51 76 97 89 100 100 100 100 100 100 100 64
99 98 91 72 89 69 76 100 100 100 100 98 100 100 100 98 100 100 100 100 100 100 100 100 100 100 87 100 89 98 98 17 15 61 100 100 100 100 100 100 100 98 52 98
100 100 100 100 100 76 94 100 100 100 100 100 100 100 100 100 100 100 100 100 100 100 100 100 100 97 83 33 57 100 40 100 100 100 100 100 100 100 100 100 99 100 100 100
96 100 100 100 100 100 100 97 93 95 95 100 100 100 100 100 100 100 100 100 100 100 100 100 100 100 100 100 100 100 100 100 100 100 100 100 100 100 100 100 100 100 100 100
5 34 100 100 100 96 96 55 100 24 5 100 6 86 100 100 100 100 100 100 100 100 100 100 100 100 100 100 100 100 100 100 100 100 100 100 100 100 100 100 100 100 100 100
48 5 21 15 61 100 98 100 100 100 96 84 56 100 100 100 97 98 100 100 100 100 100 100 100 100 100 100 100 100 100 100 100 100 100 100 100 100 100 100 100 100 100 100
43 80 20 11 35 75 100 41 61 98 29 18 65 100 100 100 100 100 100 100 100 100 100 100 100 100 100 100 100 100 100 100 100 100 100 100 100 100 100 100 100 100 100 10
82 100 76 92 98 97 93 26 94 100 100 100 100 99 53 100 100 100 100 100 100 100 100 100 100 100 100 100 100 100 100 100 100 100 100 100 100 100 100 100 78 11 6 5
84 99 100 100 100 100 98 100 100 78 100 100 100 100 100 100 100 100 100 100 100 100 100 100 100 100 100 100 77 58 100 100 100 100 100 100 100 100 100 62 100 100 100 70
54 20 82 11 95 100 100 100 100 100 100 100 100 100 100 100 100 100 100 100 100 100 100 100 100 100 94 96 87 100 100 100 100 81 100 100 96 11 5 95 100 100 100 100
81 28 76 63 75 62 100 86 97 100 100 100 97 94 97 100 100 100 100 100 100 98 100 100 100 100 100 100 100 100 100 100 100 100 54 5 0 2 5 98 100 100 100 100
11 55 36 69 100 100 100 100 98 100 100 100 100 80 82 93 95 81 57 87 100 100 100 100 100 100 100 100 100 100 100 100 100 91 5 5 5 5 10 90 100 100 100 100
5 34 74 95 91 100 100 100 97 98 99 98 96 78 72 80 82 61 62 100 100 100 100 100 100 100 100 100 100 100 100 100 40 5 5 5 5 5 75 100 91 100 100 100

GFSCGP_prec_cloud_066.txt.gz
Cloud_Cover
100 100 93 4 60 100 100 100 100 100 100 100 100 100 100 100 32 100 100 85 100 100 100 58 99 100 41 30 96 100 5 5 5 34 86 84 9 5 52 36 37 33 95 90
100 70 100 5 100 100 100 100 100 100 100 100 100 100 100 99 62 97 88 100 49 100 100 100 100 100 100 97 78 98 97 64 7 5 5 78 100 99 39 23 50 72 100 100
100 94 100 72 33 100 100 100 100 100 100 100 98 60 100 78 5 37 98 96 100 92 100 100 100 100 100 100 100 94 94 100 100 62 22 5 12 22 59 68 57 96 100 100
100 100 100 100 13 94 100 100 100 100 100 100 100 93 100 100 94 6 60 91 99 42 43 100 100 100 100 100 100 100 100 100 100 100 100 100 100 100 100 100 100 96 84 76
100 100 100 100 100 37 100 100 100 100 100 100 100 24 100 100 70 56 16 39 65 100 100 100 100 100 100 100 100 100 100 100 100 87 72 100 98 100 100 100 100 100 100 100
100 100 100 100 100 99 96 100 100 100 83 92 83 67 100 96 94 100 91 66 36 92 100 100 100 100 100 100 100 100 100 100 100 100 91 66 100 100 96 54 78 100 100 97
100 100 97 100 84 97 65 100 100 100 100 34 95 90 96 82 81 90 94 71 7 65 78 99 100 100 100 100 100 100 100 100 100 76 55 55 72 24 60 80 47 5 5 50
100 100 85 98 99 89 80 10 23 75 100 100 100 78 100 100 100 100 100 100 96 57 91 59 85 100 100 100 100 100 100 100 100 100 100 100 100 97 84 42 65 58 47 9
86 88 100 94 90 17 90 33 54 100 70 100 100 100 100 100 98 78 100 100 100 100 100 96 100 100 100 98 91 99 100 100 100 100 100 100 98 98 94 64 65 67 35 62
98 94 100 100 99 96 87 89 78 82 17 60 100 100 100 100 100 100 100 100 100 100 100 100 92 100 100 100 100 95 75 58 70 74 90 86 99 87 100 99 100 100 92 83
5 36 88 96 100 100 100 95 59 16 5 5 5 21 100 100 100 100 100 100 92 100 100 98 96 100 100 100 100 100 100 100 100 100 100 100 100 100 100 100 100 100 100 100
5 54 100 100 100 100 100 66 26 80 5 18 5 3 5 100 100 100 100 100 100 100 100 82 44 76 100 100 100 100 100 100 100 100 100 100 100 100 100 100 100 100 100 100
100 100 100 100 98 100 100 41 5 5 84 5 6 2 5 100 100 100 100 100 100 100 100 88 73 76 100 100 97 98 100 100 100 100 100 100 100 100 100 100 100 97 82 100
95 92 99 100 100 77 94 99 94 100 33 98 24 44 98 92 100 100 100 100 100 100 100 100 100 100 98 99 93 98 100 100 100 100 100 100 100 100 100 70 40 97 100 100
100 100 100 100 74 99 100 100 100 100 100 85 98 100 100 100 100 100 100 100 100 100 100 100 100 100 100 100 76 89 100 98 100 98 95 100 100 100 100 100 93 100 100 100
100 100 49 100 100 100 100 100 100 100 100 100 100 100 100 100 100 100 100 100 100 100 100 100 100 100 100 100 72 84 63 100 100 100 100 87 100 100 100 100 100 100 100 100
21 87 100 89 92 92 97 100 100 100 100 100 100 100 100 100 100 100 60 83 100 100 100 100 100 100 100 100 100 100 100 100 99 58 57 97 100 100 100 100 100 100 100 100
4 5 5 9 85 58 44 87 100 100 85 100 100 100 100 100 100 100 100 100 100 100 100 100 100 100 100 100 100 100 95 100 99 100 100 100 100 100 100 100 100 100 100 100
20 5 5 10 29 92 100 77 9 29 22 58 100 100 100 100 100 100 100 100 100 100 100 100 100 100 100 100 100 100 100 100 100 100 100 100 100 100 100 100 100 100 100 65
60 52 5 9 9 20 11 5 5 16 63 5 23 70 100 98 99 100 100 100 100 100 100 100 100 100 100 100 100 100 99 100 100 100 100 100 100 100 100 100 100 88 5 29
96 99 63 38 54 65 89 7 18 21 63 33 54 42 84 55 100 100 100 100 100 100 100 100 100 100 100 100 100 100 100 100 100 100 100 100 100 100 93 100 73 30 30 27
100 83 87 53 87 96 67 8 51 32 14 84 98 100 100 96 99 100 100 100 100 100 100 99 100 100 100 100 100 100 100 100 100 100 100 100 100 100 100 27 11 5 5 5
60 100 100 65 36 89 98 90 52 68 100 100 100 100 100 100 100 100 100 100 100 100 100 100 100 100 100 100 100 100 100 100 100 100 100 100 100 74 82 15 5 5 5 5
53 17 98 100 98 100 100 100 100 100 100 100 100 100 100 100 100 100 100 100 100 100 100 100 100 100 100 100 100 100 100 100 100 97 100 100 98 25 5 1 2 5 5 5
64 34 5 95 100 100 100 73 100 100 100 100 100 100 100 100 100 100 100 100 90 79 99 100 100 100 100 100 100 100 100 100 100 100 100 100 52 45 4 0 5 5 6 5
64 58 13 6 100 100 100 100 100 100 100 100 100 100 100 100 100 100 100 100 100 97 96 100 100 100 100 100 100 100 100 100 100 100 100 78 83 9 5 5 5 5 6 65

GFSCGP_prec_cloud_069.txt.gz
Cloud_Cover
100 100 40 37 4 1 0 74 100 100 100 100 100 100 100 100 100 85 75 97 98 100 100 100 100 100 61 11 16 7 28 39 45 26 15 5 5 60 53 13 5 5 13 97
100 100 99 100 100 43 5 100 100 100 100 100 100 100 100 100 93 97 95 52 69 100 100 100 100 100 100 100 96 100 90 65 61 100 100 98 63 85 97 100 100 100 100 100
100 100 100 21 64 71 5 100 100 100 100 100 100 100 100 97 100 100 88 5 8 98 100 100 100 100 100 100 100 100 100 100 99 100 100 100 100 100 100 100 100 100 100 100
100 100 100 7 5 100 8 73 100 100 100 100 100 100 100 99 97 54 100 63 5 25 100 100 100 100 100 100 100 100 100 100 100 99 89 89 100 100 100 100 100 100 100 100
100 100 92 46 28 64 73 6 100 100 100 100 100 99 100 100 12 22 93 100 59 5 5 32 100 100 100 100 100 100 100 100 100 100 100 100 100 100 100 100 99 92 17 81
100 100 100 78 6 39 97 93 100 100 100 100 100 94 100 98 83 5 96 60 70 27 5 5 40 100 100 100 100 100 100 100 100 100 100 100 100 100 100 100 100 100 75 89
100 100 55 12 48 90 100 96 98 100 100 100 100 100 100 99 76 37 26 30 6 5 5 5 5 27 99 100 100 100 100 100 100 100 100 100 100 100 100 100 100 100 100 100
100 100 100 72 5 47 89 83 15 66 100 100 100 94 100 100 89 23 5 21 12 18 33 34 55 21 100 98 95 100 100 100 100 100 100 100 100 100 100 100 100 100 97 99
100 100 100 92 15 88 29 70 82 5 100 100 100 100 99 100 85 6 5 5 44 33 64 91 60 77 88 100 100 98 100 100 100 100 100 100 100 100 100 100 100 100 100 100
100 100 100 100 100 14 23 43 58 5 18 90 100 100 100 100 100 100 95 38 51 35 52 76 58 19 25 72 95 100 100 100 100 100 66 59 68 87 100 100 100 100 100 100
100 100 100 100 79 20 80 38 48 58 6 17 100 100 100 100 100 100 100 100 52 31 91 100 63 5 89 96 55 38 72 100 100 100 100 100 100 99 100 90 99 98 82 86
100 100 100 100 100 82 100 75 83 10 5 11 6 100 100 100 100 100 100 100 100 88 100 79 68 93 26 6 37 56 46 39 64 100 97 100 100 100 100 100 100 100 100 100
50 56 91 100 92 99 100 100 95 92 61 5 5 5 46 99 100 100 100 100 100 100 100 96 56 100 99 100 56 5 70 54 77 88 83 82 95 100 100 100 100 100 100 100
23 37 20 17 5 42 99 100 100 100 85 15 4 60 70 23 52 96 98 100 100 100 100 100 100 100 100 98 95 75 68 91 78 59 36 63 57 93 100 100 100 100 100 100
100 100 100 100 59 64 100 93 100 99 98 53 98 18 98 99 67 80 98 70 98 100 100 100 100 100 100 100 100 100 100 100 100 100 100 100 100 100 100 100 100 100 100 100
100 100 94 100 100 100 100 98 31 100 96 100 100 100 100 100 100 100 100 100 100 100 100 100 100 100 100 100 100 100 100 100 100 100 100 100 100 100 100 100 100 100 100 100
45 68 99 100 56 100 100 100 100 79 99 100 100 100 100 100 100 100 100 100 100 100 100 100 100 100 100 100 100 100 100 100 100 100 100 100 100 100 100 100 100 100 100 100
4 10 6 48 72 99 100 100 100 100 89 100 100 100 100 100 100 97 86 98 100 100 100 100 100 100 100 100 100 100 100 100 100 100 100 100 100 100 100 100 100 100 100 100
5 5 5 5 7 8 24 100 100 98 100 100 100 100 100 99 100 100 100 100 92 100 100 100 100 100 100 100 100 100 100 100 100 100 100 100 100 100 100 100 100 100 100 100
60 8 21 15 14 16 4 5 8 97 100 100 100 100 100 100 100 100 100 100 100 100 100 99 100 100 100 100 100 100 100 100 100 100 100 100 100 100 100 100 100 100 100 100
100 100 75 52 50 6 5 3 5 5 26 28 78 57 99 100 100 98 100 100 100 100 100 100 99 100 99 100 100 100 100 100 100 100 100 100 100 100 100 100 100 100 100 91
64 83 96 100 99 41 24 5 4 5 5 5 12 9 98 53 67 38 93 96 100 100 100 100 100 100 100 100 100 100 100 100 100 100 100 100 100 100 100 100 100 100 84 6
13 6 11 24 14 44 5 29 15 5 5 83 48 5 47 68 37 48 83 99 100 100 100 100 100 100 100 100 100 100 100 100 100 100 100 100 100 100 100 100 100 30 5 5
100 65 69 5 5 12 96 10 8 60 69 89 97 88 10 68 98 100 100 100 100 100 100 100 100 100 100 100 100 100 100 100 100 100 100 100 100 100 100 100 23 5 5 5
100 100 100 100 32 14 13 62 41 58 95 100 100 94 100 100 100 100 100 100 100 100 100 100 100 100 100 100 100 100 100 100 100 100 100 100 100 100 70 86 52 23 7 5
100 91 100 94 73 38 28 76 100 91 79 100 100 100 100 100 100 100 100 100 100 100 100 95 98 99 100 100 100 100 100 100 100 100 100 100 99 75 100 100 94 41 5 5

GFSCGP_prec_cloud_072.txt.gz
Cloud_Cover
100 100 78 75 100 29 5 5 7 99 100 100 100 100 100 100 100 100 100 100 100 100 87 100 100 100 100 100 99 68 28 5 32 82 92 53 78 10 12 18 5 5 5 5
100 100 100 100 100 100 7 5 4 5 99 100 100 100 100 100 100 100 100 100 100 96 90 100 100 100 100 100 100 100 97 28 13 81 100 100 51 29 33 45 77 71 63 89
100 100 99 100 72 100 11 1 0 4 99 100 100 100 100 100 100 100 88 78 100 100 93 92 100 100 100 100 100 100 100 100 97 69 60 57 68 85 70 86 80 94 100 100
100 100 100 100 98 100 86 1 3 5 5 100 100 100 100 100 100 100 100 94 73 100 100 100 100 100 100 100 100 100 100 100 100 100 100 100 100 100 100 100 100 100 100 100
100 100 100 99 100 100 100 10 5 5 77 100 100 100 100 100 100 100 100 100 62 39 96 100 80 100 100 100 100 100 100 100 100 100 100 100 100 100 100 100 100 100 100 100
100 100 100 100 89 100 100 93 31 98 99 100 100 100 100 100 100 99 100 100 100 74 5 42 100 96 56 65 94 100 100 100 100 100 100 100 100 100 100 100 100 100 100 100
100 100 100 100 100 64 73 73 91 99 98 100 100 100 100 100 100 100 100 100 100 74 61 8 23 88 74 100 100 100 100 100 100 100 100 100 100 100 100 100 100 100 100 100
100 100 100 100 100 96 75 92 21 13 59 20 100 100 100 100 100 100 100 100 100 100 36 63 83 14 100 99 79 65 72 86 100 100 100 100 100 100 100 100 100 100 100 100
100 100 100 100 100 70 54 69 46 5 5 5 14 88 100 100 100 100 77 100 95 97 100 5 5 25 5 28 46 28 39 33 55 75 100 100 100 100 100 100 100 100 100 100
100 100 100 100 100 99 33 92 50 69 12 5 3 100 100 100 100 100 100 100 100 67 45 5 5 5 5 5 58 100 100 68 86 99 90 97 100 100 100 100 100 100 100 100
100 100 100 97 95 100 96 24 6 41 5 5 3 85 100 100 100 100 100 100 100 100 98 57 5 5 5 17 15 10 92 100 100 96 91 99 96 99 100 100 100 100 96 100
93 100 100 100 100 68 52 15 5 5 7 12 5 1 100 100 100 100 100 100 100 100 97 62 21 5 5 15 6 29 98 98 100 100 100 100 100 100 100 100 63 100 99 100
100 100 100 100 100 94 28 48 42 41 5 6 77 4 36 12 100 100 100 100 100 92 53 28 24 25 9 5 77 43 10 71 22 39 53 92 98 99 94 88 76 96 94 95
99 99 100 100 100 100 100 100 96 69 82 80 5 62 5 5 5 58 100 100 100 100 92 70 85 100 95 59 43 79 95 76 6 20 15 32 23 90 99 84 100 100 87 47
100 92 41 35 35 64 96 100 100 100 91 65 36 4 94 39 8 5 16 87 100 100 100 100 100 100 99 100 100 81 80 80 76 70 95 72 96 99 100 100 100 100 100 100
100 100 99 100 95 91 92 62 10 69 100 98 98 100 100 64 60 24 94 72 50 42 99 100 100 100 100 100 81 100 100 100 100 100 100 100 100 100 100 100 100 100 100 100
22 97 100 100 100 100 74 100 95 100 100 100 100 100 100 66 100 81 73 89 34 53 52 100 100 100 100 100 100 92 100 100 100 100 100 100 100 100 100 100 100 100 100 100
34 49 79 100 100 64 100 100 99 81 64 50 74 100 100 100 96 100 100 100 100 64 96 100 100 100 100 75 80 100 92 91 100 100 100 100 100 100 100 100 100 100 100 100
5 5 6 31 50 100 100 100 100 100 100 98 100 100 100 100 99 100 78 100 100 100 100 99 100 100 100 100 100 100 100 100 100 100 81 100 100 100 100 100 100 100 100 100
78 78 47 43 9 12 1 58 6 96 100 99 100 100 100 100 100 100 98 100 100 100 100 100 97 98 100 100 100 100 100 100 100 100 100 100 100 100 100 100 100 100 100 100
68 78 99 100 93 59 4 3 0 4 52 97 18 22 100 100 100 100 100 97 100 100 100 100 100 100 100 100 100 100 100 100 100 100 100 100 100 100 100 100 100 100 100 100
20 68 64 94 100 65 90 58 8 4 4 5 5 24 97 100 100 100 100 62 84 100 100 99 100 100 100 100 100 100 100 100 100 100 100 100 100 100 100 100 100 100 100 100
5 5 11 61 51 49 56 96 31 38 52 5 5 58 70 47 49 99 90 100 39 100 100 99 100 100 100 100 100 100 100 100 100 100 100 100 100 100 100 100 100 100 100 100
100 57 42 22 6 5 18 66 100 88 19 35 61 49 81 73 100 100 98 100 100 100 100 100 100 100 100 99 100 100 100 100 100 100 100 100 100 100 100 100 100 100 100 100
100 100 88 53 16 78 94 6 14 79 83 60 39 88 100 91 100 100 100 100 100 100 100 100 100 100 100 100 100 98 100 100 100 100 100 100 100 100 100 100 100 100 100 100
100 93 86 100 100 99 30 32 5 5 58 89 58 55 100 100 84 95 99 100 100 100 100 100 100 100 100 100 100 100 100 100 100 100 100 100 100 100 100 100 100 100 100 100

GFSCGP_prec_cloud_075.txt.gz
Cloud_Cover
100 100 100 100 15 80 19 31 56 100 31 94 100 100 100 96 99 100 99 100 100 100 100 100 100 100 100 98 96 100 98 100 100 100 98 30 5 5 11 51 30 26 7 8
100 100 100 100 100 100 100 93 33 27 5 88 100 100 100 99 92 100 99 100 100 100 100 100 100 100 94 100 74 87 100 100 100 100 100 100 100 80 67 64 98 99 98 98
100 100 100 21 79 95 100 100 100 31 4 67 100 100 37 100 100 100 100 78 100 100 100 100 100 100 86 99 100 100 100 100 100 100 100 100 100 100 100 98 97 100 100 100
100 100 100 100 80 86 100 100 96 5 4 65 10 100 95 100 100 97 84 100 100 100 100 100 100 100 100 100 100 100 100 100 100 100 100 100 100 100 100 100 100 100 100 100
100 100 100 97 92 100 100 100 100 21 11 5 5 8 100 100 99 100 100 100 100 100 100 100 100 100 100 100 100 100 100 100 100 100 100 100 100 100 100 100 100 100 100 100
100 100 100 95 100 100 100 100 91 77 100 50 5 24 100 100 100 100 100 100 100 100 100 100 100 100 100 100 100 100 100 100 100 100 100 100 100 100 100 100 100 100 100 100
100 100 100 100 89 100 100 99 81 65 87 60 5 24 100 100 100 100 100 100 100 100 100 100 100 100 100 100 100 100 100 100 100 100 100 100 100 100 100 100 100 100 100 100
100 100 100 100 100 100 100 97 100 44 45 5 36 5 50 100 100 100 99 73 100 100 98 90 100 100 100 100 100 100 100 100 100 100 100 100 100 100 100 100 100 100 100 100
100 100 100 100 100 11 95 79 96 74 62 5 5 66 100 66 100 100 96 100 100 100 100 100 50 70 84 99 100 99 99 94 100 100 100 100 100 100 100 100 100 100 100 100
100 100 100 100 74 80 8 91 87 74 98 18 5 7 100 100 98 100 100 100 100 89 100 100 100 95 100 41 88 35 5 30 74 96 100 100 100 100 100 100 100 100 100 100
100 100 100 100 100 100 100 15 65 17 59 28 3 0 2 35 100 100 100 100 100 100 100 100 99 100 100 38 5 26 76 90 95 99 100 100 100 100 100 100 100 100 100 100
100 100 100 100 100 100 99 99 7 6 5 68 81 26 5 0 0 89 100 100 100 100 100 71 100 89 8 7 4 0 0 7 72 100 100 100 100 100 100 100 100 100 100 100
100 100 100 100 100 100 94 100 96 98 100 34 10 28 14 5 0 0 100 100 100 100 100 100 100 34 5 2 5 5 5 5 5 5 5 44 97 100 100 100 100 100 100 100
100 98 91 92 100 100 99 96 15 11 47 50 5 57 100 11 3 11 2 94 99 98 100 100 100 100 99 41 10 5 5 4 3 5 5 5 1 45 75 81 100 100 99 48
57 100 100 100 100 100 94 88 83 26 95 49 93 81 100 80 4 5 5 3 5 4 93 100 88 65 100 100 89 67 62 21 5 5 5 5 5 24 90 99 100 100 100 100
61 34 63 91 47 89 73 98 100 100 100 56 100 99 100 100 5 4 5 5 5 5 11 100 100 100 24 100 42 74 74 75 96 100 98 85 78 100 96 100 100 100 100 100
91 95 98 50 58 28 55 98 72 11 8 6 72 82 100 21 17 5 5 6 10 6 5 5 74 74 98 96 65 71 100 68 99 100 100 100 100 100 100 100 100 100 100 100
5 20 7 89 92 61 100 100 36 99 64 92 100 100 100 100 97 100 93 38 40 70 38 33 92 39 30 41 68 96 100 100 39 43 77 92 100 100 100 100 100 100 100 100
63 5 7 5 8 92 100 84 92 99 100 5 67 68 100 99 100 100 100 47 96 15 100 82 31 68 96 100 100 100 100 100 83 62 98 98 100 100 100 100 100 100 100 100
5 53 72 6 12 5 14 77 100 90 32 100 100 100 100 100 100 53 20 100 23 98 100 100 100 91 58 78 100 100 63 92 100 100 100 100 100 100 100 100 100 100 100 100
84 97 100 100 100 98 7 18 5 5 5 40 83 88 100 100 100 100 100 100 100 69 100 100 100 100 96 82 84 82 100 100 100 100 100 100 100 100 100 100 100 100 100 100
44 56 22 76 98 100 41 57 52 79 50 5 5 5 16 66 85 68 93 99 100 100 100 100 100 100 100 100 89 100 91 95 100 100 100 100 100 100 100 100 100 100 100 100
75 97 74 7 23 58 72 100 100 100 100 98 16 5 5 5 12 6 39 67 79 98 100 89 35 98 99 100 100 100 84 100 100 100 100 100 100 100 100 100 100 100 100 100
100 100 97 81 63 60 44 44 66 62 89 100 88 73 46 33 6 15 30 21 52 66 79 81 100 99 94 94 97 86 78 100 92 99 100 100 100 100 100 100 100 100 100 100
100 100 100 100 100 65 95 100 98 76 28 57 80 57 100 100 100 100 100 100 100 100 91 100 100 100 100 100 99 100 100 100 100 100 100 100 100 100 100 100 100 100 100 100
100 100 100 100 97 58 80 100 98 43 79 31 37 46 100 100 100 100 100 100 100 100 100 100 100 100 100 100 100 100 100 100 100 100 100 100 100 100 100 100 100 100 100 100

GFSCGP_prec_cloud_078.txt.gz
Cloud_Cover
100 100 71 70 91 100 100 87 100 100 19 100 100 100 100 100 100 100 91 97 100 100 100 100 100 100 100 100 100 100 100 100 100 100 100 100 57 47 47 55 27 18 36 43
100 100 100 95 100 100 59 96 85 100 9 26 57 97 61 87 48 98 100 87 100 100 100 100 100 100 100 100 100 100 100 100 100 100 100 100 100 100 100 100 87 72 61 70
100 100 100 100 98 100 32 57 97 100 100 95 60 26 15 96 100 97 97 99 100 100 100 100 100 100 100 100 100 100 100 100 100 100 100 100 100 100 100 100 100 100 100 100
100 100 100 100 95 100 100 97 100 100 67 15 2 2 72 100 96 24 94 100 65 98 100 100 100 100 100 100 100 100 100 100 100 100 100 100 100 100 100 100 100 100 100 100
100 100 100 50 100 100 100 100 100 100 38 31 7 43 75 99 100 100 99 100 99 100 100 100 100 100 100 100 100 100 100 100 100 100 100 100 100 100 100 100 100 100 100 100
100 100 100 100 100 98 100 100 100 100 99 76 26 38 5 95 100 52 95 74 57 83 100 100 100 100 100 100 100 100 100 100 100 100 100 100 96 100 100 100 100 100 100 100
100 100 100 100 100 99 86 100 100 97 99 38 7 42 60 1 95 85 90 100 75 100 100 100 100 100 100 100 100 100 100 100 100 100 100 100 100 97 100 100 100 100 100 100
100 100 100 77 94 100 74 85 46 42 69 100 5 14 94 20 5 94 100 56 99 100 100 96 100 100 100 100 100 100 100 100 100 100 100 100 100 100 100 100 100 100 100 100
99 96 100 58 81 91 97 62 31 32 83 100 21 84 14 5 14 5 70 95 96 100 100 100 100 100 100 100 100 100 100 100 100 100 100 100 100 100 100 100 100 100 100 100
89 98 100 97 100 78 40 65 79 100 100 94 10 48 0 4 89 93 8 100 100 100 100 100 100 100 100 100 100 100 100 100 100 100 100 100 100 100 100 100 100 100 100 100
100 99 100 73 96 62 42 100 100 94 74 59 39 76 5 0 7 99 95 8 100 100 100 100 100 100 100 96 100 100 100 100 100 100 100 100 100 100 100 100 100 100 100 100
100 100 100 100 61 58 94 17 22 32 74 85 99 35 5 3 2 90 100 91 94 100 100 100 100 100 100 100 100 99 99 100 96 100 100 100 100 100 100 100 100 100 100 100
100 100 100 99 99 89 86 100 79 5 10 34 44 73 25 9 4 0 53 100 63 100 100 100 100 100 70 51 100 100 98 99 100 96 49 94 100 100 100 100 100 100 100 100
100 100 100 45 27 22 20 11 8 5 32 47 57 76 100 94 12 4 0 4 97 95 93 100 100 100 100 80 86 86 100 100 100 88 31 5 5 7 30 71 99 100 100 100
99 100 98 100 100 100 100 100 99 65 96 64 100 100 100 100 8 1 5 0 0 8 50 98 90 66 100 100 100 100 100 100 63 95 72 68 8 5 31 55 63 94 100 100
5 5 63 34 100 100 100 86 100 100 99 54 82 43 100 100 5 0 0 3 0 0 0 0 0 5 6 97 100 13 26 5 1 5 24 6 14 27 62 62 90 100 100 100
6 15 33 31 5 10 46 44 5 5 10 5 5 96 99 100 20 4 0 0 0 5 2 0 0 1 0 5 13 60 73 35 20 13 74 89 80 68 69 100 100 100 100 100
5 37 71 90 12 35 100 85 5 9 60 36 7 97 100 100 100 6 5 5 4 4 0 0 4 5 5 5 5 6 66 94 39 5 78 100 100 100 100 100 100 100 100 100
41 59 42 43 14 48 99 10 40 55 30 66 86 90 100 100 30 49 15 10 98 5 64 49 38 96 91 35 32 89 81 5 21 14 50 100 100 90 100 100 100 100 100 100
56 100 100 87 6 10 64 56 92 81 51 98 75 100 100 56 99 95 99 100 60 89 100 100 51 89 100 97 71 5 16 59 98 88 99 100 97 78 99 100 100 100 100 100
48 71 62 99 100 100 76 71 57 10 40 36 44 9 98 100 100 93 87 100 41 79 92 100 31 100 100 100 93 13 39 100 98 97 99 95 100 99 100 100 100 100 100 100
7 20 29 77 94 100 100 100 96 100 85 28 16 21 21 45 100 100 100 100 100 100 88 100 76 88 100 100 100 100 74 91 83 98 100 100 100 100 100 100 100 100 100 100
50 25 24 5 5 66 100 90 100 100 100 100 97 56 58 20 7 27 92 100 100 100 100 100 100 100 37 10 77 35 78 98 99 89 85 100 100 100 100 100 100 100 100 100
100 97 100 100 97 16 96 100 94 93 78 96 100 100 99 100 80 51 6 5 33 40 34 26 19 46 96 98 79 93 91 100 100 97 98 96 100 100 100 100 100 100 100 100
98 84 70 100 96 90 100 99 93 55 91 100 93 64 49 83 100 100 100 100 94 81 96 97 99 100 100 100 100 97 100 100 100 98 100 100 100 100 100 100 100 100 100 100
100 98 100 100 100 100 100 93 99 100 100 99 68 99 87 94 98 100 100 100 100 100 100 100 100 100 97 100 100 100 100 100 100 100 91 100 100 100 100 100 100 100 100 100

GFSCGP_prec_cloud_081.txt.gz
Cloud_Cover
100 100 100 12 100 100 100 100 100 100 98 96 29 100 7 50 73 100 100 100 100 100 100 100 100 100 100 100 100 100 100 100 100 100 100 100 100 100 100 100 100 91 100 87
100 100 100 100 100 100 100 96 74 95 93 100 100 67 100 84 64 100 100 100 100 100 100 100 100 100 100 100 100 100 100 100 100 100 100 100 100 100 100 100 100 100 92 86
100 100 100 98 97 86 87 90 100 100 100 100 87 22 28 67 99 100 92 100 100 100 100 100 100 100 100 100 100 100 100 100 100 100 100 100 100 100 100 100 100 100 100 100
100 100 100 100 100 97 100 100 100 100 100 100 99 42 100 81 60 34 95 98 100 100 100 100 100 100 100 100 100 100 100 100 100 100 100 100 100 100 99 90 100 100 100 100
100 100 64 97 100 100 100 96 100 100 100 99 99 42 4 5 56 88 95 10 37 99 99 85 100 100 100 100 100 100 100 100 100 100 100 100 100 100 100 100 100 100 100 100
96 100 100 100 100 100 100 100 100 100 93 86 92 96 5 48 3 98 92 9 58 16 81 92 95 100 100 100 100 100 100 100 100 100 100 100 100 100 100 100 100 100 100 100
100 100 100 100 100 100 99 100 100 95 89 35 19 63 10 12 1 9 74 56 5 6 90 95 89 100 100 100 100 100 100 100 100 100 100 100 98 100 100 100 100 100 100 100
100 100 100 100 100 100 100 100 100 92 36 100 89 50 95 4 0 0 0 99 11 5 5 60 100 100 100 99 100 100 100 100 100 100 100 100 100 100 100 100 100 100 100 100
100 97 71 98 100 100 99 100 82 62 65 56 100 100 47 1 0 3 0 0 68 99 98 92 99 74 100 100 100 100 100 100 100 100 100 100 100 100 100 100 100 100 100 100
100 100 100 99 88 100 100 94 96 96 100 100 95 100 8 0 0 0 2 4 34 100 70 31 100 100 100 100 100 100 100 100 100 100 100 100 100 100 100 100 100 100 100 100
92 98 100 90 100 77 100 100 66 74 100 100 94 97 89 2 0 0 2 5 5 96 100 100 92 97 100 100 100 100 100 100 100 100 100 100 100 100 97 96 100 100 100 100
5 100 100 96 89 66 98 100 94 80 97 100 100 67 6 5 0 0 5 5 5 6 100 100 100 79 100 100 100 100 100 100 100 100 100 100 100 100 100 100 100 100 100 100
100 95 100 84 84 64 24 24 7 100 69 22 94 96 14 5 5 5 2 4 10 92 13 64 100 100 97 100 100 100 100 100 100 100 100 97 100 100 100 100 100 100 91 100
100 92 100 92 66 10 10 5 12 52 63 89 68 94 100 55 5 4 5 4 14 97 100 99 54 72 100 100 100 100 100 100 100 100 100 100 100 100 100 100 100 100 100 100
100 100 100 98 52 44 98 94 27 84 77 72 100 88 90 87 15 1 5 5 5 3 51 100 100 100 92 100 100 100 100 100 100 100 100 100 100 99 91 90 97 47 27 62
52 98 99 100 100 100 98 56 58 87 100 37 30 38 28 20 6 4 57 3 5 16 5 1 74 100 100 80 100 100 88 100 99 100 93 48 99 100 100 100 95 67 83 82
61 64 63 81 94 100 100 100 100 100 100 100 100 100 97 100 100 64 5 4 4 5 5 5 3 0 12 19 5 93 96 94 100 100 100 100 63 80 79 97 93 100 98 98
34 13 33 47 5 4 36 100 89 80 100 66 42 96 100 100 78 14 0 2 4 5 5 4 2 0 0 3 0 0 0 7 38 66 57 19 5 59 97 100 100 100 100 100
5 48 88 31 80 8 5 5 5 5 4 0 4 5 5 5 5 5 65 14 5 5 5 5 13 1 4 5 5 5 5 5 8 38 33 28 5 66 100 100 71 100 100 100
5 5 62 96 91 52 64 5 5 5 6 7 7 55 44 10 34 23 93 70 62 91 88 35 5 36 100 70 66 55 90 79 5 5 29 12 13 70 100 97 87 98 100 100
51 99 96 98 100 98 100 31 5 5 9 99 92 58 6 72 54 94 100 100 90 7 100 100 42 67 84 25 5 50 100 77 5 5 36 40 71 100 100 100 100 100 100 100
82 84 88 90 100 96 100 98 89 74 54 57 20 5 5 12 52 5 26 100 100 100 90 46 52 100 95 99 86 100 100 100 98 7 55 90 93 100 92 98 100 100 100 100
43 100 52 51 92 22 67 100 100 85 100 100 100 98 39 44 38 57 17 99 100 100 100 100 100 100 100 100 74 69 96 100 100 100 99 93 100 100 99 100 100 100 100 100
100 100 100 100 100 100 94 96 98 80 75 99 100 100 100 100 100 100 71 16 5 90 100 100 100 100 100 100 100 100 99 64 99 100 100 94 100 100 100 100 100 100 100 100
99 58 100 100 100 100 100 100 100 100 68 42 75 100 100 100 90 92 100 100 95 47 48 55 82 54 95 58 91 77 97 100 100 100 100 95 100 100 100 100 100 100 100 100
27 20 91 89 100 100 100 100 100 100 100 100 95 95 100 100 98 58 59 89 86 85 82 100 76 82 86 99 100 100 100 100 100 100 100 100 100 100 100 100 100 100 100 100

GFSCGP_prec_cloud_084.txt.gz
Cloud_Cover
100 100 100 95 3 100 100 100 100 100 100 100 100 100 100 5 37 24 5 28 100 100 72 100 100 100 100 100 100 100 98 85 100 100 100 100 100 100 100 100 100 100 100 100
100 100 100 98 91 100 100 100 100 100 100 100 100 99 6 28 5 5 27 6 82 100 70 100 100 100 100 100 100 100 100 90 100 100 98 100 100 100 100 100 100 100 100 100
100 100 100 65 40 100 100 100 100 100 100 100 100 44 23 14 5 0 41 8 58 100 80 100 100 100 100 100 100 100 100 100 100 100 100 100 100 100 100 100 100 99 93 100
100 100 100 96 66 94 100 100 100 100 100 100 99 100 79 62 5 2 5 5 6 100 100 100 100 100 100 100 100 100 100 100 100 100 100 100 100 100 100 100 100 100 100 100
100 100 100 100 100 99 100 100 100 100 100 100 99 52 5 5 5 0 20 98 14 64 100 100 100 100 100 100 100 100 100 100 100 100 100 100 100 100 100 100 100 100 100 100
100 98 28 7 91 92 100 100 86 100 100 62 20 61 100 21 5 8 30 22 8 5 65 100 100 100 100 100 100 100 100 100 100 100 100 100 100 100 100 100 100 100 100 100
83 99 20 9 32 81 92 99 75 96 17 42 11 12 88 7 5 14 55 5 6 18 25 72 100 100 100 100 100 100 100 100 100 100 100 100 100 100 100 100 100 100 100 100
72 99 54 15 93 100 100 92 97 92 100 98 100 96 99 40 57 16 0 0 0 0 55 41 72 100 100 100 100 100 100 100 100 100 100 100 100 100 100 100 100 100 100 100
71 84 100 93 85 100 100 100 100 100 100 100 100 12 16 86 5 5 5 0 0 0 0 86 2 81 100 100 100 100 100 100 100 100 100 100 100 100 100 100 100 100 100 100
85 100 100 80 100 100 100 100 100 100 94 80 94 100 95 100 73 75 5 0 0 0 0 1 37 20 3 83 100 98 100 100 100 100 100 100 100 100 100 100 100 100 100 100
76 9 70 100 100 100 100 100 100 100 100 85 51 23 5 100 88 8 3 0 0 4 5 5 14 68 100 86 76 100 95 100 100 100 100 100 100 100 100 100 98 100 100 100
5 58 100 100 35 70 100 100 100 100 100 99 97 100 98 99 96 35 5 0 0 0 5 9 83 17 92 100 95 97 100 78 100 100 100 100 100 100 100 100 100 100 98 93
39 85 71 90 100 34 90 95 100 100 100 100 100 94 79 100 55 5 5 0 0 0 0 4 45 94 99 100 100 100 100 100 100 100 100 100 100 100 100 100 100 100 100 92
29 43 6 41 16 57 53 61 62 84 100 100 63 25 17 77 76 45 5 0 0 0 6 12 81 40 5 32 99 100 100 100 100 100 100 100 100 100 100 100 100 100 95 100
95 79 59 50 17 32 9 31 7 31 100 32 99 100 98 52 100 58 5 5 5 5 5 14 100 100 100 67 6 70 100 100 100 100 68 100 100 100 100 100 100 99 100 100
52 100 100 100 84 14 5 49 25 13 66 68 99 92 100 6 43 99 42 6 7 5 60 22 5 40 94 89 94 90 5 63 100 100 100 100 94 100 100 100 100 100 100 93
5 5 5 9 76 100 100 100 96 14 72 99 62 100 100 47 41 9 5 5 1 4 6 10 26 5 5 6 78 92 97 90 7 5 10 83 100 100 79 98 100 100 100 100
6 20 46 5 5 5 19 78 99 100 100 100 100 100 100 100 100 100 66 4 26 62 30 5 14 27 6 23 5 5 2 2 4 5 4 5 3 53 99 100 100 100 99 100
12 69 100 72 80 4 5 79 92 54 8 1 5 6 55 89 100 100 100 100 91 5 3 0 1 5 5 5 77 19 5 5 4 4 4 5 5 5 6 82 100 93 98 100
2 5 21 40 54 59 92 25 5 5 5 5 17 5 5 5 6 11 7 3 60 5 0 0 0 0 0 3 5 5 5 20 63 100 98 94 56 5 76 100 100 96 63 100
5 5 62 8 78 80 100 100 100 84 56 24 5 5 5 63 18 8 5 10 78 100 68 71 96 6 5 41 66 85 78 98 60 76 100 98 9 10 90 100 100 74 98 100
12 82 100 95 55 34 98 75 100 100 100 100 93 19 5 6 22 18 24 11 81 100 100 94 98 100 100 88 94 88 100 64 62 72 99 100 100 94 100 100 100 100 100 100
69 64 11 34 69 91 65 98 78 88 98 100 100 99 100 93 51 9 5 5 5 9 21 80 100 100 100 100 100 100 100 99 94 100 100 100 100 100 100 100 92 100 100 100
40 8 6 73 98 87 58 88 100 100 98 97 100 68 56 88 98 100 100 87 58 8 5 71 100 100 100 100 100 100 100 100 100 100 100 100 100 100 100 98 97 100 100 100
5 7 15 37 10 8 94 56 100 100 100 100 100 83 68 74 78 73 100 100 100 99 67 97 82 89 100 100 100 100 100 100 100 100 100 100 100 100 100 100 93 100 100 100
77 97 95 98 94 99 14 100 98 67 100 100 100 100 100 100 90 100 100 100 95 100 99 96 94 95 68 78 99 100 98 100 100 100 100 100 100 100 100 100 100 100 100 100

GFSCGP_prec_cloud_087.txt.gz
Cloud_Cover
100 100 100 100 100 100 100 100 100 100 100 100 100 100 100 100 61 8 0 0 100 100 100 100 100 100 100 100 100 100 100 95 100 100 99 100 100 100 100 100 100 100 100 100
100 100 100 100 100 100 100 100 100 100 100 100 100 100 100 100 89 68 21 94 20 75 100 99 99 92 98 100 100 100 100 100 100 100 100 100 100 100 100 100 100 100 100 100
100 100 100 100 85 100 100 100 100 100 100 100 100 100 93 45 71 5 5 5 3 31 26 100 92 97 59 94 100 100 100 100 100 100 100 100 100 100 100 100 100 100 100 100
100 100 100 94 99 100 100 100 100 100 100 100 100 100 84 100 62 5 1 2 5 0 0 73 100 100 99 100 100 100 100 100 100 100 100 100 100 100 100 100 100 100 100 100
100 96 47 70 22 100 100 100 100 100 100 100 100 100 100 8 22 5 1 0 0 0 0 0 2 98 100 100 100 100 100 100 100 100 100 100 100 100 100 100 100 100 100 100
100 100 85 98 66 43 100 96 100 100 100 100 100 100 100 68 92 80 3 0 0 0 0 0 0 3 100 100 100 100 100 100 100 100 100 100 100 100 100 100 100 100 100 100
100 100 100 77 30 94 100 100 100 100 100 100 84 100 100 99 98 38 4 0 0 0 0 0 0 0 9 100 100 100 100 100 100 100 100 100 100 99 100 100 100 100 100 100
100 59 38 62 19 85 100 84 100 11 61 100 100 100 100 43 65 6 0 0 0 0 0 0 0 0 5 81 100 100 100 100 100 100 100 100 100 100 100 100 95 100 100 100
70 96 100 51 5 98 96 22 46 64 31 100 46 89 100 5 1 3 2 1 0 0 0 0 0 0 5 1 5 99 100 100 100 100 100 100 100 100 100 100 100 100 95 96
16 93 72 5 4 74 54 6 4 5 89 14 89 18 99 31 5 5 5 4 0 0 0 0 0 0 0 3 3 5 100 100 100 100 100 100 100 100 100 99 100 100 100 100
100 100 98 46 46 100 100 100 57 85 7 5 5 34 46 100 7 5 5 4 3 1 0 0 0 0 0 0 5 44 74 100 100 100 100 100 100 100 100 100 100 100 100 100
48 95 95 94 76 88 100 100 100 100 100 100 100 100 100 100 33 5 6 5 8 9 0 0 0 0 3 1 5 60 100 100 100 100 100 100 100 100 100 100 100 100 100 100
5 6 67 100 100 29 59 92 100 100 100 100 100 97 100 91 84 12 35 9 6 5 1 0 0 1 5 8 30 10 81 100 100 100 93 100 100 100 100 100 100 100 100 100
26 4 4 5 49 100 84 29 100 100 100 100 100 100 100 100 92 100 46 5 21 25 5 4 0 2 9 4 7 89 100 100 100 100 100 84 100 100 100 100 100 100 74 55
30 44 5 5 29 11 63 84 100 100 100 100 100 100 100 100 100 100 97 31 69 81 12 5 5 5 5 30 5 4 6 97 100 100 100 100 100 65 100 100 100 79 87 100
48 80 66 59 83 62 11 45 99 100 100 100 31 55 80 51 53 76 57 55 83 99 88 18 6 5 5 5 94 54 56 30 5 5 41 58 100 100 80 26 70 68 94 60
62 51 28 5 5 94 100 100 88 17 58 21 52 99 23 29 5 61 91 83 97 100 88 99 96 61 8 99 90 52 86 100 100 98 81 11 4 17 84 100 100 100 100 100
44 5 16 5 5 5 0 23 72 100 100 100 61 96 100 76 42 13 32 5 48 34 32 5 5 10 6 10 95 100 59 65 83 13 12 8 5 4 3 0 22 19 83 63
5 5 5 5 39 3 5 6 26 88 94 81 100 100 100 100 100 100 97 23 6 55 33 5 5 5 5 67 100 100 99 43 26 25 5 5 4 4 4 5 5 100 58 21
0 4 15 5 62 5 5 17 72 21 84 100 100 98 86 34 19 95 20 71 95 100 43 3 2 5 15 100 94 62 19 11 6 22 18 5 5 5 56 35 62 100 74 65
3 5 5 5 71 28 46 3 11 40 59 100 90 86 97 66 35 50 5 5 5 5 7 27 6 5 5 5 3 1 5 13 64 77 64 22 5 97 90 89 78 100 100 93
3 5 5 5 10 68 99 98 53 38 100 100 100 100 100 99 52 5 5 5 25 95 20 70 100 100 100 71 36 77 98 80 88 100 100 76 76 88 26 100 100 100 100 100
5 5 5 27 5 91 81 62 100 74 100 100 100 100 100 100 100 100 90 16 5 60 100 82 85 100 100 100 100 100 100 100 100 100 100 100 100 100 100 100 100 100 100 100
5 5 5 5 5 5 5 24 28 5 5 46 99 100 100 100 100 100 100 100 100 82 42 6 14 22 50 83 98 100 100 100 100 100 100 100 100 98 100 100 100 100 100 100
4 5 23 5 5 5 5 5 34 33 95 100 71 100 100 100 100 99 100 100 100 100 100 92 74 90 82 97 100 100 100 100 100 98 100 100 100 100 100 100 100 100 100 100
66 84 25 43 5 33 5 34 10 5 5 75 86 99 97 100 100 100 100 100 100 100 100 100 100 100 99 100 96 90 94 100 100 100 95 100 100 100 100 100 100 100 100 100

GFSCGP_prec_cloud_090.txt.gz
Cloud_Cover
100 100 95 100 100 78 100 100 100 91 73 100 100 98 100 100 70 8 38 100 100 90 47 81 100 100 100 100 100 100 100 100 96 100 100 100 100 100 100 100 100 100 100 100
100 100 100 100 100 93 100 100 100 100 100 100 100 100 100 54 86 92 55 10 100 100 100 100 100 100 100 100 100 100 100 92 100 100 100 100 100 100 100 100 100 100 100 100
99 100 100 100 100 67 100 100 100 100 100 100 100 98 89 100 100 60 5 34 34 100 100 96 100 92 100 100 100 100 100 100 100 100 97 100 83 100 100 100 100 100 100 100
100 100 100 100 58 74 100 70 100 100 100 100 100 100 100 94 100 16 90 9 0 21 100 100 100 96 95 76 100 100 100 100 100 100 100 95 53 62 97 100 100 100 100 100
100 72 92 100 100 59 100 100 100 100 100 100 100 100 100 99 100 100 2 3 4 2 0 100 100 100 100 100 100 100 100 100 84 98 100 100 100 100 100 100 100 100 100 100
100 96 85 35 28 100 100 100 100 100 100 100 100 100 100 100 100 94 33 42 13 66 5 85 100 100 100 100 100 100 100 100 100 100 100 100 100 100 100 100 100 100 100 100
73 99 87 29 38 100 100 100 100 100 100 91 100 100 100 100 62 40 74 38 5 5 4 2 70 100 100 75 100 100 100 95 100 100 100 100 100 100 100 100 100 100 100 100
100 100 100 100 79 100 100 100 100 100 100 100 100 89 88 100 100 100 98 97 5 5 5 5 0 0 0 1 16 7 100 100 100 100 100 100 100 100 100 100 100 100 100 100
76 57 98 100 95 100 100 100 100 100 58 100 100 100 100 100 100 100 99 86 98 7 5 0 0 0 0 0 0 3 5 12 93 100 100 100 100 100 100 100 100 100 99 100
25 69 5 56 98 87 100 100 100 100 100 62 88 67 51 43 99 100 100 100 100 92 5 0 0 0 0 0 0 0 0 3 47 96 100 99 100 100 100 100 100 100 100 100
37 48 45 75 6 14 63 96 85 90 100 94 52 100 100 100 100 100 100 72 13 7 6 2 0 0 0 0 0 0 0 5 42 7 86 100 100 100 100 100 100 100 100 100
5 5 33 78 27 99 100 66 12 5 34 5 32 94 100 90 94 17 22 70 6 5 5 2 0 0 0 0 0 0 0 0 32 100 100 100 97 100 100 100 100 100 100 100
4 5 59 67 31 66 100 100 91 61 6 5 31 46 46 60 80 84 70 61 28 16 5 5 5 9 3 0 0 0 0 0 5 100 100 100 94 100 100 100 100 100 100 100
2 5 4 5 5 6 5 96 100 100 100 100 94 100 100 99 87 68 67 67 64 15 5 69 100 100 35 4 0 0 0 0 0 25 100 99 100 100 96 100 84 100 100 100
5 4 5 5 5 5 5 5 45 100 100 100 100 100 100 100 100 100 100 99 18 22 44 100 100 100 27 5 0 0 0 0 0 0 4 25 100 100 100 100 100 91 98 80
5 5 3 4 0 0 2 5 7 54 26 100 100 100 100 100 100 100 100 99 52 42 100 17 23 57 5 5 1 0 0 0 0 5 4 4 59 78 100 100 74 95 100 100
5 5 5 5 5 4 45 37 6 5 98 99 100 100 100 100 100 100 100 100 100 45 8 12 100 100 32 57 5 5 4 5 4 5 8 5 5 5 77 90 88 95 72 75
5 5 5 5 5 5 0 0 11 63 10 5 24 88 100 85 60 18 40 38 13 32 100 100 100 100 100 100 100 100 76 5 5 43 26 30 36 29 34 7 5 5 5 5
5 5 5 5 5 0 0 0 0 0 1 1 5 7 89 100 84 94 50 5 17 5 37 100 100 100 100 100 52 36 8 5 5 16 13 21 10 5 5 5 5 5 5 7
5 7 64 5 5 4 0 0 0 5 5 5 4 5 5 59 99 100 97 33 13 13 22 14 32 79 100 100 100 90 38 5 5 14 64 41 5 6 39 5 5 5 82 82
4 5 5 6 82 4 0 0 0 3 4 5 21 17 5 19 8 13 84 85 85 50 6 6 46 5 30 5 5 16 5 13 79 82 63 98 92 33 98 7 5 10 100 100
2 5 5 5 5 44 5 5 19 5 5 5 21 66 100 95 92 100 100 100 58 13 9 5 5 42 5 5 5 99 87 62 69 80 77 100 100 93 92 71 67 91 100 100
3 4 4 4 5 5 5 5 5 5 5 5 5 5 46 46 100 100 100 100 100 100 91 14 28 65 100 70 18 86 100 100 100 100 100 100 100 100 91 100 100 100 100 100
0 4 5 5 4 5 5 5 5 54 78 81 93 93 98 91 100 98 100 100 100 100 100 99 31 33 68 72 100 92 100 100 100 100 100 100 100 100 100 100 100 100 100 100
5 4 5 5 5 5 5 5 5 4 4 4 8 44 94 100 100 100 73 100 100 100 100 100 100 73 91 84 87 99 100 100 100 100 100 100 100 100 100 100 100 100 100 100
5 5 4 5 4 3 24 7 16 94 98 24 68 69 98 100 100 100 99 97 100 100 100 100 100 100 100 100 100 100 100 100 100 99 99 100 100 100 93 100 100 100 100 100

GFSCGP_prec_cloud_093.txt.gz
Cloud_Cover
100 100 100 100 100 64 3 86 100 100 100 100 100 100 100 100 5 2 100 100 100 100 100 100 100 100 100 100 100 100 100 100 100 100 100 100 100 100 100 100 100 100 100 100
100 100 100 100 100 27 5 97 100 100 100 100 100 100 100 97 13 5 34 100 100 100 100 100 100 100 100 100 100 100 100 100 100 100 100 100 100 100 100 100 100 100 100 100
100 100 77 34 98 100 5 26 95 100 100 100 100 100 95 99 97 7 5 43 100 99 100 100 100 100 100 100 100 100 100 100 100 100 100 100 100 100 100 99 100 100 100 100
99 100 100 100 100 12 0 61 100 100 100 100 100 100 100 100 100 9 5 5 43 100 95 100 100 100 100 100 100 100 100 100 100 100 100 100 100 98 96 100 100 100 100 100
100 100 100 100 14 58 40 76 92 100 97 100 100 100 100 77 100 28 7 6 4 62 100 100 100 100 100 100 100 100 87 100 100 100 100 99 100 95 100 100 100 100 100 100
100 100 100 97 100 95 100 100 100 100 100 100 100 100 100 84 100 100 20 56 41 5 3 100 100 100 100 100 100 100 100 100 100 100 100 100 100 100 100 100 100 100 100 100
94 95 100 82 63 71 100 100 100 100 100 82 100 100 100 100 99 57 96 19 5 4 0 0 95 100 100 100 100 100 100 100 100 100 100 100 100 100 100 100 100 100 100 100
100 95 99 100 99 100 100 100 100 100 99 100 100 100 100 97 100 99 21 97 46 3 3 0 0 25 100 100 100 100 100 100 100 100 100 100 100 100 100 100 100 100 100 100
62 94 99 80 33 100 96 98 100 100 100 96 100 100 76 100 100 100 88 100 100 100 97 7 41 5 0 21 96 100 100 96 98 92 100 100 100 100 100 100 100 100 100 100
6 66 67 73 98 89 94 100 100 100 100 100 100 90 100 100 100 100 93 45 72 89 82 59 5 2 4 0 0 1 82 100 100 100 100 100 100 100 100 100 100 100 100 100
6 4 65 35 34 28 25 81 22 36 87 63 11 57 100 100 100 100 100 100 95 81 89 75 60 8 8 28 2 0 0 21 99 100 100 100 100 100 100 100 100 100 100 100
0 5 22 14 89 100 97 95 64 100 83 52 100 62 100 100 100 100 100 100 100 100 98 66 11 2 42 54 5 1 0 0 0 0 5 80 100 100 100 100 100 100 100 100
0 4 5 5 3 12 71 6 5 5 8 5 5 46 100 100 96 100 100 100 100 100 100 100 100 56 5 0 0 0 0 0 0 0 0 4 76 100 100 100 100 26 99 100
0 3 0 5 1 1 4 8 5 9 30 98 90 45 7 63 26 21 8 81 21 46 79 99 81 39 21 4 0 0 0 0 0 0 0 1 50 100 99 91 90 100 98 88
3 4 5 5 5 5 2 5 4 5 6 5 97 56 100 96 32 6 5 5 71 88 88 95 98 88 94 53 5 0 0 0 0 0 0 0 0 12 100 100 75 64 100 100
5 5 2 4 0 0 0 0 0 1 5 64 59 97 100 91 7 36 100 100 98 100 100 100 98 99 71 2 5 5 50 17 5 0 0 0 0 0 0 3 57 65 65 45
5 5 5 5 4 0 1 0 0 0 0 4 20 89 100 100 100 100 100 100 100 100 100 70 93 100 100 77 46 90 94 80 7 5 0 0 0 0 0 0 0 5 5 13
5 4 4 5 2 2 0 0 0 0 0 0 4 25 93 80 99 100 100 100 100 100 100 100 100 100 99 59 5 8 21 50 54 24 5 3 0 0 0 1 5 5 5 4
5 5 5 5 5 4 0 2 0 0 0 0 0 0 15 46 79 48 78 100 100 100 100 100 100 100 100 100 90 9 5 5 95 99 100 93 97 4 0 3 5 17 5 6
5 5 27 5 5 4 0 0 3 0 0 0 3 1 0 0 5 50 58 26 35 96 100 100 100 100 100 100 100 100 94 85 100 100 100 100 95 9 5 5 5 5 8 81
5 5 5 79 77 2 0 0 14 5 0 0 2 1 0 5 4 1 12 28 79 74 61 87 95 77 79 94 100 100 100 100 100 94 36 20 5 18 38 35 63 12 63 66
3 12 6 5 5 46 5 5 5 17 5 4 4 5 42 10 5 5 5 85 100 94 84 67 94 100 98 100 99 97 96 81 76 85 92 99 52 68 66 61 55 44 46 87
5 5 5 3 2 5 5 5 33 8 5 5 6 42 100 99 27 83 69 25 11 100 100 100 96 53 52 96 99 100 99 38 53 96 100 100 97 94 88 60 61 91 95 97
5 5 5 0 5 3 5 5 25 24 27 6 86 100 100 91 29 5 4 15 72 67 91 100 100 100 100 95 46 46 94 100 90 67 100 100 100 100 100 100 100 100 100 87
10 13 5 2 4 5 6 5 65 49 10 12 95 100 100 100 100 100 61 88 58 87 100 96 100 100 100 100 99 75 81 82 42 83 100 100 100 100 100 100 97 100 100 100
8 5 5 5 5 4 5 5 8 25 17 100 100 100 100 100 100 100 80 100 96 56 100 100 100 100 100 100 100 100 100 100 100 100 100 100 100 100 100 100 100 100 100 100

GFSCGP_prec_cloud_096.txt.gz
Cloud_Cover
100 100 100 100 82 72 87 5 14 100 100 100 100 100 100 100 100 100 100 100 100 100 100 100 100 100 100 100 100 100 100 100 100 100 100 100 100 100 100 84 27 84 100 97
100 100 100 100 100 93 49 10 86 100 100 100 100 100 100 94 72 100 100 100 100 100 100 100 100 100 100 100 100 100 100 100 100 100 100 100 100 100 100 100 100 100 94 95
100 100 94 100 100 100 14 56 91 100 100 100 100 100 100 100 21 100 100 100 100 100 100 100 100 100 100 100 100 100 100 100 100 100 100 100 100 100 100 100 100 88 83 100
100 97 100 100 100 93 9 26 100 100 100 100 100 100 100 100 99 98 100 100 100 100 100 100 100 100 100 100 100 100 100 100 100 100 100 100 100 100 100 100 100 100 100 100
100 100 100 100 73 16 100 100 100 100 100 100 100 100 100 84 95 57 100 100 100 100 100 100 100 100 100 100 100 100 100 100 100 100 100 100 100 100 100 100 100 100 100 100
100 100 100 98 51 26 100 100 100 100 100 100 100 98 100 98 100 100 97 100 100 100 100 100 100 100 100 100 100 100 100 100 100 100 100 100 100 100 100 100 100 100 100 100
97 98 92 73 21 38 98 100 97 100 100 100 100 100 100 100 100 100 100 99 100 100 100 100 100 100 100 100 100 100 100 100 64 100 100 100 100 100 100 100 100 100 100 100
26 100 98 98 64 100 71 10 9 100 100 100 95 100 100 100 100 100 59 70 9 50 100 100 100 100 100 100 100 100 100 100 100 100 100 100 100 100 100 100 100 100 100 100
79 100 100 100 64 100 100 86 100 100 100 100 100 100 99 100 100 100 100 100 45 40 55 99 100 100 100 100 100 100 100 100 100 100 100 100 100 100 100 96 100 100 100 100
18 100 100 97 98 98 100 86 94 100 100 100 100 100 100 100 100 98 88 100 95 76 5 0 87 100 90 87 100 100 100 100 100 100 100 100 100 100 100 100 100 100 100 100
0 8 88 11 100 98 96 100 5 92 98 100 100 100 100 100 100 100 100 100 100 99 5 5 4 15 91 100 92 100 100 100 100 100 100 100 100 100 100 100 100 100 100 100
4 5 77 74 52 100 5 7 87 6 100 98 81 33 100 100 100 100 100 97 85 38 68 8 70 64 69 87 88 100 100 98 100 100 100 100 100 100 100 100 100 100 100 100
0 5 5 12 5 4 2 12 20 23 5 8 10 5 36 94 26 6 65 100 94 65 16 29 100 65 100 100 54 5 5 65 84 96 90 96 83 100 100 100 100 100 98 68
0 3 0 5 2 1 0 0 1 2 5 5 4 4 2 7 62 96 60 100 82 100 98 44 99 100 51 9 5 3 0 0 0 0 0 2 26 23 48 69 69 98 86 100
0 5 5 4 5 4 1 2 0 0 0 5 5 4 0 29 26 82 100 100 100 100 100 100 100 100 100 74 5 26 7 5 2 5 3 1 1 1 0 0 2 5 7 69
0 5 2 4 0 0 1 1 0 0 0 0 0 2 1 5 4 2 5 52 26 100 100 100 100 100 99 100 96 42 32 31 5 5 5 3 0 0 2 0 0 6 60 38
0 4 5 5 4 4 0 5 0 0 0 0 0 0 0 0 3 6 8 9 12 44 99 99 100 100 100 100 100 94 20 5 39 22 8 5 5 3 0 0 0 0 15 6
0 2 5 5 1 0 5 1 3 5 3 0 0 0 0 0 0 2 74 100 100 94 98 100 100 100 100 100 100 100 100 99 68 47 85 41 5 5 1 0 0 0 0 0
5 0 5 5 5 5 5 5 2 0 0 4 3 4 0 0 0 0 0 4 94 100 100 100 100 100 100 100 100 100 100 100 100 100 84 56 48 5 1 0 2 4 5 7
5 5 4 5 5 5 5 2 0 3 5 5 5 5 2 0 1 0 0 0 0 0 73 100 100 100 100 100 100 100 100 100 100 100 99 17 5 5 5 5 5 92 100 100
13 5 5 5 29 6 5 4 0 2 5 2 0 3 7 32 10 5 5 5 5 5 5 5 39 100 100 100 100 100 100 100 100 54 62 26 5 5 5 16 69 91 100 100
5 13 6 5 23 36 2 5 3 5 5 25 5 28 100 91 100 62 5 68 4 2 2 5 5 30 100 100 100 100 100 100 100 100 99 38 5 5 55 83 100 100 100 95
3 1 4 2 4 0 5 5 4 5 17 5 31 84 87 99 100 25 5 6 64 44 4 0 0 5 100 100 100 100 100 100 100 100 100 100 100 100 94 94 85 73 78 26
0 0 0 0 3 0 5 5 5 5 5 5 5 89 11 17 84 100 100 100 100 100 11 43 38 7 7 99 100 100 100 100 100 100 100 100 100 100 98 100 100 84 100 88
0 0 0 2 0 0 1 4 5 5 5 5 5 40 84 90 53 77 90 100 100 100 100 100 100 82 97 65 93 100 100 100 100 100 100 100 100 100 100 98 100 100 100 97
1 0 5 5 0 0 0 4 5 5 5 58 100 100 84 100 100 100 100 100 100 100 100 100 100 100 100 100 100 100 100 100 100 100 100 99 100 100 100 100 100 100 100 100

GFSCGP_prec_cloud_099.txt.gz
Cloud_Cover
99 100 100 100 90 98 100 5 5 3 5 100 100 100 100 100 100 100 100 100 100 100 100 100 100 100 100 100 100 100 100 100 100 100 100 100 100 100 100 100 100 98 86 88
100 100 99 100 8 81 100 26 13 38 100 100 100 100 100 100 100 100 100 100 100 100 100 100 100 100 100 100 100 100 100 100 100 100 100 100 100 100 100 88 89 65 98 84
100 100 100 100 96 100 100 69 100 100 100 100 97 100 100 100 100 100 100 100 100 100 100 100 100 100 100 100 100 100 100 100 100 100 100 100 100 100 100 100 100 100 100 100
100 100 100 100 68 94 97 100 100 100 100 100 100 100 100 93 100 100 100 100 100 100 100 100 100 100 100 100 100 100 100 100 100 100 100 100 100 100 100 100 100 100 100 100
100 100 100 100 81 63 100 100 100 100 100 100 100 100 100 100 100 100 100 100 100 100 100 100 100 100 100 100 100 100 100 100 100 100 100 100 100 100 100 100 100 100 100 100
100 100 99 98 17 25 99 100 100 100 100 100 100 100 100 100 100 100 100 100 100 100 100 100 100 100 100 100 100 100 100 100 100 100 100 100 100 100 100 100 100 100 100 100
100 100 100 99 99 78 100 100 100 100 100 100 100 100 100 100 100 100 100 46 100 100 100 100 100 100 100 100 100 100 100 100 91 89 100 100 100 100 100 100 100 100 100 100
100 100 100 80 64 88 100 89 100 100 100 100 100 100 100 100 100 98 100 100 100 100 100 100 100 100 100 100 100 100 100 100 100 100 99 100 100 100 100 100 100 100 100 100
99 100 100 100 90 22 64 5 99 100 100 100 100 100 99 100 100 93 100 100 100 42 100 100 100 100 100 100 100 100 100 100 100 100 100 100 100 100 100 100 100 100 100 100
61 100 100 100 100 32 90 63 93 100 83 17 100 82 52 94 100 99 100 100 100 100 77 100 100 100 100 100 100 100 100 100 100 100 100 100 100 88 100 100 100 100 100 100
6 81 99 98 100 80 100 58 95 100 93 16 26 22 5 9 100 100 92 100 100 100 100 96 49 100 100 100 100 100 100 100 100 100 100 100 100 100 100 100 100 100 100 100
5 5 90 70 100 100 42 6 6 10 61 5 53 34 44 72 100 100 100 98 94 33 100 100 100 89 90 100 100 100 100 100 100 100 100 100 100 100 100 100 100 100 100 100
0 5 21 24 5 5 73 5 5 25 27 97 98 6 3 100 6 5 9 97 22 9 12 94 100 100 100 100 71 100 100 100 100 100 97 78 100 100 100 100 100 100 100 100
0 4 0 4 3 4 1 0 0 0 5 20 6 9 3 33 7 40 5 5 25 17 7 61 100 100 100 100 100 100 92 79 97 100 100 100 100 100 100 100 100 82 81 100
0 5 4 5 0 0 5 4 0 2 0 4 0 0 3 7 77 13 5 7 60 52 45 5 5 5 9 45 99 100 100 100 100 100 98 100 100 90 99 100 100 100 100 100
0 4 2 5 0 0 0 0 0 0 0 0 0 0 0 0 0 0 0 0 0 42 33 70 85 19 4 3 5 5 19 59 99 100 100 100 100 100 100 93 100 100 100 100
0 4 5 5 3 0 0 0 0 0 0 0 0 0 0 0 0 0 0 0 0 5 5 85 100 100 100 100 100 95 47 8 8 46 5 13 75 100 100 100 100 100 100 100
0 5 5 5 2 1 5 0 0 0 0 0 0 0 0 0 0 0 0 0 0 0 0 0 62 100 100 100 100 100 100 100 100 99 74 32 5 6 5 5 30 16 43 61
0 5 5 5 4 4 5 1 0 0 0 0 0 0 0 0 0 0 0 0 0 0 0 0 0 0 22 32 27 13 80 100 100 100 100 100 99 39 26 5 5 5 5 0
3 1 2 5 4 0 5 2 4 0 0 0 0 0 0 0 3 0 0 0 0 0 0 0 0 0 0 1 91 85 100 100 100 100 100 100 100 100 100 100 99 10 36 77
5 5 5 5 5 3 2 0 0 1 0 0 0 1 5 32 3 3 3 2 4 0 2 0 0 0 0 0 0 26 100 100 100 100 100 100 100 99 97 100 100 100 100 100
4 12 5 5 16 14 0 0 0 2 4 0 6 5 10 5 5 5 5 5 5 5 5 5 5 5 0 0 4 0 3 99 100 100 100 100 100 100 100 100 100 100 100 100
4 1 4 2 2 2 2 0 0 4 5 5 10 5 5 21 7 27 62 86 39 47 58 50 51 8 5 4 2 2 4 4 100 100 100 100 100 100 100 100 100 100 100 89
5 5 5 2 0 5 5 5 5 5 5 5 5 8 6 21 93 100 100 100 100 100 100 100 100 100 100 100 11 5 90 5 30 100 100 100 100 100 100 100 100 100 97 84
5 5 5 5 5 5 5 5 3 5 5 5 5 6 44 100 63 85 59 46 79 99 100 100 100 100 100 100 100 50 100 68 33 100 100 100 100 100 100 100 100 100 100 100
4 3 5 5 4 4 5 5 5 5 5 5 5 5 5 28 20 62 99 100 100 100 100 100 100 100 100 100 100 100 99 98 88 53 100 100 100 100 100 100 100 100 100 100

GFSCGP_prec_cloud_102.txt.gz
Cloud_Cover
97 100 100 93 89 100 100 99 96 92 45 5 9 100 100 100 100 100 100 100 100 100 100 100 100 100 100 100 100 100 100 100 100 100 100 100 100 100 100 100 100 100 100 100
100 100 100 98 100 100 100 99 99 100 35 23 100 100 100 100 100 100 100 100 100 100 100 100 100 100 100 100 100 100 100 100 100 100 100 100 100 100 100 100 100 100 100 97
100 100 100 100 100 100 59 90 98 100 74 81 100 100 100 100 100 100 100 100 100 100 100 100 100 100 100 100 100 100 100 100 100 100 100 100 100 100 100 100 100 100 100 100
100 99 100 100 100 47 100 57 100 100 7 100 100 100 100 100 100 71 68 100 100 100 100 100 100 100 100 100 100 100 100 100 100 100 100 100 100 100 100 100 100 100 100 100
100 100 100 98 99 52 100 71 98 99 96 91 100 100 100 100 100 100 100 100 100 100 100 100 100 100 100 100 100 100 100 100 100 100 100 100 100 100 100 100 100 100 100 100
100 100 100 86 94 100 100 100 100 100 100 100 100 100 100 100 100 100 100 100 100 100 100 100 100 100 100 100 100 100 100 100 100 100 100 100 100 100 100 100 100 100 100 100
100 100 99 63 100 100 100 100 100 100 100 100 100 100 100 100 100 100 100 100 100 100 100 100 100 100 100 100 100 100 100 100 100 100 100 100 100 100 100 100 100 100 100 100
94 96 100 100 95 100 100 100 100 100 100 100 100 100 100 100 99 96 100 100 100 100 100 100 100 100 100 100 100 100 100 100 100 100 100 100 100 100 100 100 100 100 100 100
98 100 100 74 28 99 99 100 100 100 100 100 100 100 100 100 100 100 100 100 100 100 100 100 100 100 100 100 100 100 100 100 100 100 100 100 100 100 100 100 100 100 100 100
78 100 100 100 13 41 100 100 100 99 100 100 100 100 100 100 99 100 100 100 100 100 100 100 100 100 100 100 100 100 100 100 100 100 100 100 100 100 100 100 100 100 100 100
97 100 100 37 47 98 100 100 97 39 26 100 98 95 100 100 100 100 100 100 100 100 100 100 100 100 100 100 100 100 100 100 100 100 100 100 100 100 100 100 100 100 100 100
8 79 98 100 90 87 93 31 99 5 4 68 6 10 0 3 79 79 100 100 100 100 100 100 100 100 100 100 100 100 100 100 100 100 100 100 100 100 100 100 100 100 100 100
4 52 36 83 88 95 100 100 6 2 9 0 2 3 0 0 0 3 4 4 73 82 77 100 100 100 100 100 100 100 100 100 100 100 100 100 100 100 100 100 100 100 100 100
0 4 3 0 5 4 74 51 4 4 4 70 84 71 49 5 4 1 1 21 3 0 0 6 76 100 100 100 100 100 100 100 100 100 100 100 100 100 100 100 100 100 100 100
1 5 5 5 2 3 5 5 4 77 52 15 5 6 5 9 57 6 3 2 40 100 88 32 12 54 100 100 66 67 100 100 100 100 100 100 100 100 100 100 100 100 100 100
0 4 1 4 0 0 0 0 0 0 2 2 5 3 0 0 0 0 0 1 10 5 1 0 12 85 5 6 92 100 100 100 100 67 80 48 91 100 100 100 100 100 100 100
0 0 0 4 0 0 0 0 0 0 0 0 0 0 0 0 0 0 0 0 0 0 0 0 0 0 0 4 91 98 14 41 87 97 99 100 100 97 99 100 100 100 100 100
0 0 2 0 0 0 0 0 0 0 0 0 0 0 0 0 0 0 0 0 0 0 0 0 0 0 0 0 0 0 6 79 76 18 51 47 90 100 100 100 100 100 100 100
0 0 0 0 0 0 0 0 0 0 0 0 0 0 0 0 0 0 0 0 0 0 0 0 0 1 0 0 0 0 0 0 0 10 100 100 96 16 53 83 86 100 100 100
0 0 5 0 3 0 0 0 0 0 1 2 0 1 0 0 0 0 0 0 0 0 3 5 5 5 4 0 0 0 0 0 0 0 8 98 100 100 99 99 100 100 100 100
4 2 1 2 0 2 0 0 0 4 4 0 0 2 0 0 4 0 0 1 2 5 5 2 5 5 5 13 18 6 2 0 5 0 0 0 65 100 100 100 94 100 100 100
3 4 5 4 3 4 4 1 4 0 0 2 0 0 5 0 1 4 5 5 5 6 52 85 96 96 76 78 93 77 18 71 10 18 5 3 0 21 100 100 100 100 100 100
5 0 5 5 5 5 5 13 5 4 0 2 0 0 0 5 5 4 5 5 5 16 65 93 100 100 100 100 100 100 95 100 74 81 64 24 10 53 66 100 100 100 100 100
5 5 5 3 5 4 4 5 5 5 0 0 0 3 5 2 5 5 5 5 16 57 100 100 100 100 100 100 97 100 99 100 100 100 49 100 56 100 100 100 100 100 100 100
5 4 5 5 5 4 4 5 5 5 4 5 5 5 5 5 5 5 25 90 100 100 100 100 100 100 100 100 100 100 100 100 100 100 92 100 100 100 100 100 100 100 100 100
33 5 5 5 5 5 5 5 5 1 5 5 5 5 5 5 5 33 99 100 100 100 100 92 100 100 100 100 100 100 100 100 100 100 100 100 100 100 100 100 100 100 100 100

GFSCGP_prec_cloud_105.txt.gz
Cloud_Cover
100 96 77 99 99 94 94 66 99 100 27 99 41 56 66 5 10 100 57 100 65 100 100 100 100 100 100 100 100 100 100 100 100 100 100 100 100 100 93 100 100 100 100 100
100 100 90 98 72 97 94 10 9 74 100 99 100 47 5 3 74 99 100 100 77 100 100 100 100 100 100 100 100 100 100 100 100 100 100 100 100 100 100 100 100 100 100 100
100 99 72 100 38 66 22 78 100 100 100 100 83 55 5 13 100 100 100 100 96 100 100 100 100 100 100 100 100 100 100 100 100 100 100 100 100 100 100 100 100 100 100 100
100 99 100 100 49 70 100 100 100 100 96 81 7 43 62 100 100 100 100 100 82 100 100 100 100 100 100 100 100 100 100 100 100 100 100 100 100 100 100 100 100 100 100 100
98 100 100 100 76 85 57 99 100 100 100 60 40 100 100 100 100 100 100 100 100 100 100 100 100 100 100 100 100 100 100 100 100 100 100 100 100 100 100 100 100 100 100 100
100 98 100 100 98 100 100 100 100 100 100 100 100 100 100 100 100 100 100 100 100 100 100 100 100 100 100 100 100 100 100 100 100 100 100 100 100 100 100 100 100 100 100 100
100 100 100 100 100 100 100 100 100 100 100 100 100 100 100 100 100 100 100 100 100 100 100 100 100 100 100 100 100 100 100 100 100 100 100 100 100 100 100 100 100 100 100 100
100 93 100 100 100 100 100 99 100 100 100 100 100 100 100 100 100 100 100 100 100 100 100 100 100 100 100 100 100 100 100 100 100 100 100 100 100 100 100 100 100 100 100 100
100 98 96 72 100 100 100 100 100 100 100 100 100 100 100 100 100 100 100 100 100 100 100 100 100 100 100 100 100 100 100 100 100 100 100 100 100 100 100 100 100 100 100 100
65 92 44 100 100 100 100 100 100 100 100 100 100 100 100 100 100 100 100 100 100 100 100 100 100 100 100 100 100 100 100 100 100 100 100 100 100 100 100 100 100 100 100 100
100 38 30 94 100 100 100 100 100 100 51 100 100 100 100 100 100 100 100 100 100 100 100 100 100 100 100 100 100 100 100 100 100 100 100 100 100 100 100 100 100 100 100 100
89 92 54 100 100 100 13 13 19 7 10 100 100 99 100 100 100 100 100 100 100 100 100 100 100 100 100 100 100 100 100 100 100 100 100 100 100 100 100 100 100 100 100 100
100 21 99 98 67 17 4 5 5 5 68 54 24 89 99 89 100 93 100 100 100 100 100 100 100 100 100 100 100 100 100 100 100 100 51 100 100 100 100 77 100 100 100 100
14 39 17 100 44 16 5 5 68 84 100 100 100 80 96 5 3 51 65 100 100 100 100 100 88 100 100 100 100 100 100 100 100 100 100 100 100 100 100 100 100 100 100 100
5 5 5 5 5 15 5 14 26 23 48 21 80 24 7 24 25 17 97 100 100 100 100 98 93 100 100 100 100 100 100 100 100 100 100 100 100 100 100 100 100 100 100 100
0 4 0 0 0 0 0 0 0 0 3 4 3 2 0 1 2 0 100 100 100 100 100 100 99 100 100 92 97 91 100 100 100 100 100 100 100 100 100 100 100 100 100 100
0 0 4 3 0 0 1 0 0 0 0 1 5 2 0 0 0 0 0 3 24 96 97 89 60 99 84 25 19 11 100 100 100 100 100 100 100 96 100 100 100 100 100 100
0 0 0 0 0 0 0 0 0 0 0 0 0 0 0 0 0 0 0 0 0 0 21 100 100 100 100 100 100 100 99 80 96 83 95 100 100 100 98 78 100 100 100 100
0 0 0 0 4 1 0 0 0 0 0 0 0 0 0 0 0 0 0 0 0 0 0 0 0 1 12 15 34 44 100 100 100 98 48 67 28 49 94 100 100 100 99 98
0 4 2 2 0 0 0 0 0 0 0 0 0 0 0 0 0 0 0 0 0 0 0 2 5 1 5 5 5 5 9 23 5 5 4 43 6 2 3 11 52 94 100 100
5 5 4 5 5 5 5 1 0 4 0 0 0 0 0 0 0 0 0 0 0 0 0 0 4 5 5 5 44 71 54 10 42 96 12 4 0 3 5 3 10 2 8 99
5 5 5 5 4 0 1 0 5 4 0 0 0 0 0 0 0 0 0 0 2 5 5 5 12 38 5 67 100 100 100 100 100 99 24 14 4 7 33 76 28 100 74 39
5 5 5 5 5 0 4 5 5 4 0 5 3 4 4 0 0 0 0 5 5 5 28 48 88 100 98 100 100 100 100 100 100 100 90 51 94 100 56 99 66 100 100 100
7 5 6 5 5 5 5 5 5 5 1 5 5 0 0 0 0 1 0 5 5 5 33 79 92 92 100 100 100 100 100 100 100 100 100 100 100 100 100 100 100 100 100 100
29 20 18 38 76 50 52 5 5 5 5 5 5 5 5 0 0 0 0 5 5 5 51 96 100 100 100 100 100 100 100 100 100 100 100 100 100 100 100 100 100 100 100 100
82 43 65 74 71 49 31 5 5 5 5 5 5 5 5 0 4 1 0 3 5 5 37 100 100 100 100 100 100 100 100 100 100 100 100 100 100 100 100 89 100 100 100 100

GFSCGP_prec_cloud_108.txt.gz
Cloud_Cover
100 96 81 95 37 72 98 100 94 5 68 100 19 85 1 100 59 0 0 0 0 0 7 94 93 100 100 100 100 100 100 100 100 100 100 100 100 100 100 100 100 100 100 100
100 90 83 78 100 100 74 56 39 78 11 53 6 100 16 80 100 4 3 0 0 0 99 66 100 100 100 100 100 100 100 100 100 100 100 100 100 100 100 100 100 100 100 100
100 94 60 79 77 91 100 94 16 22 84 68 90 100 28 95 100 18 2 0 62 95 88 100 100 100 100 100 100 100 100 100 100 100 100 100 100 100 100 100 100 100 100 100
100 90 95 100 100 65 98 100 100 90 100 97 91 9 80 81 67 12 1 83 70 100 99 99 100 100 100 100 100 100 100 100 100 100 100 100 100 100 100 100 100 100 100 100
100 100 99 100 51 95 98 100 100 88 100 100 100 100 100 77 84 10 84 100 74 96 100 100 100 100 100 100 100 100 100 100 100 100 100 100 100 100 100 100 100 100 100 100
100 100 100 100 92 100 100 100 100 100 100 100 100 100 100 100 100 100 100 94 78 99 100 100 100 100 100 100 100 100 100 100 100 100 100 100 100 100 100 100 100 100 100 100
100 98 100 99 100 100 100 100 100 100 100 100 100 100 100 100 100 100 100 100 100 100 100 100 100 100 100 100 100 100 100 100 100 100 100 100 100 100 100 100 100 100 100 100
92 89 32 91 100 100 100 100 100 100 100 100 100 100 100 100 100 100 100 100 100 100 100 100 100 100 100 100 100 100 100 100 100 100 100 100 100 100 100 100 100 100 100 100
100 74 47 100 100 100 100 100 100 100 100 99 100 100 100 100 100 100 100 100 100 100 100 100 100 100 100 100 100 100 100 100 100 100 100 100 100 100 100 100 100 100 100 100
100 100 100 100 100 100 100 97 100 100 100 100 100 100 100 100 100 100 100 100 100 100 100 100 100 100 100 100 100 100 100 100 100 100 100 100 100 100 100 100 100 100 100 100
100 100 100 100 100 100 100 100 97 100 100 100 98 100 100 100 100 100 100 100 100 100 100 100 100 100 100 100 100 100 100 100 100 100 100 100 100 100 100 100 100 100 100 100
98 90 33 100 100 100 5 83 100 100 99 99 100 100 100 100 100 100 100 100 100 100 100 100 100 100 100 100 100 100 100 100 100 100 100 100 100 100 100 100 100 100 100 100
44 37 35 26 70 47 77 81 94 100 100 100 100 100 100 100 100 100 100 100 100 100 100 100 100 100 100 100 100 100 100 100 100 100 100 100 100 100 100 100 100 100 100 100
33 100 87 31 36 64 98 96 96 100 98 100 38 66 100 100 90 100 100 100 100 100 100 100 100 100 100 100 100 100 100 100 100 100 100 100 100 100 100 100 100 100 100 100
5 10 6 5 5 4 19 50 10 13 0 2 32 5 3 1 2 96 100 100 100 100 100 100 100 100 100 100 100 100 100 100 100 100 100 100 100 100 100 100 100 100 100 100
0 0 0 0 0 0 0 0 0 0 5 3 0 1 0 0 0 5 100 100 100 100 100 100 100 100 97 100 100 100 100 100 100 100 100 100 100 100 100 100 100 100 100 100
0 0 2 2 0 0 1 0 0 0 0 1 2 0 0 0 0 97 68 100 100 100 100 100 100 100 100 99 100 100 100 100 100 100 100 100 100 100 100 100 100 100 100 100
0 0 0 3 0 0 0 0 0 0 0 0 0 0 0 0 0 24 84 100 100 100 100 100 100 100 100 100 100 100 100 100 100 100 100 100 100 100 100 100 83 100 98 100
0 0 0 2 0 0 0 0 0 0 0 0 0 0 0 0 0 0 0 58 100 100 100 100 100 100 100 100 100 100 100 100 100 100 94 100 100 100 91 100 100 100 98 100
0 0 0 0 0 0 0 0 0 0 0 0 0 0 0 0 0 0 0 0 0 0 3 47 99 100 100 100 100 100 100 100 98 39 57 55 7 16 4 22 98 97 58 98
0 0 1 0 1 0 0 0 0 0 2 0 0 0 0 0 0 0 0 0 0 0 0 3 5 7 5 53 54 67 99 100 100 100 100 90 5 5 9 5 4 2 69 17
5 5 5 4 1 0 0 4 4 0 0 6 1 0 0 0 0 0 0 0 0 0 0 5 5 5 5 8 97 100 100 100 100 100 100 100 100 87 73 39 8 49 25 99
5 5 5 5 8 5 5 5 5 5 27 5 5 5 5 2 4 4 2 0 0 0 4 5 5 5 5 45 99 100 100 100 100 100 100 100 100 100 100 53 100 100 100 99
5 8 5 13 20 56 54 27 5 7 48 5 5 5 5 0 4 4 5 0 0 0 0 0 5 6 54 98 100 100 100 100 100 100 100 100 100 100 100 100 100 100 100 100
19 9 5 5 5 5 5 5 22 17 69 6 5 5 4 5 0 0 0 3 0 0 0 1 5 11 98 100 100 100 100 100 100 100 100 100 100 100 100 100 100 100 100 100
5 28 9 5 5 5 5 5 5 26 72 8 5 5 4 4 0 0 5 0 0 0 0 0 5 36 100 100 100 99 100 100 100 100 100 100 100 100 100 100 100 100 100 100

GFSCGP_prec_cloud_111.txt.gz
Cloud_Cover
5 69 66 16 76 74 89 87 27 5 3 5 4 14 0 0 33 0 0 0 0 0 0 0 0 6 0 0 18 53 100 100 100 100 100 100 100 100 100 100 100 100 100 100
60 99 9 72 76 98 93 95 54 4 0 62 76 4 3 46 45 50 48 0 0 0 0 1 24 77 19 62 92 100 100 100 100 100 100 100 100 100 100 100 100 100 100 100
86 54 80 99 98 95 43 25 11 5 4 5 24 61 100 100 100 100 81 3 0 0 0 16 71 100 41 30 73 100 100 100 100 100 100 100 100 100 100 100 100 100 100 100
100 85 73 100 78 78 64 15 95 93 97 47 10 37 54 4 26 36 33 3 0 0 3 12 100 57 39 98 99 100 100 100 100 100 100 100 100 100 100 100 100 100 100 100
84 94 72 100 99 99 99 100 97 100 100 94 44 100 100 65 18 60 5 5 2 0 13 65 98 97 97 100 100 100 100 100 100 100 100 100 100 100 100 100 100 100 100 100
94 87 75 98 98 100 100 100 99 100 100 100 96 100 100 100 100 36 48 20 7 17 42 100 100 100 100 100 100 100 100 100 100 100 100 100 100 100 100 100 100 100 100 100
83 52 68 100 100 100 100 100 100 100 100 100 100 100 100 100 100 88 100 93 65 97 100 100 100 100 100 100 100 100 100 100 100 100 100 100 100 100 100 100 100 100 100 100
98 83 48 100 100 100 100 100 100 100 100 100 100 100 100 100 100 100 100 100 100 100 100 100 100 100 100 100 100 100 100 100 100 100 100 100 100 100 100 100 100 100 100 100
84 99 100 100 100 100 100 100 100 100 100 97 100 100 100 100 100 100 100 100 100 100 100 100 100 100 100 100 100 100 100 100 100 100 100 100 100 100 100 100 100 100 100 100
44 90 100 100 100 100 100 100 100 100 100 100 100 98 100 100 100 100 100 100 100 100 100 100 100 100 100 100 100 100 100 100 100 100 100 100 100 100 100 100 100 100 100 100
19 95 100 100 100 88 81 100 100 100 100 100 100 100 100 100 100 100 100 100 100 100 100 100 100 100 100 100 100 100 100 100 100 100 100 100 100 100 100 100 100 100 100 100
44 85 100 100 94 100 100 98 86 100 95 100 100 100 100 100 100 100 100 100 100 100 100 100 100 100 100 100 100 100 100 100 100 100 100 100 100 100 100 100 100 100 100 100
100 100 92 33 5 35 100 100 100 100 93 99 79 100 100 100 100 100 100 100 100 100 100 100 100 100 100 100 100 100 100 100 100 100 100 100 100 100 100 100 100 100 100 100
5 6 16 11 5 84 100 100 95 40 63 5 73 80 100 100 100 100 100 100 100 100 100 100 100 100 100 100 100 100 100 100 100 100 100 100 100 100 100 100 100 100 100 100
0 0 0 1 0 0 1 0 0 0 0 2 5 5 0 10 18 25 100 100 100 100 100 100 100 100 100 100 100 100 100 100 100 100 100 100 100 100 100 100 100 100 100 100
0 2 0 0 0 0 0 0 0 0 0 0 0 0 0 0 0 0 1 100 100 100 100 100 100 100 100 100 100 100 100 100 100 100 100 100 100 100 100 100 100 100 100 100
0 0 1 2 0 0 1 0 0 0 0 0 0 0 0 0 0 0 0 93 100 100 10 93 100 100 100 100 100 100 100 100 100 100 100 100 100 100 100 100 85 42 93 100
0 0 0 0 0 0 0 0 0 0 0 0 0 0 0 0 0 0 0 0 21 100 100 100 100 100 100 100 97 100 100 100 100 100 100 100 100 100 100 100 96 100 100 100
0 0 0 2 1 0 0 0 0 0 0 1 0 0 0 0 0 0 0 0 16 87 100 100 100 100 100 100 100 100 100 100 100 100 100 100 100 99 45 40 82 43 22 21
0 0 0 0 0 0 0 0 0 0 0 0 0 0 0 0 0 0 0 10 100 100 100 100 100 100 100 100 100 92 100 100 69 13 4 77 92 77 97 80 61 8 7 41
0 0 0 0 3 0 0 0 0 0 0 0 0 0 0 2 2 35 0 0 0 89 100 100 100 100 93 96 100 100 75 100 100 100 81 11 18 87 75 100 100 100 98 22
2 3 4 4 1 0 0 0 0 0 0 0 0 0 0 0 0 1 16 56 70 67 96 82 100 21 5 20 97 100 92 97 100 100 100 100 100 100 100 100 100 100 100 93
5 5 5 4 4 3 0 0 0 0 0 0 0 0 0 0 0 0 0 0 0 0 0 0 0 5 5 30 100 100 100 100 100 100 100 100 100 100 100 100 100 100 100 97
5 4 5 5 5 0 4 5 5 5 5 5 1 0 0 0 0 0 0 0 0 0 0 0 1 5 5 6 87 100 90 100 100 100 100 100 100 100 100 100 100 100 100 100
5 5 5 4 0 0 0 0 0 5 5 5 5 4 3 1 1 0 0 0 0 0 0 0 0 5 5 5 5 5 5 50 100 100 100 100 100 100 100 100 100 100 100 100
5 6 18 5 5 4 4 2 5 5 5 5 5 5 5 5 5 5 0 0 0 0 0 0 0 5 5 5 5 5 5 14 100 100 100 100 100 100 100 100 100 100 100 98

GFSCGP_prec_cloud_114.txt.gz
Cloud_Cover
5 22 89 10 5 5 5 23 21 5 3 14 5 5 0 0 0 0 0 0 0 0 48 5 1 0 8 73 19 1 4 0 28 72 100 100 100 100 100 100 100 100 100 100
19 95 22 6 5 7 74 71 78 7 3 27 5 4 0 1 0 0 0 0 0 0 0 2 0 47 87 95 6 25 12 98 100 100 100 100 100 100 100 100 100 100 100 100
100 11 63 69 99 98 95 100 97 58 66 13 5 4 76 68 3 0 0 0 0 0 0 0 1 1 6 68 98 68 63 30 75 100 100 100 100 100 100 100 100 100 100 100
87 40 98 27 53 75 100 100 100 93 100 92 84 49 5 7 3 2 5 5 0 0 0 0 0 6 36 73 39 7 44 44 50 99 100 100 100 100 100 100 100 100 100 100
74 5 97 61 79 92 100 100 100 100 100 100 100 92 100 100 74 5 2 3 5 4 1 3 0 69 63 37 42 85 55 33 85 100 100 100 100 100 100 100 100 100 100 100
99 69 24 32 76 100 100 100 100 100 97 100 100 97 100 100 100 100 5 5 5 5 3 27 100 74 58 59 100 100 100 100 100 100 100 100 100 100 100 100 100 100 100 100
91 44 5 18 74 98 100 100 94 100 100 100 100 100 100 100 100 100 86 95 84 91 100 100 100 100 100 100 100 100 100 100 100 100 100 100 100 100 100 100 100 100 100 100
98 79 47 98 100 100 100 100 100 100 100 100 100 100 100 100 100 100 100 100 100 100 100 100 100 100 100 100 100 100 100 100 100 100 100 100 100 100 100 100 100 100 100 100
57 74 31 74 100 99 100 100 100 100 100 100 100 100 100 100 100 100 100 100 100 100 100 100 100 100 100 100 100 100 100 100 100 100 100 100 100 100 100 100 100 100 100 100
51 99 99 100 100 100 100 100 100 100 99 91 100 100 100 100 100 100 100 100 100 100 100 100 100 100 100 100 100 100 100 100 100 100 100 100 100 100 100 100 100 100 100 100
100 100 54 100 100 62 100 56 100 100 100 100 100 100 100 100 100 100 100 100 100 100 100 100 100 100 100 100 100 100 100 100 100 100 100 100 100 100 100 100 100 100 100 100
21 99 88 5 5 83 9 40 95 59 100 100 94 100 100 100 100 100 100 100 100 100 100 100 100 100 100 100 100 100 100 100 100 100 100 100 100 100 100 100 100 100 100 100
50 5 5 86 89 68 23 50 100 100 100 100 93 100 100 100 100 100 100 100 100 100 100 100 100 100 100 100 100 100 100 100 100 100 100 100 100 100 100 100 100 100 100 100
0 1 3 1 0 0 0 8 7 8 41 17 98 76 98 100 100 100 100 100 100 100 100 100 100 100 100 100 100 100 100 100 100 100 100 100 100 100 100 100 100 100 100 100
0 0 0 0 0 0 0 0 0 0 1 2 12 8 5 16 82 100 100 100 100 100 100 100 100 100 100 100 100 100 100 100 100 100 100 100 100 100 100 100 100 100 100 100
0 0 0 0 0 0 0 0 0 0 0 0 0 0 0 0 0 5 99 98 100 100 100 100 100 100 100 100 100 100 100 100 100 100 100 100 100 100 100 100 100 100 100 100
0 0 0 4 0 0 0 0 0 0 0 0 0 0 0 0 2 2 25 40 96 98 96 24 40 100 100 100 100 100 100 100 100 100 100 100 100 100 100 100 100 100 100 78
0 0 0 4 0 0 0 0 0 0 0 0 0 0 0 0 0 0 0 3 7 20 13 90 100 100 100 100 92 74 11 100 100 100 100 100 100 100 100 100 100 100 99 100
0 0 0 0 0 0 0 0 0 0 0 1 3 0 0 0 0 0 0 1 2 2 11 14 24 87 100 100 100 87 34 100 100 100 100 29 96 100 100 100 100 100 97 55
0 0 0 3 0 0 0 5 5 5 4 5 5 5 2 5 0 0 0 0 17 95 73 76 97 100 100 100 100 99 100 100 100 100 100 100 85 93 100 100 100 100 100 100
1 2 3 2 3 0 0 0 0 0 0 0 0 4 5 0 0 0 0 0 0 0 0 6 65 95 96 100 100 100 100 100 100 97 36 53 7 98 99 100 100 100 100 100
4 4 4 3 1 1 0 0 0 0 0 0 0 0 0 0 1 0 1 1 0 0 18 91 91 89 93 62 79 95 100 100 7 5 28 21 28 78 100 100 100 100 100 100
5 4 0 0 0 0 0 0 0 0 0 0 0 0 0 2 5 5 48 84 97 9 5 5 12 41 98 100 100 74 16 92 100 100 100 100 100 99 100 100 100 100 100 100
5 5 5 2 0 0 0 0 0 0 0 0 0 0 0 0 0 0 0 1 0 0 0 0 4 2 4 5 5 42 10 59 10 87 100 100 100 100 100 100 100 100 100 100
5 5 5 5 25 5 1 3 0 0 0 0 0 0 0 0 0 0 0 0 0 0 0 0 0 0 0 5 5 5 18 5 61 100 100 100 100 100 100 100 100 100 100 100
100 17 21 5 8 16 23 9 80 6 0 0 0 0 0 0 0 0 0 0 0 0 0 0 4 3 0 5 5 5 45 6 90 100 100 100 100 100 100 100 100 100 100 100

GFSCGP_prec_cloud_117.txt.gz
Cloud_Cover
5 32 72 5 5 5 5 5 71 5 1 28 4 4 0 0 0 0 0 0 0 0 0 0 10 100 58 5 1 0 19 32 33 70 93 96 100 36 44 23 100 99 100 97
58 59 4 5 5 7 41 100 88 9 2 5 4 2 0 3 5 0 0 0 0 0 0 0 0 7 5 5 2 4 7 0 40 63 95 100 46 77 100 63 61 100 100 100
99 5 6 10 33 80 58 72 97 74 100 92 89 39 41 5 4 0 0 0 0 0 0 0 0 1 5 0 0 0 68 3 3 28 100 99 78 100 100 100 39 100 100 100
69 5 22 5 69 33 99 97 99 100 100 96 100 95 92 81 2 2 3 4 5 4 3 0 0 0 0 0 0 3 100 91 13 100 100 99 98 100 100 68 99 100 100 100
7 6 81 94 26 93 38 100 76 100 100 100 100 100 100 96 28 11 2 69 99 79 5 2 0 1 0 0 7 14 11 26 63 100 100 100 98 100 100 100 100 100 100 100
95 37 98 60 35 100 100 100 100 90 100 99 100 100 100 100 100 88 14 9 96 23 2 0 6 28 44 100 100 100 34 100 100 100 100 100 100 100 100 100 100 100 100 100
100 94 100 99 85 85 100 100 100 100 100 100 100 100 100 100 100 100 100 100 100 94 69 100 99 94 100 99 100 100 100 46 97 98 96 100 100 100 100 100 100 100 100 100
100 100 100 100 81 100 100 100 100 100 100 100 100 100 100 100 100 100 100 100 100 100 100 100 100 100 100 100 100 100 99 100 100 100 100 100 100 100 100 100 100 100 100 100
100 90 100 100 100 98 100 100 100 100 100 100 100 100 100 100 100 100 100 100 100 100 100 100 100 100 100 100 100 100 100 100 100 100 100 100 100 100 100 100 100 100 100 100
100 98 25 100 60 79 71 99 100 100 100 100 100 100 100 100 100 100 100 100 100 100 100 100 100 100 100 100 100 100 100 100 100 100 100 100 100 100 100 100 100 100 100 100
61 44 97 54 51 6 95 100 91 99 100 100 100 100 100 100 100 100 100 100 100 100 100 100 100 100 100 100 100 100 100 100 100 100 100 100 100 100 100 100 100 100 100 100
5 5 9 5 89 92 11 100 67 64 100 100 92 100 100 100 100 100 100 100 100 100 100 100 100 100 100 100 100 100 100 100 100 99 100 100 100 100 100 100 100 100 100 100
2 4 5 1 60 93 60 5 57 95 97 100 92 100 100 93 100 100 100 100 100 100 100 100 100 100 100 100 100 100 100 100 100 100 100 100 100 100 100 100 100 100 100 100
0 0 0 3 0 2 2 0 0 2 8 40 97 100 100 91 35 100 98 97 100 100 100 100 100 100 100 100 100 100 100 100 100 100 100 100 100 100 100 100 100 100 100 100
0 0 0 0 0 0 0 0 0 3 0 2 33 71 98 100 100 83 97 98 96 100 100 100 100 100 100 100 100 100 100 100 100 100 100 100 100 100 100 100 100 100 100 100
0 0 0 0 0 0 0 0 0 0 0 0 0 1 48 69 94 92 62 96 100 100 100 100 100 100 100 100 100 100 100 100 100 100 100 100 100 100 100 100 100 100 100 100
0 0 2 2 0 0 0 0 0 0 0 0 0 0 0 44 100 100 100 100 100 57 54 98 100 100 98 100 100 100 100 96 100 100 100 100 100 100 100 100 100 100 100 100
5 4 0 5 2 0 0 0 0 0 0 0 0 0 0 2 5 31 94 100 100 100 92 90 63 34 68 100 91 16 100 100 100 100 100 100 100 100 100 100 100 100 100 100
5 5 5 5 5 3 5 5 0 0 0 0 0 0 0 0 0 1 5 90 100 100 100 100 100 100 84 37 68 82 86 99 94 74 50 100 100 100 99 100 89 100 100 100
3 0 0 5 5 1 1 5 5 5 5 5 0 0 0 0 0 0 0 0 0 5 5 23 95 100 100 100 100 88 95 91 92 64 42 48 73 96 26 55 79 100 100 100
0 0 3 2 3 0 0 0 2 4 5 5 5 5 5 5 4 1 0 0 0 0 0 3 5 90 96 98 95 100 100 100 92 66 61 61 73 66 19 21 71 100 100 100
0 0 3 3 1 1 0 0 0 0 0 0 2 5 5 3 0 0 0 0 0 0 0 0 0 0 0 0 0 5 5 0 0 3 5 39 5 13 5 24 54 88 100 100
0 0 0 0 0 0 0 4 0 0 0 0 0 0 0 0 0 0 0 0 0 0 0 0 0 0 0 0 0 5 25 28 90 50 20 50 95 96 97 73 100 100 100 100
5 1 1 0 5 0 0 1 5 5 0 0 0 0 0 0 0 0 0 0 0 0 0 0 1 4 10 68 82 82 64 61 97 11 54 100 100 94 54 91 100 100 100 100
8 64 38 5 5 68 0 0 0 0 2 5 0 0 0 0 0 0 0 0 0 0 0 0 0 2 2 2 10 5 5 72 57 6 43 100 100 100 100 86 97 100 100 100
6 85 100 51 5 5 5 0 0 0 0 0 0 0 0 5 4 1 0 0 0 0 0 0 0 4 5 4 5 5 5 14 6 93 100 100 100 100 100 100 97 96 100 100

GFSCGP_prec_cloud_120.txt.gz
Cloud_Cover
5 32 48 5 5 5 5 26 38 5 1 5 4 4 0 0 0 0 0 0 0 0 0 0 0 0 0 5 5 4 5 36 34 73 100 100 100 100 100 20 5 13 49 33
10 9 5 5 5 6 29 99 42 2 3 5 3 5 1 1 1 2 0 0 0 0 0 0 0 0 0 5 20 5 5 1 42 41 15 50 9 48 76 51 8 60 1 52
28 4 5 5 45 100 43 61 5 39 45 5 12 63 4 5 4 0 0 0 0 0 0 0 0 0 0 0 9 78 5 9 18 55 89 100 100 98 100 62 98 80 68 88
11 4 5 5 70 83 94 32 98 100 100 100 94 66 98 96 98 10 5 4 20 4 0 0 0 0 0 0 5 8 6 0 46 74 91 100 100 100 47 54 44 100 100 100
4 5 37 76 99 100 98 99 100 100 100 100 87 100 100 100 94 98 83 36 100 97 86 1 0 1 17 83 64 32 23 10 92 99 100 78 54 36 27 36 82 100 100 80
100 81 75 100 93 100 100 100 100 100 100 100 100 100 100 100 100 100 100 100 100 100 95 100 86 31 14 50 77 36 2 36 20 24 20 30 42 63 77 98 100 100 95 97
100 56 6 68 95 100 100 100 100 100 100 100 99 100 100 100 100 100 100 100 100 100 100 100 100 100 100 65 92 84 81 79 76 36 36 41 100 100 71 100 100 100 100 100
100 100 100 100 100 100 100 100 100 100 100 100 100 100 100 100 100 100 100 100 100 100 100 100 100 100 100 100 100 100 99 100 100 100 99 100 100 100 100 100 100 100 100 100
99 100 100 100 100 100 100 100 100 100 100 100 100 100 100 100 100 100 100 100 100 100 100 100 100 100 100 100 100 100 100 100 100 100 100 100 100 100 100 100 100 100 100 100
92 100 100 100 100 100 100 100 100 100 100 100 100 100 100 100 100 100 100 100 100 100 100 100 100 100 100 100 100 100 100 100 100 100 100 100 100 100 100 100 100 100 100 100
8 47 100 93 66 91 64 16 49 21 100 100 100 100 100 100 100 100 100 100 100 100 100 100 100 100 100 100 100 100 100 100 100 100 100 100 100 100 100 100 100 100 100 100
5 42 16 31 6 22 10 68 5 89 59 95 100 100 100 100 100 100 100 100 100 100 100 100 100 100 100 100 100 100 100 100 100 100 100 100 100 100 100 100 100 100 100 100
3 4 5 0 2 0 4 53 92 44 33 96 21 98 100 100 100 100 100 100 85 100 100 100 93 100 100 100 100 100 100 100 100 100 100 100 100 100 100 100 100 100 100 100
2 0 0 3 0 0 0 1 64 70 99 76 16 25 96 100 100 100 71 16 100 100 77 100 100 100 100 100 100 100 100 100 100 100 100 100 100 100 100 100 100 100 100 100
0 2 0 1 0 0 0 0 0 1 2 12 80 36 100 100 100 100 39 39 100 100 83 100 100 100 100 100 100 100 100 100 100 100 98 91 100 100 100 100 100 100 100 100
0 0 0 4 0 0 0 0 0 0 0 3 5 12 99 100 100 100 100 100 63 100 36 68 86 15 21 100 100 100 100 100 100 100 100 100 100 100 100 100 100 100 100 100
0 5 5 1 3 3 0 0 0 0 0 0 1 11 73 94 100 100 100 100 100 100 100 99 60 100 64 100 82 98 76 100 100 100 97 100 100 100 100 100 100 100 100 100
5 11 35 20 6 5 5 5 5 3 0 0 0 0 0 0 3 5 10 15 73 100 100 100 100 100 100 98 100 53 64 36 100 84 37 63 98 76 99 100 92 100 90 100
0 0 2 3 3 3 5 5 5 5 5 5 5 2 0 0 0 0 6 57 5 5 66 95 100 99 100 100 100 100 95 21 58 48 76 82 82 99 84 100 56 39 9 6
0 0 0 0 0 1 0 0 0 1 5 5 6 5 5 5 4 3 0 0 0 0 4 5 19 40 18 54 97 100 98 44 42 66 50 9 12 13 29 30 5 5 5 5
0 0 4 4 3 4 5 5 2 0 0 0 0 4 19 5 5 5 3 1 0 0 0 0 0 0 0 1 7 37 26 58 25 10 35 7 5 5 5 5 5 5 5 5
0 4 4 3 1 1 1 4 5 5 1 0 0 0 0 4 5 5 10 5 16 16 5 5 4 3 3 3 1 5 5 5 5 5 5 5 5 5 5 5 5 6 56 88
0 5 5 5 3 4 0 3 3 5 5 5 0 0 0 5 5 5 5 5 1 0 0 0 1 5 5 5 5 5 5 5 5 5 5 5 5 5 80 99 100 100 100 100
6 81 100 100 13 100 30 5 5 5 1 0 4 4 0 0 0 0 4 5 4 5 5 1 0 5 5 5 5 5 5 5 5 5 5 9 84 100 100 100 100 100 100 100
12 39 34 99 8 5 14 89 69 28 5 5 5 4 1 1 3 5 4 3 3 3 3 1 3 5 5 5 5 5 5 5 5 34 92 100 100 100 100 100 100 100 100 100
3 5 5 98 36 98 36 56 65 14 12 5 5 5 5 5 5 5 5 4 1 0 0 2 5 5 5 5 5 5 5 5 24 100 100 100 100 100 100 100 100 94 100 99